[[{"header":{"parameterUnit":"m.s-1","parameterCategory":1,"la1":30.6,"la2":29.2853,"lo1":-89.7004,"lo2":-87.6739,"dy":0.0162,"dx":0.0183,"nx":112,"ny":82,"refTime":"2024-02-07T18:00:00:Z","depth":0,"parameterNumber":2,"parameterNumberName":"U-component_of_WINDS"},"data":[0.0,0.0,0.0,0.0,0.0,0.0,0.0,0.0,0.0,0.0,0.0,0.0,0.0,0.0,0.0,0.0,0.0,0.0,0.0,0.0,0.0,0.0,0.0,0.0,0.0,0.0,0.0,0.0,0.0,0.0,0.0,0.0,0.0,0.0,0.0,0.0,0.0,0.0,0.0,0.0,0.0,0.0,0.0,0.0,0.0,0.0,0.0,0.0,0.0,0.0,0.0,0.0,0.0,0.0,0.0,0.0,0.0,0.0,0.0,0.0,0.0,0.0,0.0,0.0,0.0,0.0,0.0,0.0,0.0,0.0,0.0,0.0,0.0,0.0,0.0,0.0,0.0,0.0,0.0,0.0,0.0,0.0,0.0,0.0,0.0,0.0,0.0,0.0,0.0,0.0,-5.8387,-5.9202,-5.9425,-5.9807,-6.0549,-6.0588,-6.0617,-6.0588,0.0,0.0,0.0,0.0,0.0,0.0,0.0,0.0,0.0,0.0,0.0,0.0,0.0,0.0,0.0,0.0,0.0,0.0,0.0,0.0,0.0,0.0,0.0,0.0,0.0,0.0,0.0,0.0,0.0,0.0,0.0,0.0,0.0,0.0,0.0,0.0,0.0,0.0,0.0,0.0,0.0,0.0,0.0,0.0,0.0,0.0,0.0,0.0,0.0,0.0,0.0,0.0,0.0,0.0,0.0,0.0,0.0,0.0,0.0,0.0,0.0,0.0,0.0,0.0,0.0,0.0,0.0,0.0,0.0,0.0,0.0,0.0,0.0,0.0,0.0,0.0,0.0,0.0,0.0,0.0,0.0,0.0,0.0,0.0,0.0,0.0,0.0,0.0,0.0,0.0,0.0,0.0,0.0,0.0,0.0,0.0,0.0,0.0,0.0,0.0,0.0,0.0,0.0,0.0,-5.9237,-6.0096,-6.0866,-6.1369,-6.1486,-6.1486,-6.1476,-6.1407,0.0,0.0,0.0,0.0,0.0,0.0,0.0,0.0,0.0,0.0,0.0,0.0,0.0,0.0,0.0,0.0,0.0,0.0,0.0,0.0,0.0,0.0,0.0,0.0,0.0,0.0,0.0,0.0,0.0,0.0,0.0,0.0,0.0,0.0,0.0,0.0,0.0,0.0,0.0,0.0,0.0,0.0,0.0,0.0,0.0,0.0,0.0,0.0,0.0,0.0,0.0,0.0,0.0,0.0,0.0,0.0,0.0,0.0,0.0,0.0,0.0,0.0,0.0,0.0,0.0,0.0,0.0,0.0,0.0,0.0,0.0,0.0,0.0,0.0,0.0,0.0,0.0,0.0,0.0,0.0,0.0,0.0,0.0,0.0,0.0,0.0,0.0,0.0,0.0,0.0,0.0,0.0,0.0,0.0,0.0,0.0,0.0,0.0,0.0,0.0,0.0,0.0,0.0,-5.9976,-6.064,-6.1065,-6.1447,-6.172,-6.172,-6.172,-6.1671,-6.1602,-6.1244,0.0,0.0,0.0,0.0,0.0,0.0,0.0,0.0,0.0,0.0,0.0,0.0,0.0,0.0,0.0,0.0,0.0,0.0,0.0,0.0,0.0,0.0,0.0,0.0,0.0,0.0,0.0,0.0,0.0,0.0,0.0,0.0,0.0,0.0,0.0,0.0,0.0,0.0,0.0,0.0,0.0,0.0,0.0,0.0,0.0,0.0,0.0,0.0,0.0,0.0,0.0,0.0,0.0,0.0,0.0,0.0,0.0,0.0,0.0,0.0,0.0,0.0,0.0,0.0,0.0,0.0,0.0,0.0,0.0,0.0,0.0,0.0,0.0,0.0,0.0,0.0,0.0,0.0,0.0,0.0,0.0,0.0,0.0,0.0,0.0,0.0,0.0,0.0,0.0,0.0,0.0,0.0,0.0,0.0,0.0,0.0,0.0,0.0,0.0,0.0,0.0,0.0,-6.1303,-6.169,-6.1681,-6.172,-6.172,-6.172,-6.172,-6.1671,-6.1602,-6.1595,0.0,0.0,0.0,0.0,0.0,0.0,0.0,0.0,0.0,0.0,0.0,0.0,0.0,0.0,0.0,0.0,0.0,0.0,0.0,0.0,0.0,0.0,0.0,0.0,0.0,0.0,0.0,0.0,0.0,0.0,0.0,0.0,0.0,0.0,0.0,0.0,0.0,0.0,0.0,0.0,0.0,0.0,0.0,0.0,0.0,0.0,0.0,0.0,0.0,0.0,0.0,0.0,0.0,0.0,0.0,0.0,0.0,0.0,0.0,0.0,0.0,0.0,0.0,0.0,0.0,0.0,0.0,0.0,0.0,0.0,0.0,0.0,0.0,0.0,0.0,0.0,0.0,0.0,0.0,0.0,0.0,0.0,0.0,0.0,0.0,0.0,0.0,0.0,0.0,0.0,0.0,0.0,0.0,0.0,0.0,0.0,0.0,0.0,0.0,0.0,0.0,0.0,-6.1642,-6.1681,-6.172,-6.172,-6.172,-6.172,-6.172,-6.1671,-6.1602,-6.1595,0.0,0.0,0.0,0.0,0.0,0.0,0.0,0.0,0.0,0.0,0.0,0.0,0.0,0.0,0.0,0.0,0.0,0.0,0.0,0.0,0.0,0.0,0.0,0.0,0.0,0.0,0.0,0.0,0.0,0.0,0.0,0.0,0.0,0.0,0.0,0.0,0.0,0.0,0.0,0.0,0.0,0.0,0.0,0.0,0.0,0.0,0.0,0.0,0.0,0.0,0.0,0.0,0.0,0.0,0.0,0.0,0.0,0.0,0.0,0.0,0.0,0.0,0.0,0.0,0.0,0.0,0.0,0.0,0.0,0.0,0.0,0.0,0.0,0.0,0.0,0.0,0.0,0.0,0.0,0.0,0.0,0.0,0.0,0.0,0.0,0.0,0.0,0.0,0.0,0.0,0.0,0.0,0.0,0.0,0.0,0.0,0.0,0.0,0.0,0.0,0.0,0.0,-6.172,-6.172,-6.172,-6.172,-6.172,-6.172,-6.172,-6.1671,-6.1602,0.0,0.0,0.0,0.0,0.0,0.0,0.0,0.0,0.0,0.0,0.0,0.0,0.0,0.0,0.0,0.0,0.0,0.0,0.0,0.0,0.0,0.0,0.0,0.0,0.0,0.0,0.0,0.0,0.0,0.0,0.0,0.0,0.0,0.0,0.0,0.0,0.0,0.0,0.0,0.0,0.0,0.0,0.0,0.0,0.0,0.0,0.0,0.0,0.0,0.0,0.0,0.0,0.0,0.0,0.0,0.0,0.0,0.0,0.0,0.0,0.0,0.0,0.0,0.0,0.0,0.0,0.0,0.0,0.0,0.0,0.0,0.0,0.0,0.0,0.0,0.0,0.0,0.0,0.0,0.0,0.0,0.0,0.0,0.0,0.0,0.0,0.0,0.0,0.0,0.0,0.0,0.0,0.0,0.0,0.0,0.0,0.0,0.0,0.0,0.0,0.0,0.0,-6.172,-6.172,-6.172,-6.172,-6.172,-6.172,-6.172,-6.172,-6.1621,-6.1526,0.0,0.0,0.0,0.0,0.0,0.0,0.0,0.0,0.0,0.0,0.0,0.0,0.0,0.0,0.0,0.0,0.0,0.0,0.0,0.0,0.0,0.0,0.0,0.0,0.0,0.0,0.0,0.0,0.0,0.0,0.0,0.0,0.0,0.0,0.0,0.0,0.0,0.0,0.0,0.0,0.0,0.0,0.0,0.0,0.0,0.0,0.0,0.0,0.0,0.0,0.0,0.0,0.0,0.0,0.0,0.0,0.0,0.0,0.0,0.0,0.0,0.0,0.0,0.0,0.0,0.0,0.0,0.0,0.0,0.0,0.0,0.0,0.0,0.0,0.0,0.0,0.0,0.0,0.0,0.0,0.0,0.0,0.0,0.0,0.0,0.0,0.0,0.0,0.0,0.0,0.0,0.0,0.0,0.0,0.0,0.0,0.0,0.0,0.0,0.0,0.0,0.0,-6.172,-6.172,-6.172,-6.172,-6.172,-6.172,-6.172,-6.172,-6.1602,0.0,0.0,0.0,0.0,0.0,0.0,0.0,0.0,0.0,0.0,0.0,0.0,0.0,0.0,0.0,0.0,0.0,0.0,0.0,0.0,0.0,0.0,0.0,0.0,0.0,0.0,0.0,0.0,0.0,0.0,0.0,0.0,0.0,0.0,0.0,0.0,0.0,0.0,0.0,0.0,0.0,0.0,0.0,0.0,0.0,0.0,0.0,0.0,0.0,0.0,0.0,0.0,0.0,0.0,0.0,0.0,0.0,0.0,0.0,0.0,0.0,0.0,0.0,0.0,0.0,0.0,0.0,0.0,0.0,0.0,0.0,0.0,0.0,0.0,0.0,0.0,0.0,0.0,0.0,0.0,0.0,0.0,0.0,0.0,0.0,0.0,0.0,0.0,0.0,0.0,0.0,0.0,0.0,0.0,0.0,0.0,0.0,0.0,0.0,0.0,0.0,0.0,0.0,-6.1705,-6.1715,-6.1954,-6.254,-6.2618,-6.2852,-6.3477,-6.3516,-6.3494,-6.3358,0.0,0.0,0.0,0.0,0.0,0.0,0.0,0.0,0.0,0.0,0.0,0.0,0.0,0.0,0.0,0.0,0.0,0.0,0.0,0.0,0.0,0.0,0.0,0.0,0.0,0.0,0.0,0.0,0.0,0.0,0.0,0.0,0.0,0.0,0.0,0.0,0.0,0.0,0.0,0.0,0.0,0.0,0.0,0.0,0.0,0.0,0.0,0.0,0.0,0.0,0.0,0.0,0.0,0.0,0.0,0.0,0.0,0.0,0.0,0.0,0.0,0.0,0.0,0.0,0.0,0.0,0.0,0.0,0.0,0.0,0.0,0.0,0.0,0.0,0.0,0.0,0.0,0.0,0.0,0.0,0.0,0.0,0.0,0.0,0.0,0.0,0.0,0.0,0.0,0.0,0.0,0.0,0.0,0.0,0.0,0.0,0.0,0.0,0.0,0.0,0.0,0.0,-6.2206,-6.253,-6.293,-6.3477,-6.3516,-6.3711,-6.4258,-6.4297,-6.4241,-6.4099,0.0,0.0,0.0,0.0,0.0,0.0,0.0,0.0,0.0,0.0,0.0,0.0,0.0,0.0,0.0,0.0,0.0,0.0,0.0,0.0,0.0,0.0,0.0,0.0,0.0,0.0,0.0,0.0,0.0,0.0,0.0,0.0,0.0,0.0,0.0,0.0,0.0,0.0,0.0,0.0,0.0,0.0,0.0,0.0,0.0,0.0,0.0,0.0,0.0,0.0,0.0,0.0,0.0,0.0,0.0,0.0,0.0,0.0,0.0,0.0,0.0,0.0,0.0,0.0,0.0,0.0,0.0,0.0,0.0,0.0,0.0,0.0,0.0,0.0,0.0,0.0,0.0,0.0,0.0,0.0,0.0,0.0,0.0,0.0,0.0,0.0,0.0,0.0,0.0,0.0,0.0,0.0,0.0,0.0,0.0,0.0,0.0,0.0,0.0,0.0,0.0,0.0,-6.3104,-6.3823,-6.4336,-6.4414,-6.4414,-6.4453,-6.4531,-6.4531,-6.4424,-6.4169,0.0,0.0,0.0,0.0,0.0,0.0,0.0,0.0,0.0,0.0,0.0,0.0,0.0,0.0,0.0,0.0,0.0,0.0,0.0,0.0,0.0,0.0,0.0,0.0,0.0,0.0,0.0,0.0,0.0,0.0,0.0,0.0,0.0,0.0,0.0,0.0,0.0,0.0,0.0,0.0,0.0,0.0,0.0,0.0,0.0,0.0,0.0,0.0,0.0,0.0,0.0,0.0,0.0,0.0,0.0,0.0,0.0,0.0,0.0,0.0,-5.8971,-5.8491,0.0,0.0,0.0,0.0,0.0,0.0,0.0,0.0,0.0,0.0,0.0,0.0,0.0,0.0,0.0,0.0,0.0,0.0,0.0,0.0,0.0,0.0,0.0,0.0,0.0,0.0,0.0,0.0,0.0,0.0,0.0,0.0,0.0,0.0,0.0,0.0,0.0,0.0,0.0,0.0,-6.3943,-6.4163,-6.457,-6.5234,-6.5312,-6.5585,-6.6209,-6.6288,-6.6238,-6.6166,-6.6159,0.0,0.0,0.0,0.0,0.0,0.0,0.0,0.0,0.0,0.0,0.0,0.0,0.0,0.0,0.0,0.0,0.0,0.0,0.0,0.0,0.0,0.0,0.0,0.0,0.0,0.0,0.0,0.0,0.0,0.0,0.0,0.0,0.0,0.0,0.0,0.0,0.0,0.0,0.0,0.0,0.0,0.0,0.0,0.0,0.0,0.0,0.0,0.0,0.0,0.0,0.0,0.0,0.0,0.0,0.0,0.0,0.0,0.0,0.0,-5.9969,-5.9649,0.0,0.0,0.0,0.0,0.0,0.0,0.0,0.0,0.0,0.0,0.0,0.0,0.0,0.0,0.0,0.0,0.0,0.0,0.0,0.0,0.0,0.0,0.0,0.0,0.0,0.0,0.0,0.0,0.0,0.0,0.0,0.0,0.0,0.0,0.0,0.0,0.0,0.0,0.0,0.0,-6.4833,-6.5217,-6.5663,-6.6131,-6.617,-6.6366,-6.6756,-6.6795,-6.6795,-6.6784,-6.6817,0.0,0.0,0.0,0.0,0.0,0.0,0.0,0.0,0.0,0.0,0.0,0.0,0.0,0.0,0.0,0.0,0.0,0.0,0.0,0.0,0.0,0.0,0.0,0.0,0.0,0.0,0.0,0.0,0.0,0.0,0.0,0.0,0.0,0.0,0.0,0.0,0.0,0.0,0.0,0.0,0.0,0.0,0.0,0.0,0.0,0.0,0.0,0.0,0.0,0.0,0.0,0.0,0.0,-6.0757,-6.0757,-6.0781,-6.0866,-6.0943,-6.1012,-6.1097,-6.1057,-6.0982,-6.1022,0.0,0.0,0.0,0.0,0.0,0.0,0.0,0.0,0.0,0.0,0.0,0.0,0.0,0.0,0.0,0.0,0.0,0.0,0.0,0.0,0.0,0.0,-6.3833,-6.392,-6.3948,-6.3804,-6.3263,0.0,0.0,0.0,0.0,0.0,0.0,0.0,0.0,0.0,0.0,0.0,-6.5737,-6.6349,-6.6795,-6.6795,-6.6795,-6.6795,-6.6795,-6.6795,-6.6795,-6.6795,-6.6784,-6.6772,0.0,0.0,0.0,0.0,0.0,0.0,0.0,0.0,0.0,0.0,0.0,0.0,0.0,0.0,0.0,0.0,0.0,0.0,0.0,0.0,0.0,0.0,0.0,0.0,0.0,0.0,0.0,0.0,0.0,0.0,0.0,0.0,-5.5195,-5.5377,0.0,0.0,0.0,0.0,0.0,0.0,0.0,0.0,0.0,0.0,0.0,0.0,0.0,-6.065,-6.0627,-6.0671,-6.071,-6.071,-6.071,-6.071,-6.071,-6.0757,-6.1228,-6.1935,-6.1959,0.0,-6.0938,-6.1002,0.0,0.0,0.0,0.0,0.0,0.0,0.0,0.0,0.0,0.0,0.0,0.0,0.0,0.0,0.0,0.0,0.0,0.0,0.0,0.0,0.0,0.0,-6.3534,-6.3751,-6.4342,-6.4838,-6.4938,-6.4432,-6.4006,-6.4083,-6.4092,-6.4372,0.0,0.0,0.0,0.0,0.0,0.0,-6.6616,-6.6745,-6.6795,-6.6795,-6.6795,-6.6795,-6.6795,-6.6795,-6.6795,-6.6795,-6.6795,-6.672,-6.6546,-6.6689,0.0,0.0,0.0,0.0,0.0,0.0,0.0,0.0,0.0,0.0,0.0,0.0,0.0,0.0,0.0,0.0,0.0,0.0,0.0,0.0,0.0,0.0,0.0,0.0,0.0,0.0,0.0,0.0,0.0,-5.526,-5.5477,-5.6014,-5.6078,-5.6485,0.0,0.0,0.0,0.0,0.0,0.0,0.0,0.0,0.0,-6.0734,-6.0817,-6.0834,-6.0734,-6.1209,-6.144,-6.1488,-6.1925,-6.2156,-6.2156,-6.218,-6.2397,-6.2781,-6.2781,-6.2574,-6.2252,-6.2309,-6.2393,-6.2453,0.0,0.0,0.0,0.0,-6.2521,-6.2504,-6.2414,-6.2646,-6.2974,-6.2974,0.0,0.0,0.0,0.0,0.0,0.0,0.0,-6.457,-6.4545,-6.4877,-6.525,-6.535,-6.5635,-6.5932,-6.6,-6.5748,-6.5472,-6.5559,-6.5573,-6.57,-6.6195,-6.6258,0.0,0.0,0.0,-6.6811,-6.6811,-6.679,-6.6795,-6.6795,-6.6795,-6.6795,-6.6795,-6.6795,-6.6795,-6.6795,-6.6795,-6.6745,-6.6666,-6.6642,-6.6535,0.0,0.0,0.0,0.0,0.0,0.0,0.0,0.0,0.0,0.0,0.0,0.0,0.0,0.0,0.0,0.0,0.0,0.0,0.0,0.0,0.0,0.0,0.0,0.0,0.0,0.0,0.0,0.0,-5.5682,-5.5962,-5.6816,-5.6957,-5.7315,0.0,0.0,0.0,0.0,0.0,0.0,-6.0809,-6.0943,-6.0887,-6.0757,-6.1053,-6.1142,-6.108,-6.1901,-6.2348,-6.2397,-6.3012,-6.332,-6.332,-6.332,-6.3435,-6.3628,-6.3628,-6.3782,-6.3935,-6.3522,-6.3353,-6.3376,-6.3461,-6.3483,-6.3505,-6.3483,-6.3483,-6.3461,-6.3415,-6.3507,-6.37,-6.37,-6.3934,-6.425,-6.423,0.0,0.0,0.0,0.0,-6.5516,-6.544,-6.5995,-6.6595,-6.6624,-6.6633,-6.6642,-6.6658,-6.6674,-6.6688,-6.6687,-6.6699,-6.6713,-6.6823,-6.6848,0.0,-6.6784,-6.6817,-6.6817,-6.6817,-6.679,-6.6795,-6.6795,-6.6795,-6.6795,-6.6795,-6.6795,-6.6795,-6.6795,-6.6795,-6.6795,-6.6795,-6.6658,-6.6556,-6.6513,0.0,0.0,0.0,0.0,0.0,0.0,0.0,0.0,0.0,0.0,0.0,0.0,0.0,0.0,0.0,0.0,0.0,0.0,0.0,0.0,0.0,0.0,0.0,0.0,0.0,0.0,0.0,0.0,0.0,-5.7707,-5.7863,0.0,0.0,0.0,0.0,-6.065,-6.0727,-6.0696,-6.0559,-6.0585,-6.061,-6.061,-6.1467,-6.1964,-6.2012,-6.282,-6.3243,-6.3243,-6.3281,-6.332,-6.332,-6.332,-6.3743,-6.4551,-6.4551,-6.5013,-6.5628,-6.3974,-6.3368,-6.3415,-6.3376,-6.3461,-6.3483,-6.3438,-6.3415,-6.3415,-6.3344,-6.3858,-6.4551,-6.4551,-6.5186,-6.5954,-6.5954,-6.6112,0.0,0.0,-6.6167,-6.6322,-6.6173,-6.632,-6.6556,-6.6655,-6.6673,-6.6727,-6.6872,-6.6875,-6.6836,-6.6731,-6.6683,-6.6742,-6.6869,0.0,-6.6859,-6.68,-6.6795,-6.6795,-6.6795,-6.6795,-6.6795,-6.6795,-6.6795,-6.6795,-6.6795,-6.6795,-6.6795,-6.6795,-6.6795,-6.6795,-6.6795,-6.6795,-6.6713,-6.6513,-6.6513,0.0,0.0,0.0,0.0,0.0,0.0,0.0,0.0,0.0,0.0,0.0,0.0,0.0,0.0,0.0,0.0,0.0,0.0,0.0,0.0,0.0,0.0,0.0,0.0,0.0,0.0,0.0,0.0,-5.8574,-5.8716,0.0,-6.0035,-6.0112,-6.0227,-6.0584,-6.0559,-6.052,-6.048,-6.1095,-6.1454,-6.148,-6.2362,-6.2834,-6.2858,-6.3705,-6.4128,-6.4128,-6.4705,-6.4974,-6.4974,-6.4974,-6.5128,-6.5436,-6.5436,-6.559,-6.5859,-6.5243,-6.4999,-6.5023,-6.5023,-6.5023,-6.5048,-6.5023,-6.5023,-6.4999,-6.4974,-6.5166,-6.5436,-6.5436,-6.5664,-6.5951,-6.5951,-6.6089,-6.6179,-6.6128,-6.6299,-6.6462,-6.6457,-6.6555,-6.6655,-6.6787,-6.683,-6.6832,-6.6875,-6.6914,-6.6875,-6.6832,-6.6834,-6.6835,-6.682,-6.6856,-6.6813,-6.68,-6.6795,-6.6795,-6.6795,-6.6795,-6.6795,-6.6795,-6.6795,-6.6795,-6.6795,-6.6795,-6.6795,-6.6795,-6.6795,-6.6795,-6.6795,-6.6795,-6.6784,-6.6674,-6.6674,-6.6556,0.0,0.0,0.0,0.0,0.0,0.0,0.0,0.0,0.0,0.0,0.0,0.0,0.0,0.0,0.0,0.0,0.0,0.0,0.0,0.0,0.0,0.0,0.0,0.0,0.0,-5.7898,-5.8612,-5.9453,-5.9529,-5.9786,-6.0414,-6.0436,-6.0436,-6.0453,-6.0748,-6.0954,-6.1019,-6.1889,-6.24,-6.2497,-6.3281,-6.3718,-6.3743,-6.4589,-6.5051,-6.5051,-6.5628,-6.5897,-6.5897,-6.5897,-6.5897,-6.5897,-6.5897,-6.5897,-6.5897,-6.5897,-6.5897,-6.5897,-6.5897,-6.5897,-6.5897,-6.5897,-6.5897,-6.5897,-6.5897,-6.5909,-6.5943,-6.5943,-6.6013,-6.6041,-6.6041,-6.6089,-6.6183,-6.6183,-6.6334,-6.6537,-6.6596,-6.6678,-6.6784,-6.6874,-6.6914,-6.6914,-6.6914,-6.6914,-6.6914,-6.6913,-6.691,-6.6904,-6.6859,-6.6813,-6.6809,-6.68,-6.6795,-6.6795,-6.6795,-6.6795,-6.6795,-6.6795,-6.6795,-6.6795,-6.6795,-6.6778,-6.6733,-6.6795,-6.6778,-6.6733,-6.6795,-6.6778,-6.6727,-6.6727,-6.6727,-6.6633,-6.6386,0.0,0.0,0.0,0.0,0.0,0.0,0.0,0.0,0.0,0.0,0.0,0.0,0.0,0.0,0.0,0.0,0.0,0.0,0.0,0.0,0.0,0.0,0.0,-5.8919,-5.9064,-5.9453,-6.0293,-6.0408,-6.0408,-6.0408,-6.0408,-6.0408,-6.0446,-6.1352,-6.195,-6.205,-6.2891,-6.3399,-6.3534,-6.42,-6.4603,-6.4653,-6.5499,-6.5923,-6.5923,-6.5897,-6.5897,-6.5897,-6.5897,-6.5897,-6.5923,-6.5923,-6.5923,-6.5923,-6.5923,-6.5923,-6.5923,-6.5923,-6.5923,-6.5923,-6.5923,-6.5923,-6.5923,-6.5923,-6.6013,-6.6108,-6.6108,-6.6165,-6.6314,-6.6314,-6.6314,-6.6314,-6.6329,-6.6435,-6.6596,-6.6596,-6.6735,-6.6914,-6.6914,-6.6914,-6.6914,-6.6914,-6.6914,-6.6913,-6.6906,-6.6908,-6.691,-6.6904,-6.6856,-6.6809,-6.68,-6.6795,0.0,-6.6795,-6.6795,-6.6795,-6.6795,-6.6795,-6.6795,-6.679,-6.6681,-6.6633,-6.679,-6.6642,-6.6633,-6.679,-6.6642,-6.6585,-6.6585,-6.6585,-6.6585,-6.6585,0.0,0.0,0.0,0.0,0.0,0.0,0.0,0.0,0.0,0.0,0.0,0.0,0.0,0.0,0.0,0.0,0.0,0.0,0.0,0.0,0.0,-5.9378,-5.9779,-5.913,-5.9616,-6.0141,-6.037,-6.0408,-6.0408,-6.0408,-6.0408,-6.0637,-6.1211,-6.1722,-6.2259,-6.2965,-6.398,-6.4575,-6.4643,-6.5407,-6.5798,-6.5816,-6.5972,-6.6063,-6.6041,-6.5958,-6.5897,-6.5897,-6.5897,-6.5958,-6.6063,-6.6063,-6.6108,-6.6203,-6.6203,-6.6203,-6.6185,-6.6088,-6.6063,-6.6084,-6.6148,-6.6203,-6.6203,-6.6203,-6.62,-6.6234,-6.6234,-6.6267,-6.6314,-6.6314,-6.6413,-6.6507,-6.6527,-6.6655,-6.6823,-6.6828,-6.6873,-6.6914,-6.6914,-6.6914,-6.6914,-6.6914,-6.6914,-6.6914,-6.6913,-6.691,-6.6865,-6.6848,-6.6805,-6.68,-6.6795,-6.6795,-6.6795,-6.6795,-6.6795,-6.6778,-6.6681,-6.6633,-6.6605,-6.6438,-6.64,-6.6386,-6.6438,-6.64,-6.64,-6.6438,-6.64,-6.6373,-6.6373,-6.6306,-6.6239,0.0,0.0,0.0,0.0,0.0,0.0,0.0,0.0,0.0,0.0,0.0,0.0,0.0,0.0,0.0,0.0,0.0,0.0,0.0,0.0,0.0,0.0,-5.9951,-6.0132,-5.972,-6.0064,-6.0408,-6.0408,-6.0408,-6.0408,-6.0408,-6.0714,-6.1152,-6.1693,-6.2589,-6.3415,-6.4056,-6.507,-6.563,-6.5752,-6.605,-6.62,-6.62,-6.6088,-6.5997,-6.5997,-6.5933,-6.5909,-6.599,-6.599,-6.6084,-6.6203,-6.6203,-6.6217,-6.6314,-6.6314,-6.6314,-6.6299,0.0,0.0,0.0,0.0,-6.6314,-6.6314,-6.6314,-6.6358,-6.6439,-6.6439,-6.6451,-6.6524,-6.6524,-6.6585,-6.6681,-6.6694,-6.677,-6.691,-6.6913,-6.6914,-6.6914,-6.6914,-6.6914,-6.6914,-6.6914,-6.6914,-6.6914,-6.6914,-6.6911,0.0,-6.6809,-6.68,-6.6795,-6.6795,-6.6795,-6.6795,-6.6795,-6.6795,-6.6784,-6.6697,-6.6697,-6.6615,-6.6452,-6.6344,0.0,0.0,0.0,-6.62,-6.62,-6.62,0.0,0.0,0.0,-6.6109,-6.6203,-6.6063,0.0,0.0,-6.5895,-6.5872,0.0,0.0,0.0,0.0,0.0,0.0,0.0,0.0,0.0,0.0,0.0,0.0,0.0,0.0,0.0,0.0,-6.0256,-6.0226,-6.037,-6.0408,-6.0408,-6.0408,-6.0408,-6.0446,-6.0523,-6.1172,-6.1753,-6.2158,-6.37,-6.4831,-6.5164,-6.5926,0.0,0.0,0.0,-6.6109,-6.6109,-6.599,-6.5909,-6.5909,-6.5923,-6.5943,-6.6067,-6.6067,-6.6167,-6.6314,-6.6314,-6.6329,-6.6358,-6.6358,-6.6358,-6.6358,-6.6344,-6.6344,-6.6358,-6.6358,-6.6358,-6.6358,-6.6358,0.0,0.0,-6.6615,-6.6705,-6.6795,-6.6795,-6.6795,-6.68,-6.6809,-6.6859,-6.6904,-6.6911,-6.6913,-6.6914,-6.6914,-6.6914,-6.6914,-6.6914,-6.6914,-6.6914,-6.6912,-6.6911,-6.6869,-6.6817,-6.6805,-6.68,-6.6795,-6.6795,-6.6795,-6.6795,-6.6795,-6.6795,-6.6784,-6.6739,0.0,-6.6563,-6.6383,-6.6251,-6.6251,-6.6129,-6.6067,-6.6067,-6.6067,-6.6067,-6.6067,-6.6067,-6.6129,-6.6251,-6.6129,-6.6067,-6.6067,-6.5982,-6.5897,0.0,0.0,0.0,0.0,0.0,0.0,0.0,0.0,0.0,0.0,0.0,0.0,0.0,0.0,0.0,-6.0129,-6.0256,-6.0342,-6.037,-6.0408,-6.0408,-6.0408,-6.0408,-6.0637,-6.1287,-6.1516,-6.2194,-6.3638,-6.4232,-6.4894,-6.5698,-6.6048,-6.6299,-6.6358,-6.6299,-6.6267,-6.6267,-6.6109,-6.6046,-6.6046,-6.5958,0.0,-6.5933,-6.5933,-6.6067,-6.6314,-6.6314,-6.6451,-6.6681,-6.6681,-6.6681,-6.6674,-6.6595,-6.6615,-6.6681,-6.6681,-6.6681,-6.6681,-6.6681,-6.6727,-6.6778,-6.6778,-6.6784,-6.6795,-6.6795,-6.6795,0.0,-6.6859,-6.6901,-6.6906,-6.6913,-6.6914,-6.6914,-6.6914,-6.6914,-6.6914,-6.6914,-6.6914,-6.6914,-6.6914,-6.6911,-6.6904,-6.6862,-6.6856,-6.6805,-6.68,-6.6795,-6.6795,-6.6795,-6.6795,-6.6778,-6.6633,-6.6501,-6.6344,-6.6203,-6.6063,-6.5967,-6.5967,-6.5958,-6.5933,-6.5933,-6.5933,-6.5933,-6.5933,-6.5933,-6.5958,-6.5967,-6.5958,-6.5933,-6.5933,-6.5923,-6.5897,0.0,0.0,0.0,0.0,0.0,0.0,0.0,0.0,0.0,0.0,0.0,-5.9685,-5.9982,0.0,-6.0129,-6.0256,-6.0313,-6.0408,-6.0408,-6.0408,-6.0408,-6.0408,-6.0752,-6.1172,-6.1554,-6.2395,-6.3294,-6.4249,-6.4795,-6.5341,-6.5947,-6.6109,-6.6217,-6.6244,-6.6217,-6.6221,-6.6221,-6.6046,-6.6013,-6.6013,-6.5933,-6.5933,-6.6013,-6.6067,-6.6239,-6.6465,-6.6535,-6.665,-6.6795,-6.6795,-6.6795,-6.6795,-6.672,-6.6727,-6.6795,-6.6795,-6.6795,-6.6795,-6.6795,-6.6795,-6.6795,-6.6795,-6.6795,-6.6795,-6.6795,-6.6795,-6.68,-6.6856,-6.6862,-6.6906,-6.6912,-6.6914,-6.6914,-6.6914,-6.6914,-6.6914,-6.6914,-6.6914,-6.6914,-6.6914,-6.6913,-6.691,-6.6908,-6.6867,-6.6859,-6.68,-6.6795,-6.6795,-6.6795,-6.6795,-6.6784,-6.6713,-6.6535,-6.6439,-6.6353,-6.6185,-6.6067,-6.5974,-6.6013,-6.5967,-6.5897,-6.5897,-6.5897,-6.5897,-6.5897,-6.5897,-6.5897,-6.5897,-6.5897,-6.5897,-6.5897,-6.5923,0.0,0.0,0.0,0.0,0.0,0.0,0.0,-5.914,-5.9327,-5.951,-5.9581,-5.9647,-5.9912,-6.0038,-6.0129,-6.0285,-6.038,-6.0408,-6.0408,-6.0408,-6.0446,-6.0599,-6.1211,-6.1669,-6.186,-6.3274,-6.4317,-6.4561,-6.5241,-6.5718,-6.5903,-6.6007,-6.6069,-6.6108,-6.6069,-6.6024,-6.6046,-6.5958,-6.5897,-6.5897,-6.5897,-6.5982,-6.6046,-6.6185,-6.6329,-6.6563,-6.6727,-6.6795,-6.6795,-6.6795,-6.6795,-6.6795,-6.6795,-6.6795,-6.6795,-6.6795,-6.6795,-6.6795,-6.6795,-6.6795,-6.6795,-6.6795,-6.6795,-6.6795,-6.6795,-6.6795,-6.68,-6.6809,-6.6859,-6.6904,-6.691,-6.6913,-6.6914,-6.6914,-6.6914,-6.6914,-6.6914,-6.6914,-6.6914,-6.6914,-6.6914,-6.6913,-6.6911,-6.691,-6.6867,-6.6805,-6.68,-6.68,-6.6795,-6.6795,-6.6795,-6.6795,-6.6689,-6.6585,-6.6563,-6.6386,-6.6234,-6.6128,-6.6108,-6.6041,-6.5923,-6.5923,-6.5923,-6.5923,-6.5923,-6.5947,-6.5947,-6.5947,-6.5947,-6.5947,-6.5909,-6.5972,-5.6555,-5.73,-5.779,-5.7676,-5.7903,-5.8053,0.0,-5.8577,-5.929,-5.9327,-5.951,-5.9581,-5.94,-5.9782,-6.0068,-5.9982,-6.0197,-6.0408,-6.0408,-6.0408,-6.0676,-6.1363,-6.1554,-6.1898,-6.2701,-6.3618,-6.4526,-6.5214,-6.5367,-6.5465,-6.5542,-6.5569,-6.5663,-6.5833,-6.5833,-6.5833,-6.5909,-6.5923,-6.5897,-6.5897,-6.5897,-6.5923,-6.5909,-6.5933,-6.6088,-6.6358,-6.6658,-6.6795,-6.6795,-6.6795,-6.6795,-6.6795,-6.6795,-6.6795,-6.6795,-6.6795,-6.6795,-6.6795,-6.6795,-6.6795,-6.6795,-6.6795,-6.6795,-6.6795,-6.6795,-6.6795,-6.68,-6.6809,-6.6859,-6.6904,-6.691,-6.6913,-6.6914,-6.6914,-6.6914,-6.6914,-6.6914,-6.6914,-6.6914,-6.6914,-6.6913,-6.6911,-6.6911,-6.6908,-6.6862,-6.6813,-6.6809,-6.6809,-6.6795,-6.6795,-6.6795,-6.6795,-6.6689,-6.6513,-6.6344,-6.6314,-6.6234,-6.6128,-6.6108,-6.6041,-6.5923,-6.5947,-6.5996,-6.5996,-6.6005,-6.599,-6.599,-6.599,-6.599,-6.599,-6.6036,-6.6029,-5.5385,-5.6093,-5.6739,-5.7117,-5.7303,-5.7602,-5.8428,-5.8953,-5.929,-5.929,-5.9364,-5.9472,-5.9613,-5.9715,-5.988,-6.0137,-6.0226,-6.0285,-6.037,-6.0408,-6.0676,-6.1516,-6.2051,-6.2701,-6.3579,-6.442,-6.5031,-6.5375,-6.5413,-6.5405,-6.5494,-6.5523,-6.5646,-6.5793,-6.5846,-6.5872,-6.5897,-6.5897,-6.5897,-6.5897,-6.5897,-6.5897,-6.5923,-6.6046,-6.6283,-6.6585,-6.6733,-6.6795,-6.6795,-6.6795,-6.6795,-6.6795,-6.6795,-6.6795,-6.6795,-6.6795,-6.6795,-6.6795,-6.6795,-6.6795,-6.6795,-6.6795,-6.6795,-6.6795,-6.6795,-6.6795,-6.6795,-6.68,-6.6809,-6.6859,-6.6906,-6.6911,-6.6913,-6.6914,-6.6914,-6.6914,-6.6914,-6.6914,-6.6914,-6.6914,-6.6914,-6.6913,-6.6913,-6.6912,-6.6872,-6.6867,-6.6862,-6.6859,-6.6856,-6.6856,-6.6805,-6.6694,-6.6739,-6.6674,-6.6507,-6.6594,-6.6585,-6.6387,-6.6329,-6.6239,-6.6088,-6.6036,-6.6005,-6.6005,-6.599,-6.6013,-6.6013,-6.6013,-6.6013,-6.6013,-6.6036,-6.6013,-5.4934,-5.5344,-5.5803,-5.6962,-5.7075,-5.73,-5.8915,-5.929,-5.929,-5.929,-5.9327,-5.9436,-5.9719,-5.9753,-5.9847,-6.0197,-6.0226,-6.0256,-6.0408,-6.0408,-6.079,-6.1822,-6.251,-6.335,-6.442,-6.507,-6.5413,-6.5413,-6.5413,-6.5405,-6.5465,-6.5523,-6.5646,-6.5767,-6.582,-6.5872,-6.5897,-6.5897,-6.5897,-6.5897,-6.5897,-6.5897,-6.5923,-6.6129,-6.64,-6.6658,-6.672,-6.6778,-6.6795,-6.6795,-6.6795,-6.6795,-6.6795,-6.6795,-6.6795,-6.6795,-6.6795,-6.6795,-6.6795,-6.6795,-6.6795,-6.6795,-6.6795,-6.6795,-6.6795,-6.6795,-6.6795,-6.6795,-6.6805,-6.6813,-6.6862,-6.6908,-6.6912,-6.6914,-6.6914,-6.6914,-6.6914,-6.6914,-6.6914,-6.6914,-6.6914,-6.6914,-6.6914,-6.6914,-6.6914,-6.6912,-6.691,-6.6906,-6.6904,-6.6904,-6.6856,-6.67,-6.6809,-6.6856,-6.67,-6.6809,-6.6809,-6.6596,-6.6535,-6.6397,-6.62,-6.6067,-6.6036,-6.6036,-6.6058,-6.6058,-6.6058,-6.6058,-6.6058,-6.6058,-6.6058,-6.6058,-5.6257,-5.5958,-5.5771,-5.7602,-5.7488,-5.73,-5.8915,-5.929,-5.929,-5.929,-5.9474,-5.9545,-5.9327,-5.9748,-6.0038,-5.9918,-6.0167,-6.037,-6.0408,-6.0408,-6.1019,-6.2662,-6.2892,-6.3541,-6.5184,-6.5375,-6.5413,-6.5413,-6.5413,-6.5413,-6.5413,-6.5465,-6.5523,-6.5608,-6.5728,-6.582,-6.5897,-6.5897,-6.5897,-6.5897,-6.5897,-6.5897,-6.5897,-6.6041,-6.6185,-6.6329,-6.6513,-6.6689,-6.6795,-6.6795,-6.6795,-6.6795,-6.6795,-6.6795,-6.6795,-6.6795,-6.6795,-6.6795,-6.6795,-6.6795,-6.6795,-6.6795,-6.6795,-6.6795,-6.6795,-6.6795,-6.6795,-6.6795,-6.6805,-6.6813,-6.6862,-6.6908,-6.6912,-6.6914,-6.6914,-6.6914,-6.6914,-6.6914,-6.6914,-6.6914,-6.6914,-6.6914,-6.6914,-6.6914,-6.6914,-6.6914,-6.6914,-6.6913,-6.6904,-6.6904,-6.6904,-6.6901,-6.6904,-6.6904,-6.6901,-6.6904,-6.6809,-6.6596,-6.6535,-6.6397,-6.62,-6.6108,-6.6102,-6.6102,-6.6144,-6.6185,-6.6185,-6.6185,-6.6185,-6.6185,-6.6185,-6.6185,-5.4837,-5.487,-5.4978,-5.6138,-5.6662,-5.7187,-5.8276,-5.8915,-5.929,-5.929,-5.9436,-5.9581,-5.9545,-5.9647,-5.9815,-5.9975,-6.0045,-6.0137,-6.038,-6.0408,-6.1019,-6.2701,-6.2892,-6.3579,-6.5222,-6.5413,-6.5413,-6.5413,-6.5413,-6.5444,-6.5465,-6.5494,-6.5523,-6.5608,-6.5701,-6.5793,-6.582,-6.5872,-6.5897,-6.5897,-6.5897,-6.5958,-6.6041,-6.6067,-6.6256,-6.6501,-6.6574,-6.6689,-6.6795,-6.6795,-6.6795,-6.6795,-6.6795,-6.6795,-6.6795,-6.6795,-6.6795,-6.6795,-6.6795,-6.6795,-6.6795,-6.6795,-6.6795,-6.6795,-6.6795,-6.6795,-6.6795,-6.6795,-6.68,-6.6805,-6.6862,-6.6904,-6.6908,-6.6914,-6.6914,-6.6914,-6.6914,-6.6914,-6.6914,-6.6914,-6.6914,-6.6914,-6.6914,-6.6914,-6.6914,-6.6914,-6.6914,-6.6914,-6.6912,-6.6912,-6.6912,-6.6912,-6.6912,-6.6912,-6.6912,-6.6912,-6.6872,-6.6787,-6.6658,-6.6552,-6.6465,-6.626,-6.6165,-6.6165,-6.6185,-6.6185,-6.6185,-6.6185,-6.6185,-6.6185,-6.6185,-6.6185,-5.372,-5.3833,-5.4205,-5.5172,-5.6106,-5.6966,-5.7902,-5.8727,-5.929,-5.929,-5.94,-5.9508,-5.9581,-5.9616,-5.9681,-6.0038,-6.0045,-6.0076,-6.0342,-6.0637,-6.1325,-6.2739,-6.3159,-6.3885,-6.5261,-6.5413,-6.5413,-6.5413,-6.5413,-6.5444,-6.5465,-6.5494,-6.5523,-6.5552,-6.5674,-6.5767,-6.5793,-6.5846,-6.5872,-6.5897,-6.5872,-6.5933,-6.6019,-6.6019,-6.6187,-6.6411,-6.6411,-6.6524,-6.672,-6.672,-6.6778,-6.6795,-6.6795,-6.6795,-6.6795,-6.6795,-6.6795,-6.6795,-6.6795,-6.6795,-6.6795,-6.6795,-6.6795,-6.6795,-6.6795,-6.6795,-6.6795,-6.6795,-6.6795,-6.68,-6.6856,-6.6862,-6.6906,-6.6912,-6.6914,-6.6914,-6.6914,-6.6914,-6.6914,-6.6914,-6.6914,-6.6914,-6.6914,-6.6914,-6.6914,-6.6914,-6.6914,-6.6914,-6.6914,-6.6914,-6.6914,-6.6914,-6.6914,-6.6914,-6.6914,-6.6914,-6.6914,-6.6914,-6.6712,-6.665,-6.665,-6.6407,-6.6263,-6.6263,-6.6225,-6.6185,-6.6185,-6.6185,-6.6185,-6.6185,-6.6185,-6.6185,-5.3072,-5.3078,-5.3429,-5.476,-5.577,-5.6667,-5.7753,-5.8653,-5.9253,-5.9253,-5.929,-5.9364,-5.9581,-5.9616,-5.9753,-6.0038,-6.0068,-6.0159,-6.0342,-6.1096,-6.1936,-6.2815,-6.3656,-6.4496,-6.5337,-6.5413,-6.5413,-6.5413,-6.5413,-6.5413,-6.5413,-6.5465,-6.5494,-6.5494,-6.5552,-6.5674,-6.5793,-6.5793,-6.582,-6.5897,-6.582,-6.582,-6.5897,-6.5897,-6.5967,-6.6108,-6.6108,-6.629,-6.6595,-6.6595,-6.6689,-6.6795,-6.6795,-6.6795,-6.6795,-6.6795,-6.6795,-6.6795,-6.6795,-6.6795,-6.6795,-6.6795,-6.6795,-6.6795,-6.6795,-6.6795,-6.6795,-6.6795,-6.6795,-6.68,-6.6809,-6.6859,-6.6904,-6.691,-6.6913,-6.6914,-6.6914,-6.6914,-6.6914,-6.6914,-6.6914,-6.6914,-6.6914,-6.6914,-6.6914,-6.6914,-6.6914,-6.6914,-6.6914,-6.6914,-6.6914,-6.6914,-6.6914,-6.6914,-6.6914,-6.6914,-6.6914,-6.6914,-6.6781,-6.6717,-6.6717,-6.6513,-6.6407,-6.6407,-6.6263,-6.6205,-6.6205,-6.6185,-6.6185,-6.6185,-6.6185,-6.6185,-5.3023,-5.324,-5.3521,-5.3785,-5.5013,-5.6166,-5.6388,-5.7742,-5.8908,-5.8908,-5.9364,-5.9685,-5.94,-5.965,-5.9853,-5.995,-5.995,-6.0076,-6.0342,-6.1096,-6.1936,-6.2815,-6.3656,-6.4496,-6.5337,-6.5413,-6.5413,-6.5413,-6.5413,-6.5413,-6.5413,-6.5444,-6.5444,-6.5444,-6.5494,-6.5523,-6.559,-6.574,-6.5767,-6.5701,-6.5767,-6.5767,-6.5701,-6.5701,-6.5807,-6.6046,-6.6046,-6.6256,-6.6595,-6.6595,-6.6689,-6.6795,-6.6795,-6.6795,-6.6795,-6.6795,-6.6795,-6.6795,-6.6795,-6.6795,-6.6795,-6.6795,-6.6795,-6.6795,-6.6795,-6.6795,-6.6795,-6.6795,-6.6795,-6.68,-6.6809,-6.6813,-6.6859,-6.6871,-6.6911,-6.6912,-6.6914,-6.6914,-6.6914,-6.6914,-6.6914,-6.6914,-6.6914,-6.6914,-6.6914,-6.6914,-6.6914,-6.6914,-6.6914,-6.6914,-6.6914,-6.6914,-6.6914,-6.6914,-6.6914,-6.6914,-6.6914,-6.6914,-6.6781,-6.6717,-6.6717,-6.6585,-6.6552,-6.6552,-6.6407,-6.6367,-6.6367,-6.6264,-6.6185,-6.6185,-6.6185,-6.6185,-5.2761,-5.2937,-5.3115,-5.3198,-5.4496,-5.5797,-5.5881,-5.7307,-5.8582,-5.8582,-5.9025,-5.94,-5.9253,-5.9436,-5.9719,-5.9853,-5.9885,-5.9982,-6.0226,-6.1373,-6.2357,-6.2853,-6.3962,-6.4879,-6.5375,-6.5413,-6.5413,-6.5413,-6.5413,-6.5413,-6.5413,-6.5413,-6.5413,-6.5413,-6.5435,-6.5465,-6.5494,-6.5618,-6.5646,-6.5608,-6.5646,-6.5646,-6.5608,-6.5608,-6.5678,-6.5818,-6.5818,-6.6007,-6.6299,-6.6383,-6.6489,-6.6633,-6.6759,-6.6713,-6.6642,-6.6759,-6.672,-6.6666,-6.6766,-6.6784,-6.6795,-6.6795,-6.6795,-6.6795,-6.6795,-6.6795,-6.6795,-6.6795,-6.6795,-6.68,-6.6805,-6.6809,-6.6813,-6.6865,-6.6869,-6.6911,-6.6913,-6.6914,-6.6914,-6.6914,-6.6914,-6.6914,-6.6914,-6.6914,-6.6914,-6.6914,-6.6914,-6.6914,-6.6914,-6.6914,-6.6914,-6.6914,-6.6914,-6.6914,-6.6914,-6.6914,-6.6914,-6.6914,-6.683,-6.6784,-6.6784,-6.67,-6.6658,-6.6658,-6.6552,-6.6464,-6.6392,-6.6334,-6.6283,-6.6185,-6.6185,-6.6185,-5.248,-5.248,-5.2572,-5.285,-5.407,-5.5257,-5.5711,-5.6977,-5.8083,-5.8194,-5.8498,-5.8828,-5.8986,-5.9178,-5.94,-5.9753,-5.982,-5.9918,-6.0068,-6.159,-6.2748,-6.2892,-6.4305,-6.5261,-6.5375,-6.5413,-6.5413,-6.5413,-6.5413,-6.5413,-6.5413,-6.5413,-6.5413,-6.5413,-6.5413,-6.5405,-6.5494,-6.5494,-6.5523,-6.558,-6.5523,-6.5523,-6.558,-6.558,-6.558,-6.558,-6.558,-6.5731,-6.592,-6.6108,-6.6239,-6.6373,-6.6624,-6.6563,-6.6411,-6.6624,-6.6595,-6.6513,-6.6702,-6.6759,-6.679,-6.6795,-6.6795,-6.6795,-6.6795,-6.6795,-6.6795,-6.6795,-6.6795,-6.6795,-6.6795,-6.6805,-6.6809,-6.6813,-6.6865,-6.691,-6.6911,-6.6913,-6.6914,-6.6914,-6.6914,-6.6914,-6.6914,-6.6914,-6.6914,-6.6914,-6.6914,-6.6914,-6.6914,-6.6914,-6.6914,-6.6914,-6.6914,-6.6914,-6.6914,-6.6914,-6.6914,-6.6914,-6.6914,-6.6914,-6.6914,-6.6784,-6.6727,-6.6727,-6.6658,-6.6563,-6.645,-6.6407,-6.6351,-6.6225,-6.6205,-6.6185,-5.248,-5.2536,-5.2581,-5.2572,-5.3354,-5.4236,-5.4916,-5.6035,-5.7061,-5.7757,-5.8282,-5.8586,-5.8455,-5.8828,-5.914,-5.9215,-5.9472,-5.9786,-6.0038,-6.1005,-6.1942,-6.2786,-6.377,-6.4649,-6.5337,-6.5413,-6.5413,-6.5413,-6.5413,-6.5413,-6.5413,-6.5413,-6.5413,-6.5413,-6.5413,-6.5413,-6.5444,-6.5465,-6.5465,-6.5444,-6.5465,-6.5465,-6.5405,-6.5405,-6.5465,-6.5523,-6.5523,-6.564,-6.5897,-6.5942,-6.6051,-6.614,-6.619,-6.6173,-6.614,-6.619,-6.629,-6.6439,-6.6452,-6.6624,-6.6798,-6.679,-6.6795,-6.6795,-6.6795,-6.6795,-6.6795,-6.6795,-6.6795,-6.6795,-6.6795,-6.68,-6.68,-6.6809,-6.6859,-6.6906,-6.691,-6.6913,-6.6914,-6.6914,-6.6914,-6.6914,-6.6914,-6.6914,-6.6914,-6.6914,-6.6914,-6.6914,-6.6914,-6.6914,-6.6914,-6.6914,-6.6914,-6.6914,-6.6914,-6.6914,-6.6914,-6.6914,-6.6914,-6.6914,-6.6914,-6.6874,-6.6873,-6.6873,-6.677,-6.6655,-6.6649,-6.6477,-6.6377,-6.6345,-6.6264,-6.6185,-5.248,-5.2526,-5.2536,-5.248,-5.3142,-5.3987,-5.4725,-5.5595,-5.6503,-5.734,-5.7831,-5.815,-5.8051,-5.8369,-5.8747,-5.8908,-5.914,-5.9508,-5.9912,-6.0829,-6.1759,-6.2786,-6.3656,-6.4496,-6.5337,-6.5413,-6.5413,-6.5413,-6.5413,-6.5413,-6.5413,-6.5413,-6.5413,-6.5413,-6.5413,-6.5413,-6.5413,-6.5405,-6.5405,-6.5413,-6.5405,-6.5405,-6.5413,-6.5413,-6.5444,-6.5435,-6.5435,-6.5513,-6.564,-6.5743,-6.5827,-6.5903,-6.6012,-6.5992,-6.5903,-6.6012,-6.607,-6.6109,-6.6183,-6.6373,-6.6654,-6.6642,-6.6727,-6.6795,-6.6795,-6.6795,-6.6795,-6.6795,-6.6795,-6.6795,-6.6795,-6.6795,-6.68,-6.6805,-6.6856,-6.6906,-6.691,-6.6913,-6.6914,-6.6914,-6.6914,-6.6914,-6.6914,-6.6914,-6.6914,-6.6914,-6.6914,-6.6914,-6.6914,-6.6914,-6.6914,-6.6914,-6.6914,-6.6914,-6.6914,-6.6914,-6.6914,-6.6914,-6.6914,-6.6914,-6.6914,-6.6914,-6.6914,-6.6914,-6.6832,-6.6781,-6.6717,-6.6556,-6.6464,-6.6392,-6.6244,-6.6185,-5.248,-5.248,-5.248,-5.248,-5.2987,-5.3711,-5.4689,-5.5341,-5.6029,-5.7007,-5.7437,-5.7679,-5.7679,-5.796,-5.8275,-5.854,-5.8828,-5.9215,-5.9715,-6.0513,-6.1538,-6.2748,-6.3503,-6.4305,-6.5299,-6.5413,-6.5413,-6.5413,-6.5413,-6.5413,-6.5413,-6.5413,-6.5413,-6.5413,-6.5413,-6.5413,-6.5413,-6.5413,-6.5413,-6.5413,-6.5413,-6.5413,-6.5413,-6.5413,-6.5413,-6.5413,-6.5413,-6.5413,-6.5413,-6.558,-6.5635,-6.5624,-6.5827,-6.5779,-6.5651,-6.5789,-6.5812,-6.5779,-6.5881,-6.6126,-6.64,-6.64,-6.6576,-6.6795,-6.6795,-6.6795,-6.6795,-6.6795,-6.6795,-6.6795,-6.6795,-6.6795,-6.6795,-6.6839,-6.6852,-6.6906,-6.691,-6.6913,-6.6914,-6.6914,-6.6914,-6.6914,-6.6914,-6.6914,-6.6914,-6.6914,-6.6914,-6.6914,-6.6914,-6.6914,-6.6914,-6.6914,-6.6914,-6.6914,-6.6914,-6.6914,-6.6914,-6.6914,-6.6914,-6.6914,-6.6914,-6.6914,-6.6914,-6.6914,-6.6914,-6.6833,-6.6735,-6.6674,-6.6585,-6.6452,-6.6329,-6.6281,-5.248,-5.248,-5.248,-5.248,-5.2552,-5.3023,-5.4544,-5.4943,-5.5414,-5.6899,-5.7239,-5.7239,-5.7239,-5.7583,-5.7857,-5.7867,-5.8412,-5.8949,-5.9287,-5.9753,-6.0767,-6.2671,-6.2968,-6.3656,-6.5261,-6.5413,-6.5413,-6.5413,-6.5413,-6.5413,-6.5413,-6.5413,-6.5413,-6.5413,-6.5413,-6.5413,-6.5413,-6.5413,-6.5413,-6.5413,-6.5413,-6.5413,-6.5413,-6.5413,-6.5413,-6.5413,-6.5413,-6.5413,-6.5413,-6.5444,-6.5444,-6.5405,-6.5435,-6.5435,-6.5405,-6.5435,-6.5542,-6.5705,-6.5705,-6.5874,-6.6032,-6.6032,-6.6374,-6.6795,-6.6795,-6.6795,-6.6795,-6.6795,-6.6795,-6.6795,-6.6795,-6.6795,-6.6839,-6.6887,-6.6898,-6.6906,-6.691,-6.6913,-6.6914,-6.6914,-6.6914,-6.6914,-6.6914,-6.6914,-6.6914,-6.6914,-6.6914,-6.6914,-6.6914,-6.6914,-6.6914,-6.6914,-6.6914,-6.6914,-6.6914,-6.6914,-6.6914,-6.6914,-6.6914,-6.6914,-6.6914,-6.6914,-6.6914,-6.6914,-6.6914,-6.6875,-6.6875,-6.6735,-6.6667,-6.6661,-6.6615,-6.6563,-5.248,-5.248,-5.248,-5.248,-5.248,-5.2915,-5.4544,-5.4907,-5.5341,-5.6862,-5.7188,-5.7188,-5.7188,-5.7338,-5.7486,-5.7763,-5.8006,-5.8369,-5.8793,-5.9628,-6.071,-6.2222,-6.3067,-6.3993,-6.5299,-6.5413,-6.5413,-6.5413,-6.5413,-6.5413,-6.5413,-6.5413,-6.5413,-6.5413,-6.5413,-6.5413,-6.5413,-6.5413,-6.5413,-6.5413,-6.5413,-6.5413,-6.5413,-6.5413,-6.5413,-6.5413,-6.5413,-6.5413,-6.5413,-6.5413,-6.5413,-6.5413,-6.5413,-6.5413,-6.5413,-6.5413,-6.5435,-6.5523,-6.5523,-6.5692,-6.5881,-6.5881,-6.6126,-6.6412,-6.6576,-6.672,-6.6795,-6.6795,-6.6795,-6.6795,-6.6795,-6.6795,-6.6795,-6.6839,-6.6856,-6.6826,-6.6828,-6.6873,-6.6914,-6.6914,-6.6914,-6.6914,-6.6914,-6.6914,-6.6914,-6.6914,-6.6914,-6.6914,-6.6914,-6.6914,-6.6914,-6.6914,-6.6914,-6.6914,-6.6914,-6.6914,-6.6914,-6.6914,-6.6914,-6.6914,-6.6914,-6.6914,-6.6914,-6.6914,-6.6914,-6.6914,-6.6914,-6.6777,-6.6717,-6.6717,-6.6642,-6.6595,-5.248,-5.248,-5.248,-5.248,-5.248,-5.2915,-5.4544,-5.4907,-5.5341,-5.6862,-5.7188,-5.7188,-5.7188,-5.7188,-5.7289,-5.7583,-5.7726,-5.796,-5.8375,-5.9194,-6.0301,-6.1768,-6.2804,-6.384,-6.5105,-6.5314,-6.5413,-6.5413,-6.5413,-6.5413,-6.5413,-6.5413,-6.5413,-6.5413,-6.5413,-6.5413,-6.5413,-6.5413,-6.5413,-6.5413,-6.5413,-6.5413,-6.5413,-6.5413,-6.5413,-6.5413,-6.5413,-6.5413,-6.5413,-6.5413,-6.5413,-6.5413,-6.5413,-6.5413,-6.5413,-6.5413,-6.5413,-6.5413,-6.5413,-6.5513,-6.5692,-6.5692,-6.5836,-6.6032,-6.6244,-6.6485,-6.6727,-6.679,-6.6795,-6.6795,-6.6795,-6.6795,-6.6795,-6.6795,-6.6809,-6.6823,-6.6826,-6.6871,-6.6914,-6.6914,-6.6914,-6.6914,-6.6914,-6.6914,-6.6914,-6.6914,-6.6914,-6.6914,-6.6914,-6.6914,-6.6914,-6.6914,-6.6914,-6.6914,-6.6914,-6.6914,-6.6914,-6.6914,-6.6914,-6.6914,-6.6914,-6.6914,-6.6914,-6.6914,-6.6914,-6.6914,-6.6914,-6.6828,-6.6777,-6.6777,-6.67,-6.6674,-5.248,-5.248,-5.248,-5.248,-5.248,-5.2915,-5.4544,-5.4907,-5.5341,-5.6862,-5.7188,-5.7188,-5.7188,-5.7188,-5.7188,-5.7188,-5.7534,-5.7867,-5.7986,-5.8375,-5.9305,-6.1272,-6.1844,-6.2811,-6.4623,-6.5188,-6.5413,-6.5413,-6.5413,-6.5413,-6.5413,-6.5413,-6.5413,-6.5413,-6.5413,-6.5413,-6.5413,-6.5413,-6.5413,-6.5413,-6.5413,-6.5413,-6.5413,-6.5413,-6.5413,-6.5413,-6.5413,-6.5413,-6.5413,-6.5413,-6.5413,-6.5413,-6.5413,-6.5413,-6.5413,-6.5413,-6.5413,-6.5413,-6.5413,-6.5413,-6.5375,-6.5375,-6.5597,-6.5827,-6.5897,-6.62,-6.6546,-6.6733,-6.6795,-6.6795,-6.6795,-6.6795,-6.6795,-6.6795,-6.6805,-6.6813,-6.6862,-6.6908,-6.6912,-6.6914,-6.6914,-6.6914,-6.6914,-6.6914,-6.6914,-6.6914,-6.6914,-6.6914,-6.6914,-6.6914,-6.6914,-6.6914,-6.6913,-6.6912,-6.6914,-6.6914,-6.6914,-6.6914,-6.6914,-6.6914,-6.6914,-6.6914,-6.6914,-6.6914,-6.6914,-6.6914,-6.6914,-6.6914,-6.6914,-6.6914,-6.6914,-6.6914,-5.2387,-5.248,-5.248,-5.248,-5.248,-5.277,-5.3856,-5.4508,-5.5196,-5.6174,-5.6826,-5.7188,-5.7188,-5.7188,-5.7188,-5.7188,-5.7289,-5.7388,-5.7449,-5.826,-5.9145,-5.99,-6.1453,-6.2747,-6.3313,-6.4068,-6.452,-6.452,-6.452,-6.452,-6.452,-6.452,-6.4772,-6.5413,-6.5413,-6.5413,-6.5413,-6.5413,-6.5413,-6.5413,-6.5413,-6.5413,-6.5413,-6.5413,-6.5413,-6.5413,-6.5413,-6.5413,-6.5413,-6.5413,-6.5413,-6.5413,-6.5413,-6.5413,-6.5413,-6.5413,-6.5413,-6.5413,-6.5413,-6.5413,-6.5413,-6.5413,-6.5465,-6.5569,-6.5755,-6.6032,-6.6334,-6.6527,-6.6681,-6.6795,-6.6795,-6.6795,-6.6795,-6.6795,-6.6805,-6.6813,-6.6817,-6.6867,-6.6911,-6.691,-6.6911,-6.6912,-6.6912,-6.6912,-6.6913,-6.6914,-6.6913,-6.6912,-6.6912,-6.6911,-6.6908,-6.6908,-6.6908,-6.6908,-6.6912,-6.691,-6.6908,-6.6908,-6.6908,-6.691,-6.6912,-6.6912,-6.6913,-6.6914,-6.6914,-6.6914,-6.6914,-6.6914,-6.6914,-6.6914,-6.6914,-6.6914,-5.1651,-5.1982,-5.2162,-5.2162,-5.234,-5.2697,-5.353,-5.4327,-5.5124,-5.5848,-5.6645,-5.7188,-5.7188,-5.7188,-5.7188,-5.7188,-5.7188,-5.7188,-5.7188,-5.7873,-5.8567,-5.921,-6.1143,-6.2491,-6.2698,-6.3528,-6.4056,-6.4096,-6.4096,-6.4096,-6.4096,-6.4096,-6.4332,-6.4879,-6.4913,-6.4981,-6.515,-6.515,-6.5252,-6.5413,-6.5413,-6.5413,-6.5413,-6.5413,-6.5413,-6.5413,-6.5413,-6.5413,0.0,-6.5413,-6.5413,-6.5413,-6.5413,-6.5413,-6.5413,-6.5413,-6.5413,-6.5413,-6.5413,-6.5413,-6.5413,-6.5413,-6.5444,-6.5465,-6.5666,-6.5968,-6.6322,-6.6452,-6.6624,-6.6798,-6.6791,-6.6798,-6.6805,-6.679,-6.68,-6.6809,-6.6809,-6.6859,-6.6906,-6.6904,-6.6906,-6.691,-6.6911,-6.691,-6.691,-6.6913,-6.6911,-6.6908,-6.6908,-6.6906,-6.6904,-6.6904,-6.6862,-6.6862,-6.6867,-6.6904,-6.6904,-6.6904,-6.6904,-6.6906,-6.6908,-6.6908,-6.691,-6.6912,-6.6913,-6.6913,-6.6913,-6.6914,-6.6914,-6.6914,-6.6914,-6.6914,0.0,-5.1052,-5.1551,-5.1551,-5.1933,-5.2568,-5.3327,-5.4158,0.0,-5.5726,-5.6559,-5.7138,-5.7188,-5.7188,-5.7188,-5.7188,-5.7188,-5.7188,-5.7188,-5.7188,-5.7692,-5.897,-6.0628,-6.1863,-6.2421,-6.3252,-6.3817,-6.3975,-6.3975,-6.3975,-6.4016,-6.4016,-6.4016,-6.4016,-6.4016,-6.4253,-6.4739,-6.4739,-6.4951,-6.5314,-6.5314,-6.5314,-6.5314,-6.5345,-6.5345,-6.5345,-6.5413,-6.5413,-6.5413,-6.5413,-6.5413,-6.5413,-6.5413,-6.5413,-6.5413,-6.5413,-6.5413,-6.5413,-6.5413,-6.5413,-6.5413,-6.5413,-6.5435,-6.5494,-6.558,-6.5974,-6.6367,-6.6439,-6.661,-6.6772,-6.6747,-6.6741,-6.6761,-6.6766,-6.6784,-6.6795,-6.6766,-6.6848,-6.6891,-6.6901,-6.6901,-6.6904,-6.6871,-6.6906,-6.6904,-6.691,-6.6906,-6.6901,-6.6901,-6.6901,-6.6901,-6.6901,-6.6856,-6.6809,-6.6809,-6.6859,-6.6901,-6.6901,-6.6901,-6.6901,-6.6901,-6.6901,-6.6904,-6.6904,-6.6908,-6.6911,-6.6911,-6.6914,-6.6914,-6.6914,-6.6914,-6.6914,-4.9376,0.0,-5.0911,-5.0911,-5.1017,-5.1192,0.0,-5.2502,-5.3637,-5.4327,-5.5561,-5.6635,-5.7138,-5.7188,-5.7188,-5.7188,-5.7188,-5.7188,-5.7188,-5.7188,-5.7311,-5.7655,-5.8664,-5.9651,-6.0433,-6.1337,-6.2169,-6.2892,-6.2929,-6.2977,-6.311,-6.311,-6.311,-6.311,-6.311,-6.3453,-6.4292,-6.4254,-6.4293,-6.4407,-6.4407,-6.4407,-6.4445,-6.4775,-6.4951,-6.4985,-6.5283,-6.5413,-6.5413,-6.5413,-6.5413,-6.5413,-6.5413,-6.5413,-6.5413,-6.5413,-6.5413,-6.5413,-6.5413,-6.5413,-6.5413,-6.5413,-6.5413,-6.5444,-6.5494,-6.5769,-6.6069,-6.6051,-6.6217,-6.6353,-6.6164,-6.6242,-6.6411,-6.6335,-6.6457,-6.6594,-6.6633,-6.6733,-6.6809,-6.6805,-6.6809,-6.6817,-6.6817,-6.6817,-6.6859,-6.6904,-6.6859,-6.6817,-6.6817,-6.6809,-6.6805,-6.6805,-6.68,-6.68,-6.68,-6.6805,-6.6805,-6.6805,-6.6805,-6.6809,-6.6817,-6.6817,-6.6859,-6.6904,-6.6908,-6.6912,-6.6914,-6.6914,-6.6914,-6.6914,-6.6914,-6.6914,-4.9018,-4.9639,-5.0349,-5.0349,-5.0535,-5.0697,-5.0697,-5.1891,-5.3071,-5.3493,-5.4788,-5.609,-5.6688,-5.6829,-5.6881,-5.7138,-5.7188,-5.7188,-5.7188,-5.7188,-5.7188,-5.7188,-5.7964,-5.8718,-5.9205,-6.002,-6.0974,-6.1981,-6.2054,-6.2251,-6.2805,-6.2805,-6.2805,-6.2805,-6.2805,-6.3158,-6.3846,-6.3846,-6.393,-6.4096,-6.4096,-6.4096,-6.4096,-6.4369,-6.4483,-6.4483,-6.4701,-6.4913,-6.5117,-6.5117,-6.5252,-6.5413,-6.5413,-6.5413,-6.5413,-6.5413,-6.5413,-6.5413,-6.5413,-6.5413,-6.5413,-6.5413,-6.5413,-6.5405,-6.5427,-6.5613,-6.5818,-6.589,-6.5986,-6.607,-6.5932,-6.6066,-6.6256,-6.6221,-6.6295,-6.6426,-6.6426,-6.6576,-6.672,-6.6713,-6.6745,-6.6805,-6.6809,-6.6809,-6.6809,-6.6859,-6.6813,-6.6805,-6.6805,-6.68,-6.6795,-6.6795,-6.6795,-6.6795,-6.6795,-6.6795,-6.6795,-6.6795,-6.6795,-6.68,-6.6805,-6.6805,-6.6809,-6.6859,-6.6862,-6.6869,-6.6913,-6.6913,-6.6914,-6.6914,-6.6914,-6.6914,-4.9018,-4.9376,-4.9756,-4.9756,-5.0124,-5.0425,-5.0425,-5.1612,-5.2729,-5.2844,-5.4163,-5.5426,-5.6035,-5.6146,-5.6366,-5.6984,-5.7138,-5.7188,-5.7188,-5.7188,-5.7188,-5.7188,-5.7804,-5.8326,-5.8537,-5.9205,-6.0034,-6.109,-6.1176,-6.1592,-6.2535,-6.2622,-6.2695,-6.2805,-6.2805,-6.2965,-6.34,-6.34,-6.3543,-6.3892,-6.3892,-6.3892,-6.3892,-6.3975,-6.3975,-6.4016,-6.4056,-6.4331,-6.4704,-6.4704,-6.4879,-6.5182,-6.5283,-6.5314,-6.5314,-6.5383,-6.5413,-6.5413,-6.5413,-6.5413,-6.5413,-6.5413,-6.5413,-6.5375,-6.5388,-6.5485,-6.5646,-6.5805,-6.5884,-6.5909,-6.5887,-6.6007,-6.6147,-6.6161,-6.6212,-6.6267,-6.6267,-6.6439,-6.6574,-6.6585,-6.6697,-6.679,-6.6805,-6.6805,-6.68,-6.6809,-6.68,-6.6795,-6.6795,-6.6795,-6.6795,-6.6795,-6.6795,-6.6795,-6.6795,-6.6795,-6.6795,-6.6795,-6.6795,-6.6795,-6.6795,-6.6795,-6.68,-6.6813,-6.6813,-6.682,-6.691,-6.691,-6.6912,-6.6914,-6.6914,-6.6914,-4.9018,-4.9046,-4.9107,-4.9107,-4.9229,-4.9256,-4.9256,-5.0413,-5.1629,-5.2175,-5.3506,-5.4765,-5.5426,-5.5578,-5.5751,-5.6366,-5.6881,-5.7188,-5.7188,-5.7188,-5.7188,-5.7188,-5.7297,-5.7659,-5.8399,-5.8544,-5.8994,-5.9947,-6.0172,-6.0601,-6.1556,-6.1728,-6.2108,-6.2805,-6.2805,-6.2855,-6.2904,-6.2904,-6.2953,-6.3014,-6.3014,-6.3014,-6.3014,-6.34,-6.3624,-6.3587,-6.3934,-6.4136,-6.4176,-6.4176,-6.4215,-6.4332,-6.4739,-6.4879,-6.4951,-6.5283,-6.5413,-6.5413,-6.5413,-6.5413,-6.5413,-6.5413,-6.5413,-6.5413,-6.5375,-6.5503,-6.56,-6.5646,-6.5755,-6.5897,-6.5909,-6.5933,-6.5933,-6.5943,-6.6063,-6.6109,-6.6109,-6.6234,-6.6386,-6.6574,-6.6605,-6.6681,-6.679,-6.6795,-6.6795,-6.68,-6.6795,-6.6795,-6.6795,-6.6795,-6.6795,-6.6795,-6.6795,-6.6795,-6.6795,-6.6795,-6.6795,-6.6795,-6.6795,-6.6795,-6.6795,-6.6795,-6.68,-6.6813,-6.6813,-6.6817,-6.6904,-6.6904,-6.6908,-6.6912,-6.6912,-6.6913,-4.9018,-4.9018,-4.9086,-4.9492,-4.9593,-4.9695,-5.0101,-5.1014,-5.1857,-5.2209,-5.316,-5.4141,-5.4703,-5.4826,-5.5189,-5.6146,-5.6528,-5.6829,-5.7138,-5.7188,-5.7188,-5.7188,-5.7188,-5.7333,-5.7732,-5.7732,-5.8145,-5.9096,-5.932,-5.9748,-6.0601,-6.0836,-6.1288,-6.2008,-6.2045,-6.2265,-6.2705,-6.2705,-6.2705,-6.2805,-6.2805,-6.2805,-6.2805,-6.3014,-6.311,-6.3158,-6.3308,-6.3543,-6.3761,-6.3761,-6.3892,-6.4096,-6.4331,-6.4557,-6.4845,-6.5252,-6.5413,-6.5413,-6.5413,-6.5413,-6.5413,-6.5413,-6.5413,-6.5413,-6.5413,-6.5474,-6.5561,-6.558,-6.5728,-6.5846,-6.5897,-6.5897,-6.5897,-6.5897,-6.5958,-6.599,-6.599,-6.6108,-6.6239,-6.6322,-6.6465,-6.6605,-6.6689,-6.6733,-6.6795,-6.6795,-6.6795,-6.6795,-6.6795,-6.6795,-6.6795,-6.6795,-6.6795,-6.6795,-6.6795,-6.6795,-6.6795,-6.6795,-6.6795,-6.6795,-6.6795,-6.6795,-6.68,-6.6805,-6.6805,-6.6809,-6.6859,-6.6859,-6.6865,-6.6911,-6.6911,-6.6912,-4.9018,-4.9018,-4.9187,-4.9898,-4.9965,-5.0067,-5.1014,-5.1657,-5.2097,-5.2266,-5.2942,-5.3618,-5.4106,-5.4264,-5.4703,-5.5716,-5.5978,-5.6311,-5.6897,-5.6984,-5.7036,-5.7188,-5.7188,-5.7188,-5.7188,-5.7188,-5.7492,-5.821,-5.8383,-5.881,-5.9611,-5.9932,-6.0347,-6.1017,-6.1236,-6.1638,-6.226,-6.2493,-6.2654,-6.2755,-6.2755,-6.2805,-6.2805,-6.2805,-6.2805,-6.2805,-6.2805,-6.3014,-6.3308,-6.3308,-6.3498,-6.3846,-6.393,-6.4254,-6.481,-6.5264,-6.539,-6.5413,-6.5413,-6.5413,-6.5413,-6.5413,-6.5413,-6.5413,-6.5413,-6.5435,-6.5494,-6.558,-6.5674,-6.5793,-6.5872,-6.5897,-6.5897,-6.5897,-6.5897,-6.5897,-6.5897,-6.599,-6.6046,-6.6088,-6.6306,-6.6528,-6.6585,-6.6697,-6.6739,-6.6795,-6.6795,-6.6795,-6.6795,-6.6795,-6.6795,-6.6795,-6.6795,-6.6795,-6.6795,-6.6795,-6.6795,-6.6795,-6.6795,-6.6795,-6.6795,-6.6795,-6.6795,-6.6795,-6.6795,-6.68,-6.6809,-6.6809,-6.6817,-6.6869,-6.6869,-6.6872,-4.9018,-4.9018,-4.9187,-4.9898,-4.9593,-4.9458,-5.0879,-5.1251,-5.1488,-5.2164,-5.2942,-5.3484,-5.3551,-5.4011,-5.4454,-5.4516,-5.5069,-5.5694,-5.6257,-5.6366,-5.6582,-5.7138,-5.7188,-5.7188,-5.7188,-5.7188,-5.7224,-5.7297,-5.7447,-5.7824,-5.866,-5.8846,-5.926,-6.0113,-6.0828,-6.123,-6.1303,-6.2186,-6.2603,-6.2603,-6.2755,-6.2805,-6.2805,-6.2805,-6.2805,-6.2805,-6.2805,-6.2805,-6.2855,-6.2855,-6.2855,-6.2953,-6.3354,-6.3978,-6.4661,-6.5224,-6.5389,-6.5413,-6.5413,-6.5413,-6.5413,-6.5413,-6.5413,-6.5413,-6.5413,-6.5413,-6.5405,-6.5552,-6.5608,-6.5635,-6.5872,-6.5897,-6.5897,-6.5897,-6.5897,-6.5897,-6.5897,-6.5923,-6.5958,-6.6067,-6.6128,-6.6221,-6.6552,-6.6595,-6.6672,-6.679,-6.6795,-6.6795,-6.6795,-6.6795,-6.6795,-6.6795,-6.6795,-6.6795,-6.6795,-6.6795,-6.6795,-6.6795,-6.6795,-6.6795,-6.6795,-6.6795,-6.6795,-6.6795,-6.6795,-6.6795,-6.6795,-6.6795,-6.6805,-6.6813,-6.6813,-6.6823,-5.018,-5.0342,-5.0345,-5.0646,-5.0173,-4.994,-5.1555,-5.1894,-5.2131,-5.2875,-5.3281,-5.3518,-5.3518,-5.3685,-5.3946,-5.4328,-5.4641,-5.5009,-5.5658,-5.5751,-5.5978,-5.6582,-5.6635,-5.6829,-5.7138,-5.7188,-5.7188,-5.7188,-5.7338,-5.7484,-5.7724,-5.7959,-5.8373,-5.9124,-5.9401,-6.0071,-6.109,-6.1433,-6.1886,-6.2449,-6.2705,-6.2805,-6.2805,-6.2805,-6.2805,-6.2805,-6.2805,-6.2805,-6.2805,-6.2805,-6.2805,-6.2855,-6.3419,-6.3584,-6.3653,-6.4931,-6.5427,-6.5413,-6.5413,-6.5413,-6.5413,-6.5413,-6.5413,-6.5413,-6.5413,-6.5413,-6.5444,-6.5552,-6.5608,-6.5635,-6.5872,-6.5897,-6.5897,-6.5897,-6.5897,-6.5897,-6.5897,-6.5897,-6.5884,-6.5943,-6.6041,-6.6148,-6.6273,-6.6452,-6.6605,-6.6681,-6.6733,-6.6795,-6.6795,-6.6795,-6.6795,-6.6795,-6.6795,-6.6795,-6.6795,-6.6795,-6.6795,-6.6795,-6.6795,-6.6795,-6.6795,-6.6795,-6.6795,-6.6795,-6.6795,-6.6795,-6.6795,-6.6795,-6.68,-6.6813,-6.6813,-6.7093,-5.0055,-5.0123,-5.0156,-5.056,-5.0192,-5.0125,-5.1831,-5.2065,-5.2266,-5.3281,-5.3518,-5.3518,-5.3518,-5.3518,-5.3618,-5.4076,-5.4106,-5.4362,-5.5009,-5.5069,-5.5308,-5.5978,-5.6035,-5.6201,-5.6582,-5.6635,-5.6688,-5.6933,-5.7036,-5.7087,-5.7188,-5.7388,-5.7692,-5.8137,-5.8428,-5.919,-6.0534,-6.0877,-6.1438,-6.2344,-6.2552,-6.2705,-6.2805,-6.2805,-6.2805,-6.2805,-6.2805,-6.2805,-6.2805,-6.2805,-6.2805,-6.2805,-6.3231,-6.3163,-6.299,-6.4785,-6.5297,-6.5144,-6.5345,-6.5413,-6.5413,-6.5413,-6.5413,-6.5413,-6.5413,-6.5413,-6.5444,-6.5552,-6.5608,-6.5635,-6.5872,-6.5897,-6.5897,-6.5897,-6.5897,-6.5897,-6.5897,-6.5897,-6.5897,-6.5897,-6.5967,-6.6063,-6.6088,-6.629,-6.6465,-6.6585,-6.6689,-6.6733,-6.6795,-6.6795,-6.6795,-6.6795,-6.6795,-6.6795,-6.6795,-6.6795,-6.6795,-6.6795,-6.6795,-6.6795,-6.6795,-6.6795,-6.6795,-6.6795,-6.6795,-6.6795,-6.6795,-6.6795,-6.6956,-6.7195,-6.7195,-6.7672,-4.8211,-4.8105,-4.8359,-4.9154,-4.9398,-4.9875,-5.1698,-5.1628,-5.1657,-5.3179,-5.3518,-5.3518,-5.3518,-5.3518,-5.3518,-5.3518,-5.3518,-5.3717,-5.4264,-5.4391,-5.4641,-5.5343,-5.5402,-5.5402,-5.5402,-5.5402,-5.5636,-5.6257,-5.6311,-5.6528,-5.7138,-5.7188,-5.7188,-5.7188,-5.7985,-5.8782,-5.9615,-6.0534,-6.1386,-6.2185,-6.2344,-6.25,-6.2805,-6.2805,-6.2805,-6.2805,-6.2805,-6.2805,-6.2805,-6.2805,-6.2805,-6.2805,-6.2805,-6.2804,-6.3007,-6.4724,-6.5049,-6.4658,-6.5213,-6.5375,-6.5375,-6.5413,-6.5413,-6.5413,-6.5413,-6.5413,-6.5444,-6.5552,-6.5608,-6.5635,-6.5872,-6.5897,-6.5897,-6.5897,-6.5897,-6.5897,-6.5897,-6.5897,-6.5897,-6.5897,-6.5897,-6.5933,-6.6067,-6.6108,-6.6203,-6.6552,-6.6595,-6.6633,-6.679,-6.6795,-6.6795,-6.6795,-6.6795,-6.6795,-6.6795,-6.6795,-6.6795,-6.6795,-6.6795,-6.6795,-6.6795,-6.6795,-6.6795,-6.6795,-6.6795,-6.6795,-6.6795,-6.6795,-6.7264,-6.8083,-6.8122,-6.8596,-4.9528,-4.9604,-4.9477,-4.9373,-4.917,-4.9457,-5.0659,-5.1015,-5.132,-5.2424,-5.3144,-5.3518,-5.3518,-5.3518,-5.3518,-5.3518,-5.3518,-5.3551,-5.3717,-5.3783,-5.4011,-5.4641,-5.4703,-5.4887,-5.5343,-5.5402,-5.5461,-5.5658,-5.609,-5.6366,-5.6528,-5.6984,-5.7188,-5.7188,-5.7442,-5.8202,-5.9579,-5.9506,-6.0356,-6.2185,-6.2112,-6.2271,-6.25,-6.25,-6.2574,-6.2698,-6.264,-6.2713,-6.2808,-6.2801,-6.2778,-6.2805,-6.2805,-6.2804,-6.2888,-6.3854,-6.4121,-6.4068,-6.4734,-6.4985,-6.5019,-6.5314,-6.5413,-6.5413,-6.5413,-6.5413,-6.5444,-6.5552,-6.5608,-6.5635,-6.5872,-6.5897,-6.5897,-6.5897,-6.5897,-6.5897,-6.5897,-6.5897,-6.5897,-6.5897,-6.5897,-6.5923,-6.5958,-6.6041,-6.6167,-6.6344,-6.6501,-6.6633,-6.679,-6.6795,-6.6795,-6.6795,-6.6795,-6.6795,-6.6795,-6.6795,-6.6795,-6.6795,-6.6795,-6.6795,-6.6795,-6.6795,-6.6795,-6.6795,-6.6795,-6.6795,-6.6795,-6.742,-6.7849,-6.8122,-6.8747,-6.9489,-4.9004,-4.9085,-4.8992,-4.9032,-4.8938,-4.9017,-4.9789,-5.0936,-5.1988,-5.2664,-5.3144,-5.3518,-5.3518,-5.3518,-5.3518,-5.3518,-5.3518,-5.3518,-5.3518,-5.3518,-5.3618,-5.4011,-5.4042,-5.4171,-5.4614,-5.4614,-5.4738,-5.4948,-5.5367,-5.5658,-5.5922,-5.6528,-5.6845,-5.6845,-5.7087,-5.7876,-5.9273,-5.92,-6.0122,-6.2114,-6.2041,-6.2095,-6.2275,-6.2417,-6.2506,-6.2542,-6.2647,-6.2647,-6.2647,-6.2786,-6.2815,-6.2805,-6.2805,-6.2769,-6.2835,-6.3482,-6.3668,-6.3705,-6.4294,-6.4668,-6.481,-6.5085,-6.5283,-6.5413,-6.5413,-6.5413,-6.5405,-6.5523,-6.558,-6.5635,-6.582,-6.5872,-6.5897,-6.5897,-6.5897,-6.5897,-6.5897,-6.5897,-6.5897,-6.5897,-6.5897,-6.5897,-6.5897,-6.5943,-6.6046,-6.6221,-6.6439,-6.6633,-6.679,-6.6795,-6.6795,-6.6795,-6.6795,-6.6795,-6.6795,-6.6795,-6.6795,-6.6795,-6.6795,-6.6795,-6.6795,-6.6795,-6.6795,-6.6795,-6.6795,-6.6951,-6.7303,-6.7849,-6.8474,-6.9137,-6.9684,-7.0387,-4.7396,-4.7309,-4.7452,-4.824,-4.8573,-4.8738,-4.9116,-5.1112,-5.3041,-5.3212,-5.3416,-5.3518,-5.3518,-5.3518,-5.3518,-5.3518,-5.3518,-5.3518,-5.3518,-5.3518,-5.3518,-5.3518,-5.3518,-5.3518,-5.3518,-5.3518,-5.3717,-5.4299,-5.4391,-5.4641,-5.5284,-5.5922,-5.6257,-5.6276,-5.6793,-5.7593,-5.8625,-5.9164,-6.025,-6.2005,-6.2005,-6.2005,-6.2005,-6.2384,-6.2453,-6.2381,-6.2652,-6.2595,-6.2369,-6.2676,-6.2764,-6.2755,-6.2805,-6.2805,-6.2855,-6.341,-6.3557,-6.349,-6.3892,-6.4331,-6.4704,-6.4775,-6.5052,-6.5345,-6.5413,-6.5413,-6.5405,-6.5465,-6.5552,-6.5608,-6.5767,-6.5846,-6.5897,-6.5897,-6.5897,-6.5897,-6.5897,-6.5897,-6.5897,-6.5897,-6.5897,-6.5897,-6.5897,-6.5897,-6.5958,-6.6067,-6.6368,-6.6615,-6.6739,-6.679,-6.679,-6.6795,-6.6795,-6.6795,-6.6795,-6.6795,-6.6834,-6.6912,-6.6912,-6.6951,-6.7029,-6.6873,-6.6834,-6.6912,-6.6912,-6.7342,-6.8239,-6.8318,-6.9137,-7.0699,-7.0777,-7.1245,-4.7309,-4.7309,-4.7396,-4.7538,-4.8103,-4.8738,-4.9116,-5.0119,-5.1112,-5.1516,-5.259,-5.3518,-5.3518,-5.3518,-5.3518,-5.3518,-5.3518,-5.3518,-5.3518,-5.3518,-5.3518,-5.3518,-5.3518,-5.3518,-5.3518,-5.3518,-5.3551,-5.3651,-5.4106,-5.4454,-5.4579,-5.5249,-5.5738,-5.6043,-5.6187,-5.6653,-5.7529,-5.769,-5.915,-6.2005,-6.2005,-6.2005,-6.2005,-6.2096,-6.2132,-6.2076,-6.2114,-6.2149,-6.2141,-6.2595,-6.2735,-6.2654,-6.2755,-6.2805,-6.2805,-6.2941,-6.2953,-6.3014,-6.349,-6.3712,-6.3888,-6.4595,-6.4882,-6.4985,-6.5314,-6.5413,-6.5405,-6.5465,-6.5552,-6.5608,-6.5767,-6.5846,-6.5897,-6.5897,-6.5897,-6.5897,-6.5897,-6.5897,-6.5897,-6.5897,-6.5897,-6.5897,-6.5897,-6.5897,-6.5958,-6.6067,-6.6234,-6.6413,-6.6615,-6.6624,-6.6697,-6.679,-6.6795,-6.6795,-6.6795,-6.6795,-6.7107,-6.7771,-6.781,-6.8122,-6.8825,-6.7537,-6.7107,-6.781,-6.781,-6.8239,-6.9137,-6.9801,-7.0348,-7.0738,-7.1402,-7.1831,-4.7848,-4.7788,-4.7698,-4.7369,-4.7624,-4.8103,-4.8521,-4.9278,-4.9962,-5.0461,-5.1516,-5.2449,-5.2834,-5.2903,-5.3041,-5.3416,-5.3518,-5.3518,-5.3518,-5.3518,-5.3518,-5.3518,-5.3518,-5.3518,-5.3518,-5.3518,-5.3518,-5.3518,-5.3783,-5.3946,-5.3946,-5.4683,-5.5139,-5.5332,-5.6175,-5.6766,-5.719,-5.8716,-6.0339,-6.2005,-6.2005,-6.2005,-6.2005,-6.2005,-6.1969,-6.2005,-6.1969,-6.2005,-6.202,-6.2291,-6.247,-6.2603,-6.2654,-6.2755,-6.2805,-6.2805,-6.2805,-6.2855,-6.3062,-6.3308,-6.358,-6.4012,-6.4445,-6.481,-6.5052,-6.5252,-6.5413,-6.5435,-6.5494,-6.558,-6.5674,-6.5793,-6.5846,-6.5897,-6.5897,-6.5897,-6.5897,-6.5897,-6.5897,-6.5897,-6.5897,-6.5897,-6.5897,-6.5897,-6.5958,-6.6067,-6.6167,-6.6251,-6.6452,-6.6563,-6.6771,-6.7251,-6.7364,-6.7576,-6.8005,-6.8044,-6.8239,-6.8708,-6.8708,-6.8942,-6.9372,-6.8513,-6.8279,-6.8708,-6.8708,-6.9137,-7.0035,-7.0465,-7.0894,-7.1324,-7.1792,-7.1987,-4.8596,-4.8446,-4.8327,-4.7788,-4.7638,-4.7725,-4.8243,-4.8859,-4.9459,-4.977,-5.0557,-5.1369,-5.2164,-5.2307,-5.252,-5.3348,-5.3518,-5.3518,-5.3518,-5.3518,-5.3518,-5.3518,-5.3518,-5.3518,-5.3518,-5.3518,-5.3518,-5.3518,-5.3518,-5.3518,-5.3518,-5.4148,-5.4471,-5.4529,-5.5827,-5.6821,-5.7335,-6.0447,-6.2011,-6.2005,-6.2005,-6.2005,-6.2005,-6.2005,-6.2005,-6.2005,-6.2005,-6.2024,-6.2023,-6.2023,-6.2271,-6.2552,-6.2603,-6.2705,-6.2805,-6.2805,-6.2805,-6.2805,-6.2805,-6.3062,-6.34,-6.349,-6.3971,-6.4595,-6.4668,-6.4913,-6.5182,-6.5283,-6.5345,-6.5435,-6.558,-6.5701,-6.582,-6.5872,-6.5897,-6.5897,-6.5897,-6.5897,-6.5897,-6.5897,-6.5897,-6.5897,-6.5897,-6.5897,-6.5972,-6.6256,-6.6278,-6.6399,-6.6678,-6.6853,-6.7253,-6.8037,-6.8227,-6.858,-6.9333,-6.9411,-6.945,-6.9606,-6.9606,-6.9684,-6.984,-6.984,-6.984,-6.984,-6.9684,-7.0035,-7.0933,-7.0933,-7.1285,-7.1987,-7.1987,-7.1987,-4.9164,-4.9134,-4.9105,-4.9015,-4.9015,-4.9194,-4.9637,-4.9813,-4.9891,-4.9735,-5.0438,-5.1369,-5.2164,-5.2307,-5.252,-5.3348,-5.3518,-5.3518,-5.3518,-5.3518,-5.3518,-5.3518,-5.3518,-5.3518,-5.3518,-5.3518,-5.3518,-5.3518,-5.3518,-5.3518,-5.3518,-5.3585,-5.3652,-5.3635,-5.3874,-5.523,-5.7788,-6.0603,-6.2011,-6.2005,-6.2005,-6.2005,-6.2005,-6.2005,-6.2005,-6.2005,-6.2005,-6.2005,-6.2005,-6.2168,-6.2328,-6.2449,-6.2552,-6.2705,-6.2805,-6.2805,-6.2805,-6.2805,-6.2805,-6.2855,-6.2965,-6.3354,-6.358,-6.3718,-6.4094,-6.4215,-6.4369,-6.4775,-6.4913,-6.5079,-6.5485,-6.5701,-6.582,-6.5872,-6.5897,-6.5897,-6.5897,-6.5897,-6.5897,-6.5897,-6.5897,-6.5897,-6.5897,-6.5897,-6.6153,-6.6871,-6.6948,-6.7278,-6.8158,-6.8336,-6.8485,-6.8911,-6.8943,-6.9068,-6.9366,-6.9411,-6.9723,-7.0465,-7.0543,-7.0855,-7.1636,-7.1636,-7.1636,-7.1636,-7.0894,-7.0972,-7.1831,-7.1831,-7.187,-7.1987,-7.1987,-7.1987,-4.9912,-4.9553,-4.9254,-4.9254,-4.9254,-4.9434,-4.991,-4.9998,-4.9995,-5.0211,-5.0549,-5.0865,-5.0928,-5.0951,-5.1401,-5.259,-5.2834,-5.2972,-5.345,-5.3518,-5.3518,-5.3518,-5.3518,-5.3653,-5.4059,-5.4126,-5.4296,-5.4702,-5.4464,-5.426,-5.426,-5.3782,-5.348,-5.3518,-5.5076,-5.6608,-5.7863,-6.0618,-6.1986,-6.2005,-6.2005,-6.2005,-6.2005,-6.2005,-6.2005,-6.2005,-6.2005,-6.2005,-6.2005,-6.2204,-6.2328,-6.2397,-6.2552,-6.2705,-6.2805,-6.2805,-6.2805,-6.2805,-6.2805,-6.2805,-6.2855,-6.3014,-6.3299,-6.3535,-6.3718,-6.393,-6.4136,-6.4369,-6.4593,-6.4913,-6.5207,-6.5456,-6.5728,-6.5872,-6.5897,-6.5897,-6.5897,-6.5897,-6.5897,-6.5897,-6.5897,-6.6051,-6.6474,-6.6551,-6.6859,-6.7705,-6.7821,-6.7988,-6.8434,-6.8536,-6.8839,-6.9489,-6.9695,-7.0045,-7.0637,-7.0798,-7.1011,-7.1402,-7.1441,-7.1597,-7.1987,-7.1987,-7.1987,-7.1987,-7.1636,-7.1636,-7.1987,-7.1987,-7.1987,-7.1987,-7.1987,-7.1987,-5.0631,-5.0122,-4.9763,-4.9763,-4.9763,-4.9945,-5.0425,-5.0514,-5.0543,-5.0887,-5.0944,-5.0746,-5.0254,-5.0245,-5.0927,-5.2547,-5.2837,-5.3157,-5.3922,-5.4059,-5.4059,-5.4059,-5.4059,-5.4296,-5.4837,-5.4871,-5.5074,-5.5477,-5.5137,-5.476,-5.4592,-5.3841,-5.3841,-5.4589,-5.6731,-5.7907,-5.7876,-6.0639,-6.1671,-6.0942,-6.0942,-6.1142,-6.1523,-6.1564,-6.1676,-6.1676,-6.1859,-6.2005,-6.2005,-6.2168,-6.2238,-6.2397,-6.2552,-6.2705,-6.2805,-6.2805,-6.2805,-6.2805,-6.2805,-6.2805,-6.2805,-6.2805,-6.3014,-6.3308,-6.3308,-6.3498,-6.3766,-6.3892,-6.4214,-6.452,-6.4734,-6.5041,-6.5329,-6.5635,-6.5717,-6.5781,-6.5897,-6.6051,-6.6205,-6.6205,-6.6359,-6.6744,-6.7321,-6.7436,-6.7744,-6.859,-6.8744,-6.8821,-6.9013,-6.9114,-6.9447,-7.017,-7.0438,-7.0875,-7.1575,-7.1837,-7.1924,-7.1924,-7.1982,-7.1987,-7.1987,-7.1987,-7.1987,-7.1987,-7.1987,-7.1987,-7.1987,-7.1987,-7.1987,-7.1987,-7.1987,-7.1987,-5.1169,-5.1139,-5.1109,-5.1109,-5.1109,-5.1203,-5.1789,-5.1911,-5.188,-5.1686,-5.1652,-5.1436,-5.0814,-5.1278,-5.2316,-5.403,-5.4254,-5.4582,-5.5441,-5.5615,-5.5615,-5.5615,-5.5615,-5.5615,-5.5649,-5.5649,-5.5443,-5.4965,-5.4932,-5.4488,-5.3606,-5.3565,-5.4783,-5.759,-5.7785,-5.7865,-5.7912,-6.0609,-6.0685,-5.8101,-5.8101,-5.8822,-6.0093,-6.0498,-6.0665,-6.0724,-6.1584,-6.2005,-6.2005,-6.2168,-6.2238,-6.2397,-6.2552,-6.2705,-6.2805,-6.2805,-6.2805,-6.2805,-6.2805,-6.2805,-6.2805,-6.2805,-6.2805,-6.2855,-6.2855,-6.2855,-6.2965,-6.34,-6.3535,-6.3674,-6.4138,-6.4332,-6.4592,-6.5035,-6.523,-6.5456,-6.5808,-6.6513,-6.7051,-6.7051,-6.7705,-6.8282,-6.8321,-6.8321,-6.8629,-6.9513,-6.9629,-6.9898,-7.0667,-7.0783,-7.0876,-7.1115,-7.1158,-7.1261,-7.1481,-7.1641,-7.1711,-7.1711,-7.187,-7.1987,-7.1987,-7.1987,-7.1987,-7.1987,-7.1987,-7.1987,-7.1987,-7.1987,-7.1987,-7.1987,-7.1987,-7.1987,-5.1229,-5.1229,-5.1229,-5.1229,-5.1323,-5.1602,-5.191,-5.2063,-5.2245,-5.2301,-5.2359,-5.2267,-5.2021,-5.1512,-5.1487,-5.2653,-5.2813,-5.3285,-5.4682,-5.4862,-5.508,-5.5646,-5.5716,-5.5919,-5.6359,-5.622,-5.6356,-5.6795,-5.6829,-5.6727,-5.6314,-5.6275,-5.6824,-5.7853,-5.792,-5.7899,-5.7912,-5.8871,-5.8859,-5.7904,-5.852,-5.9207,-6.003,-6.0149,-6.0238,-6.0238,-6.059,-6.1198,-6.2005,-6.2275,-6.2381,-6.2397,-6.2654,-6.2755,-6.2805,-6.2805,-6.2805,-6.2805,-6.2805,-6.2805,-6.2805,-6.2805,-6.2805,-6.2805,-6.2805,-6.2805,-6.2855,-6.3014,-6.3299,-6.358,-6.3766,-6.4019,-6.4558,-6.5689,-6.6039,-6.6383,-6.7307,-6.7282,-6.7282,-6.7821,-6.8205,-6.859,-6.9129,-6.9244,-6.9513,-7.036,-7.0475,-7.0552,-7.086,-7.0898,-7.0925,-7.0992,-7.1077,-7.1175,-7.128,-7.137,-7.1466,-7.1573,-7.1739,-7.1798,-7.1798,-7.1924,-7.1987,-7.1987,-7.1987,-7.1987,-7.1987,-7.1987,-7.1987,-7.1987,-7.1987,-7.1987,-5.1229,-5.1229,-5.1229,-5.1229,-5.1386,-5.1695,-5.191,-5.2155,-5.2397,-5.2608,-5.2698,-5.2698,-5.2698,-5.199,-5.1605,-5.2482,-5.2618,-5.3113,-5.4546,-5.4929,-5.5339,-5.5889,-5.6284,-5.663,-5.7137,-5.6964,-5.7167,-5.7848,-5.7881,-5.7881,-5.7881,-5.7881,-5.7881,-5.7881,-5.7881,-5.7895,-5.7945,-5.7945,-5.7878,-5.7907,-5.8524,-5.9004,-5.9314,-5.9513,-5.9644,-5.9644,-5.9902,-6.0626,-6.1692,-6.1933,-6.2185,-6.2433,-6.2705,-6.2805,-6.2805,-6.2805,-6.2805,-6.2805,-6.2805,-6.2805,-6.2805,-6.2805,-6.2805,-6.2805,-6.2805,-6.2805,-6.2805,-6.2805,-6.3014,-6.3262,-6.3354,-6.3867,-6.4742,-6.5726,-6.6526,-6.7309,-6.8397,-6.8279,-6.8129,-6.8706,-6.9052,-6.9436,-7.0014,-7.009,-7.0283,-7.0821,-7.0898,-7.0898,-7.0898,-7.0871,-7.0871,-7.0898,-7.094,-7.1004,-7.1053,-7.118,-7.1262,-7.1358,-7.1544,-7.1653,-7.17,-7.1846,-7.1924,-7.1987,-7.1987,-7.1987,-7.1987,-7.1987,-7.1987,-7.1987,-7.1987,-7.1987,0.0,0.0,0.0,-5.1229,-5.1386,-5.1695,-5.2002,-5.2155,-5.2397,-5.2608,-5.2698,-5.2698,-5.2698,-5.2698,-5.2935,-5.3836,-5.3976,-5.4232,-5.5149,-5.5955,-5.6536,-5.6614,-5.7331,-5.7881,-5.7881,-5.7881,-5.7881,-5.7881,-5.7881,-5.7881,-5.7881,-5.7881,-5.7881,-5.7881,-5.7881,-5.7881,-5.7881,-5.7881,-5.7881,-5.7881,-5.7881,-5.7881,-5.7954,-5.8564,-5.8909,-5.8909,-5.9644,-6.0317,-6.0962,-6.1243,-6.1732,-6.2344,-6.2654,-6.2755,-6.2755,-6.2755,-6.2755,-6.2805,-6.2805,-6.2805,-6.2805,-6.2805,-6.2805,-6.2805,-6.2805,-6.2805,-6.2805,-6.2805,-6.2805,-6.2805,-6.2842,-6.3938,-6.5036,-6.524,-6.656,-6.8056,-6.8897,-6.9442,-6.9744,-6.9744,-7.036,-7.0898,-7.0898,-7.0898,-7.0898,-7.0898,-7.0898,-7.0898,-7.0898,-7.0843,-7.0815,-7.0871,-7.0758,-7.0699,-7.0787,-7.0979,-7.1085,-7.1085,-7.1339,-7.1544,-7.1689,-7.1689,-7.1789,-7.1982,-7.1987,-7.1987,-7.1987,-7.1987,-7.1987,-7.1987,-7.1987,-7.1987,-5.1229,0.0,0.0,0.0,0.0,0.0,-5.2155,-5.2427,-5.2608,-5.2698,-5.2698,-5.2698,-5.2698,-5.2698,-5.2788,-5.3024,-5.3024,-5.3346,-5.4232,-5.4569,-5.5231,-5.6459,-5.6635,-5.7014,-5.7808,-5.7881,-5.7881,-5.7881,-5.7881,-5.7881,-5.7881,-5.7881,-5.7881,-5.7881,-5.7881,-5.7881,-5.7881,-5.7881,-5.7881,-5.7881,-5.7881,-5.7881,-5.7881,-5.8065,-5.8209,-5.8209,-5.8422,-5.8841,-5.9543,-6.0406,-6.0867,-6.101,-6.1322,-6.1751,-6.2112,-6.2112,-6.2412,-6.2805,-6.2805,-6.2805,-6.2805,-6.2805,-6.2805,-6.2805,-6.2805,-6.2805,-6.2805,-6.2805,-6.2805,-6.2952,-6.3576,-6.4132,-6.4921,-6.6396,-6.7326,-6.8146,-6.9171,-6.9756,-7.0218,-7.0525,-7.0744,-7.0898,-7.0898,-7.0898,-7.0898,-7.0898,-7.0843,-7.0815,-7.0815,-7.0758,-7.0729,-7.0729,-7.0678,-7.0647,-7.0699,-7.0787,-7.0832,-7.086,-7.1147,-7.13,-7.1358,-7.1481,-7.1628,-7.178,-7.1789,-7.1854,-7.1987,-7.1987,-7.1987,-7.1987,-7.1987,-7.1987,-5.1229,-5.1229,-5.1199,-5.1389,0.0,0.0,-5.2154,-5.2457,-5.2698,-5.2698,-5.2698,-5.2698,-5.2698,-5.2698,-5.2698,-5.2698,-5.2698,-5.2877,-5.3434,-5.3444,-5.3851,-5.4843,-5.6113,-5.7187,-5.7883,-5.787,-5.7881,-5.7881,-5.7881,-5.7881,-5.7881,-5.7881,-5.7881,-5.7881,-5.7881,-5.7881,-5.7881,-5.7881,-5.7881,-5.7881,-5.7881,-5.7881,-5.7881,-5.7881,-5.7881,-5.7881,-5.7881,-5.8137,-5.8528,-5.9349,-6.0001,-6.0564,-6.0796,-6.1149,-6.1472,-6.1472,-6.1696,-6.2023,-6.236,-6.2412,-6.2464,-6.2705,-6.2805,-6.2805,-6.2805,-6.2805,-6.2805,-6.2805,-6.3062,-6.3466,-6.398,-6.4719,-6.562,-6.6753,-6.7672,-6.849,-6.911,-6.9664,-7.0167,-7.0563,-7.0777,-7.0898,-7.0898,-7.0898,-7.0898,-7.0871,-7.0815,-7.0787,-7.0758,-7.0708,-7.0678,-7.0708,-7.0616,-7.0554,-7.0647,-7.0708,-7.0737,-7.0767,-7.0966,-7.1101,-7.1214,-7.13,-7.1448,-7.1615,-7.1615,-7.1848,-7.2267,-7.2119,-7.2182,-7.2534,-7.2885,-7.3041,-5.1229,-5.1229,-5.1169,-5.1176,-5.1574,0.0,-5.2093,-5.2426,-5.2698,-5.2698,-5.2698,-5.2698,-5.2698,-5.2698,-5.2698,-5.2698,-5.2698,-5.2698,-5.2698,-5.2647,-5.2707,-5.273,-5.5426,-5.7454,-5.7853,-5.7917,-5.7876,-5.7881,-5.7881,-5.7881,-5.7881,-5.7881,-5.7881,-5.7881,-5.7881,-5.7881,-5.7881,-5.7881,-5.7881,-5.7881,-5.7881,-5.7881,-5.7881,-5.7881,-5.7881,-5.7881,-5.7881,-5.7881,-5.7954,-5.8348,-5.9182,-6.0317,-6.0555,-6.07,-6.0796,-6.0796,-6.082,-6.0974,-6.1584,-6.1787,-6.1897,-6.2515,-6.2705,-6.2705,-6.2755,-6.2805,-6.2842,-6.2915,-6.3503,-6.4127,-6.431,-6.5515,-6.6721,-6.6795,-6.7826,-6.8825,-6.8825,-6.9265,-6.974,-7.0064,-7.0532,-7.0805,-7.0805,-7.0871,-7.0871,-7.0787,-7.0787,-7.0767,-7.0708,-7.0616,-7.0585,-7.0678,-7.0515,-7.0451,-7.0554,-7.0647,-7.0708,-7.0708,-7.0815,-7.0966,-7.117,-7.117,-7.1317,-7.1603,-7.1698,-7.2142,-7.2841,-7.2443,-7.2639,-7.342,-7.4168,-7.4486,-5.116,-5.1229,-5.1169,-5.1178,-5.1576,0.0,-5.2487,-5.2608,-5.2698,-5.2698,-5.2698,-5.2698,-5.2698,-5.2698,-5.2698,-5.2698,-5.2698,-5.2698,-5.2698,-5.2695,-5.2683,-5.2676,-5.3313,-5.4791,-5.7598,-5.7907,-5.7867,-5.7915,-5.7881,-5.7881,-5.7881,-5.7881,-5.7881,-5.7881,-5.7881,-5.7881,-5.7881,-5.7881,-5.7881,-5.7881,-5.7881,-5.7881,-5.7881,-5.7881,-5.7881,-5.7881,-5.7881,-5.7954,-5.8171,-5.8419,-5.8667,-5.8944,-5.9249,-5.9679,-6.0192,-6.0192,-6.0494,-6.0879,-6.1033,-6.1091,-6.1207,-6.1897,-6.2059,-6.2202,-6.2654,-6.2805,-6.2952,-6.3649,-6.398,-6.4383,-6.5705,-6.636,-6.6868,-6.7373,-6.7959,-6.8371,-6.8321,-6.8734,-6.9219,-6.9181,-6.9849,-7.04,-7.04,-7.0661,-7.0815,-7.0787,-7.0708,-7.0616,-7.0616,-7.0522,-7.0451,-7.0451,-7.0419,-7.0419,-7.0451,-7.0578,-7.0708,-7.0708,-7.0815,-7.0925,-7.094,-7.094,-7.1376,-7.2285,-7.3102,-7.3601,-7.3756,-7.3834,-7.3953,-7.4109,-7.4382,-7.4486,-5.119,-5.1229,-5.1233,-5.121,-5.1758,0.0,0.0,-5.2698,-5.2698,-5.2698,-5.2698,-5.2698,-5.2698,-5.2698,-5.2698,-5.2698,-5.2698,-5.2698,-5.2698,-5.2698,-5.2695,-5.2709,-5.2746,-5.3429,-5.5166,-5.6854,-5.7897,-5.7909,-5.7904,-5.7881,-5.7881,-5.7881,-5.7881,-5.7881,-5.7881,-5.7881,-5.7881,-5.7881,-5.7881,-5.7881,-5.7881,-5.7881,-5.7881,-5.7881,-5.7881,-5.7881,-5.7881,-5.8027,-5.8205,-5.8419,-5.8561,-5.8701,-5.8875,-5.9217,-5.9516,-5.9516,-5.9679,-6.003,-6.0344,-6.0468,-6.059,-6.1207,-6.1379,-6.1528,-6.2166,-6.2859,-6.3539,-6.398,-6.4677,-6.5485,-6.6292,-6.6859,-6.7279,-6.763,-6.7899,-6.8107,-6.8018,-6.8334,-6.8586,-6.849,-6.9015,-6.9588,-6.9776,-7.0133,-7.0407,-7.0342,-7.0483,-7.0554,-7.0522,-7.0451,-7.0419,-7.0419,-7.0419,-7.0419,-7.0419,-7.0547,-7.0647,-7.0647,-7.0758,-7.0843,-7.0843,-7.0871,-7.1364,-7.234,-7.3273,-7.3938,-7.4363,-7.4984,-7.5128,-7.4831,-7.5288,-7.5558,-5.116,-5.1169,-5.1173,-5.118,-5.1911,-5.2673,0.0,0.0,0.0,-5.2698,-5.2698,-5.2698,-5.2698,-5.2698,-5.2698,-5.2698,-5.2698,-5.2698,-5.2698,-5.2698,-5.2698,-5.2698,-5.2678,-5.2684,-5.273,-5.5274,-5.7149,-5.7864,-5.7867,-5.7904,-5.7904,-5.7876,-5.7881,-5.7881,-5.7881,-5.7881,-5.7881,-5.7881,-5.7881,-5.7881,-5.7881,-5.7881,-5.7881,-5.7881,-5.7881,-5.7881,-5.7881,-5.8027,-5.8277,-5.8419,-5.8631,-5.884,-5.8944,-5.9012,-5.9012,-5.9012,-5.9012,-5.9081,-5.9648,-5.9844,-5.9937,-6.0494,-6.0796,-6.1033,-6.1528,-6.2748,-6.3936,-6.4082,-6.5286,-6.6549,-6.6696,-6.721,-6.7687,-6.7687,-6.7794,-6.7899,-6.7899,-6.8004,-6.807,-6.8107,-6.8297,-6.8697,-6.9106,-6.9549,-6.9814,-6.9778,-7.0144,-7.0386,-7.0281,-7.0348,-7.0419,-7.0419,-7.0419,-7.0419,-7.0419,-7.0522,-7.0623,-7.0623,-7.0737,-7.0787,-7.0787,-7.1217,-7.1745,-7.2437,-7.3476,-7.4322,-7.4938,-7.5839,-7.5979,-7.5507,-7.6242,-7.6609,-5.1195,-5.1178,-5.1242,-5.1152,-5.1941,-5.2702,-5.267,0.0,-5.2698,-5.2698,0.0,-5.2698,-5.2698,0.0,0.0,-5.2698,-5.2698,-5.2698,-5.2698,-5.2698,-5.2698,-5.2698,-5.2726,-5.2745,-5.2676,-5.3057,-5.46,-5.7657,-5.793,-5.7907,-5.7907,-5.7891,-5.7881,-5.7881,-5.7881,-5.7881,-5.7881,-5.7881,-5.7881,-5.7881,-5.7881,-5.7881,-5.7881,-5.7881,-5.7881,-5.7881,-5.7881,-5.8099,-5.849,-5.849,-5.8701,-5.8944,-5.9012,-5.9012,-5.9012,-5.9012,-5.9012,-5.9012,-5.9081,-5.9149,-5.9182,-5.9873,-6.0468,-6.0879,-6.1033,-6.2068,-6.3348,-6.4073,-6.5369,-6.6659,-6.7357,-6.7614,-6.7687,-6.7687,-6.7794,-6.7899,-6.7899,-6.8004,-6.807,-6.7952,-6.7967,-6.8185,-6.8697,-6.9058,-6.9269,-6.9306,-6.9625,-6.9891,-6.9891,-7.0179,-7.0419,-7.0419,-7.0419,-7.0419,-7.0419,-7.0522,-7.0623,-7.0623,-7.0678,-7.0729,-7.0787,-7.2371,-7.3245,-7.336,-7.4899,-7.5745,-7.5861,-7.5967,-7.6095,-7.6173,-7.6458,-7.6609,-5.19,-5.2021,-5.2077,-5.2063,-5.2398,-5.2732,-5.2671,-5.2698,-5.2698,-5.2698,0.0,0.0,0.0,0.0,0.0,0.0,-5.2698,-5.2698,-5.2698,-5.2698,-5.2698,-5.2698,-5.2698,-5.2695,-5.2683,-5.2699,-5.3323,-5.4781,-5.4907,-5.5483,-5.6812,-5.692,-5.723,-5.7881,-5.7881,-5.7881,-5.7881,-5.7881,-5.7881,-5.7881,-5.7881,-5.7881,-5.7881,-5.7881,-5.7881,-5.7881,-5.7881,-5.8099,-5.849,-5.849,-5.8701,-5.9012,-5.9012,-5.9012,-5.9012,-5.9012,-5.9012,-5.9012,-5.9012,-5.9012,-5.9081,-5.9317,-5.9873,-6.0477,-6.0874,-6.2042,-6.3405,-6.41,-6.5438,-6.668,-6.7045,-6.7433,-6.7687,-6.7687,-6.7741,-6.7794,-6.7794,-6.7847,-6.7847,-6.7794,-6.7794,-6.7863,-6.8084,-6.8453,-6.8734,-6.8734,-6.9134,-6.9385,-6.9385,-6.9546,-6.9778,-7.0038,-7.0073,-7.0144,-7.0386,-7.0451,-7.0451,-7.0451,-7.0647,-7.0729,-7.0843,-7.2063,-7.2976,-7.3514,-7.4668,-7.5476,-7.6015,-7.6015,-7.6034,-7.6133,-7.6199,-7.6273,-5.2107,-5.2437,-5.2306,-5.0879,-5.1574,-5.273,-5.2671,-5.2698,-5.2698,-5.2698,-5.2698,0.0,0.0,0.0,-5.2698,-5.2698,0.0,-5.2698,-5.2698,-5.2698,-5.2698,-5.2698,-5.2698,-5.2698,-5.2698,-5.2741,-5.2722,-5.2722,-5.3028,-5.392,-5.5632,-5.6105,-5.6711,-5.748,-5.7808,-5.7881,-5.7881,-5.7881,-5.7808,-5.7554,-5.7554,-5.7554,-5.7554,-5.7554,-5.7662,-5.7881,-5.7954,-5.8171,-5.849,-5.8561,-5.8771,-5.9012,-5.9012,-5.9012,-5.9012,-5.9012,-5.9012,-5.9012,-5.9012,-5.9012,-5.9012,-5.9012,-5.9455,-6.0133,-6.0691,-6.2023,-6.3484,-6.3989,-6.5366,-6.6677,-6.6677,-6.7174,-6.7687,-6.7687,-6.7687,-6.7687,-6.7687,-6.7687,-6.7687,-6.7687,-6.7687,-6.7687,-6.7687,-6.7982,-6.8235,-6.8235,-6.8633,-6.8915,-6.8915,-6.9003,-6.9219,-6.9584,-6.9623,-6.9778,-7.0213,-7.0213,-7.0281,-7.0419,-7.0578,-7.0729,-7.0843,-7.1948,-7.286,-7.3514,-7.4514,-7.5361,-7.6015,-7.6015,-7.6015,-7.6015,-7.6015,-7.6015,-5.1276,-5.1947,-5.1473,-4.6214,-4.8895,-5.267,-5.2729,-5.2698,-5.2698,-5.2698,-5.2698,-5.2698,-5.2698,-5.2698,-5.2698,-5.2698,-5.2698,0.0,0.0,-5.2698,-5.2698,-5.2698,-5.2698,-5.2698,-5.2698,-5.2698,-5.2698,-5.2698,-5.3702,-5.4369,-5.4486,-5.5814,-5.6614,-5.6614,-5.748,-5.7881,-5.7881,-5.7881,-5.748,-5.6614,-5.6614,-5.6614,-5.6614,-5.6614,-5.7105,-5.7881,-5.8133,-5.8348,-5.849,-5.8701,-5.8909,-5.9012,-5.9012,-5.9012,-5.9012,-5.9012,-5.9012,-5.9012,-5.9012,-5.9012,-5.9012,-5.9012,-5.953,-6.022,-6.0255,-6.1744,-6.3509,-6.3545,-6.5054,-6.6677,-6.6677,-6.7174,-6.7687,-6.7687,-6.7687,-6.7687,-6.7687,-6.7687,-6.7687,-6.7687,-6.7687,-6.7687,-6.7687,-6.7741,-6.7741,-6.7741,-6.8134,-6.8442,-6.8442,-6.8825,-6.9091,-6.9134,-6.9134,-6.9303,-6.9778,-6.9853,-7.0001,-7.0386,-7.0578,-7.0708,-7.0737,-7.2467,-7.3476,-7.3514,-7.513,-7.5976,-7.6015,-7.6015,-7.6015,-7.6015,-7.6015,-7.6015,-4.6883,-4.9753,-5.2247,-5.0431,-5.1374,-5.2718,-5.2733,-5.2698,-5.2698,-5.2698,-5.2698,-5.2698,-5.2698,-5.2698,-5.2698,-5.2698,-5.2698,-5.2698,0.0,-5.2698,-5.2698,-5.2698,-5.2698,-5.2698,-5.2698,-5.2698,-5.2698,-5.2698,-5.3086,-5.3528,-5.4071,-5.4601,-5.5149,-5.5716,-5.6034,-5.6426,-5.6996,-5.6426,-5.6348,-5.6614,-5.6034,-5.5716,-5.5716,-5.5716,-5.5876,-5.6192,-5.6459,-5.6996,-5.7701,-5.7848,-5.8351,-5.9012,-5.9012,-5.9012,-5.9012,-5.9012,-5.9012,-5.9012,-5.9012,-5.9012,-5.9081,-5.9633,-5.9978,-6.0392,-6.1392,-6.2262,-6.296,-6.3447,-6.4425,-6.5433,-6.5878,-6.6523,-6.7174,-6.7596,-6.7687,-6.7687,-6.7687,-6.7687,-6.7687,-6.7687,-6.7687,-6.7687,-6.7687,-6.7687,-6.7687,-6.7687,-6.781,-6.7967,-6.7967,-6.8084,-6.8297,-6.8595,-6.8679,-6.8825,-6.9303,-6.9623,-7.0001,-7.0522,-7.0647,-7.0737,-7.0758,-7.2534,-7.3514,-7.3514,-7.5168,-7.6015,-7.6015,-7.6015,-7.6015,-7.6015,-7.6015,-7.6015,-4.4705,-4.7205,-4.9887,-4.9814,-5.132,-5.2732,-5.2673,-5.267,-5.2698,-5.2698,-5.2698,-5.267,-5.2703,-5.2671,-5.27,-5.2703,-5.2671,-5.2698,0.0,-5.2698,-5.2698,-5.2698,-5.2698,-5.2698,-5.2698,-5.2698,-5.2698,-5.2698,-5.2698,-5.2966,-5.3521,-5.3836,-5.4232,-5.4819,-5.5149,-5.5555,-5.6113,-5.5555,-5.5474,-5.5636,-5.5149,-5.4819,-5.4819,-5.4819,-5.4985,-5.5312,-5.5636,-5.6113,-5.6811,-5.7372,-5.7959,-5.8632,-5.8875,-5.9012,-5.9012,-5.9012,-5.9012,-5.9012,-5.9012,-5.9012,-5.915,-5.9944,-6.0392,-6.084,-6.2117,-6.2668,-6.2944,-6.3151,-6.3902,-6.4667,-6.4817,-6.56,-6.6464,-6.7174,-6.7378,-6.7433,-6.7633,-6.7687,-6.7687,-6.7687,-6.7687,-6.7687,-6.7687,-6.7687,-6.7687,-6.7687,-6.7687,-6.7687,-6.7687,-6.7687,-6.781,-6.8134,-6.8185,-6.8394,-6.9047,-6.9544,-7.0001,-7.0522,-7.0647,-7.0737,-7.0758,-7.2534,-7.3514,-7.3514,-7.5168,-7.6015,-7.6015,-7.6015,-7.6015,-7.6015,-7.6015,-7.6015]},{"header":{"parameterUnit":"m.s-1","parameterCategory":1,"la1":30.6,"la2":29.2853,"lo1":-89.7004,"lo2":-87.6739,"dy":0.0162,"dx":0.0183,"nx":112,"ny":82,"refTime":"2024-02-07T18:00:00:Z","depth":0,"parameterNumber":3,"parameterNumberName":"V-component_of_WINDS"},"data":[0.0,0.0,0.0,0.0,0.0,0.0,0.0,0.0,0.0,0.0,0.0,0.0,0.0,0.0,0.0,0.0,0.0,0.0,0.0,0.0,0.0,0.0,0.0,0.0,0.0,0.0,0.0,0.0,0.0,0.0,0.0,0.0,0.0,0.0,0.0,0.0,0.0,0.0,0.0,0.0,0.0,0.0,0.0,0.0,0.0,0.0,0.0,0.0,0.0,0.0,0.0,0.0,0.0,0.0,0.0,0.0,0.0,0.0,0.0,0.0,0.0,0.0,0.0,0.0,0.0,0.0,0.0,0.0,0.0,0.0,0.0,0.0,0.0,0.0,0.0,0.0,0.0,0.0,0.0,0.0,0.0,0.0,0.0,0.0,0.0,0.0,0.0,0.0,0.0,0.0,0.1147,0.1421,0.1816,0.2089,0.2114,0.2116,0.2382,0.3043,0.0,0.0,0.0,0.0,0.0,0.0,0.0,0.0,0.0,0.0,0.0,0.0,0.0,0.0,0.0,0.0,0.0,0.0,0.0,0.0,0.0,0.0,0.0,0.0,0.0,0.0,0.0,0.0,0.0,0.0,0.0,0.0,0.0,0.0,0.0,0.0,0.0,0.0,0.0,0.0,0.0,0.0,0.0,0.0,0.0,0.0,0.0,0.0,0.0,0.0,0.0,0.0,0.0,0.0,0.0,0.0,0.0,0.0,0.0,0.0,0.0,0.0,0.0,0.0,0.0,0.0,0.0,0.0,0.0,0.0,0.0,0.0,0.0,0.0,0.0,0.0,0.0,0.0,0.0,0.0,0.0,0.0,0.0,0.0,0.0,0.0,0.0,0.0,0.0,0.0,0.0,0.0,0.0,0.0,0.0,0.0,0.0,0.0,0.0,0.0,0.0,0.0,0.0,0.0,0.1551,0.1574,0.1993,0.2143,0.2147,0.2147,0.2415,0.3084,0.0,0.0,0.0,0.0,0.0,0.0,0.0,0.0,0.0,0.0,0.0,0.0,0.0,0.0,0.0,0.0,0.0,0.0,0.0,0.0,0.0,0.0,0.0,0.0,0.0,0.0,0.0,0.0,0.0,0.0,0.0,0.0,0.0,0.0,0.0,0.0,0.0,0.0,0.0,0.0,0.0,0.0,0.0,0.0,0.0,0.0,0.0,0.0,0.0,0.0,0.0,0.0,0.0,0.0,0.0,0.0,0.0,0.0,0.0,0.0,0.0,0.0,0.0,0.0,0.0,0.0,0.0,0.0,0.0,0.0,0.0,0.0,0.0,0.0,0.0,0.0,0.0,0.0,0.0,0.0,0.0,0.0,0.0,0.0,0.0,0.0,0.0,0.0,0.0,0.0,0.0,0.0,0.0,0.0,0.0,0.0,0.0,0.0,0.0,0.0,0.0,0.0,0.0,0.1701,0.172,0.1866,0.2146,0.2155,0.2155,0.2155,0.2423,0.3094,0.321,0.0,0.0,0.0,0.0,0.0,0.0,0.0,0.0,0.0,0.0,0.0,0.0,0.0,0.0,0.0,0.0,0.0,0.0,0.0,0.0,0.0,0.0,0.0,0.0,0.0,0.0,0.0,0.0,0.0,0.0,0.0,0.0,0.0,0.0,0.0,0.0,0.0,0.0,0.0,0.0,0.0,0.0,0.0,0.0,0.0,0.0,0.0,0.0,0.0,0.0,0.0,0.0,0.0,0.0,0.0,0.0,0.0,0.0,0.0,0.0,0.0,0.0,0.0,0.0,0.0,0.0,0.0,0.0,0.0,0.0,0.0,0.0,0.0,0.0,0.0,0.0,0.0,0.0,0.0,0.0,0.0,0.0,0.0,0.0,0.0,0.0,0.0,0.0,0.0,0.0,0.0,0.0,0.0,0.0,0.0,0.0,0.0,0.0,0.0,0.0,0.0,0.0,0.1739,0.1885,0.2154,0.2155,0.2155,0.2155,0.2155,0.2423,0.3094,0.3228,0.0,0.0,0.0,0.0,0.0,0.0,0.0,0.0,0.0,0.0,0.0,0.0,0.0,0.0,0.0,0.0,0.0,0.0,0.0,0.0,0.0,0.0,0.0,0.0,0.0,0.0,0.0,0.0,0.0,0.0,0.0,0.0,0.0,0.0,0.0,0.0,0.0,0.0,0.0,0.0,0.0,0.0,0.0,0.0,0.0,0.0,0.0,0.0,0.0,0.0,0.0,0.0,0.0,0.0,0.0,0.0,0.0,0.0,0.0,0.0,0.0,0.0,0.0,0.0,0.0,0.0,0.0,0.0,0.0,0.0,0.0,0.0,0.0,0.0,0.0,0.0,0.0,0.0,0.0,0.0,0.0,0.0,0.0,0.0,0.0,0.0,0.0,0.0,0.0,0.0,0.0,0.0,0.0,0.0,0.0,0.0,0.0,0.0,0.0,0.0,0.0,0.0,0.2153,0.2154,0.2155,0.2155,0.2155,0.2155,0.2155,0.2423,0.3094,0.3228,0.0,0.0,0.0,0.0,0.0,0.0,0.0,0.0,0.0,0.0,0.0,0.0,0.0,0.0,0.0,0.0,0.0,0.0,0.0,0.0,0.0,0.0,0.0,0.0,0.0,0.0,0.0,0.0,0.0,0.0,0.0,0.0,0.0,0.0,0.0,0.0,0.0,0.0,0.0,0.0,0.0,0.0,0.0,0.0,0.0,0.0,0.0,0.0,0.0,0.0,0.0,0.0,0.0,0.0,0.0,0.0,0.0,0.0,0.0,0.0,0.0,0.0,0.0,0.0,0.0,0.0,0.0,0.0,0.0,0.0,0.0,0.0,0.0,0.0,0.0,0.0,0.0,0.0,0.0,0.0,0.0,0.0,0.0,0.0,0.0,0.0,0.0,0.0,0.0,0.0,0.0,0.0,0.0,0.0,0.0,0.0,0.0,0.0,0.0,0.0,0.0,0.0,0.2155,0.2155,0.2155,0.2155,0.2155,0.2155,0.2155,0.2423,0.3094,0.0,0.0,0.0,0.0,0.0,0.0,0.0,0.0,0.0,0.0,0.0,0.0,0.0,0.0,0.0,0.0,0.0,0.0,0.0,0.0,0.0,0.0,0.0,0.0,0.0,0.0,0.0,0.0,0.0,0.0,0.0,0.0,0.0,0.0,0.0,0.0,0.0,0.0,0.0,0.0,0.0,0.0,0.0,0.0,0.0,0.0,0.0,0.0,0.0,0.0,0.0,0.0,0.0,0.0,0.0,0.0,0.0,0.0,0.0,0.0,0.0,0.0,0.0,0.0,0.0,0.0,0.0,0.0,0.0,0.0,0.0,0.0,0.0,0.0,0.0,0.0,0.0,0.0,0.0,0.0,0.0,0.0,0.0,0.0,0.0,0.0,0.0,0.0,0.0,0.0,0.0,0.0,0.0,0.0,0.0,0.0,0.0,0.0,0.0,0.0,0.0,0.0,0.2155,0.2155,0.2155,0.2155,0.2155,0.2155,0.2155,0.2155,0.269,0.3763,0.0,0.0,0.0,0.0,0.0,0.0,0.0,0.0,0.0,0.0,0.0,0.0,0.0,0.0,0.0,0.0,0.0,0.0,0.0,0.0,0.0,0.0,0.0,0.0,0.0,0.0,0.0,0.0,0.0,0.0,0.0,0.0,0.0,0.0,0.0,0.0,0.0,0.0,0.0,0.0,0.0,0.0,0.0,0.0,0.0,0.0,0.0,0.0,0.0,0.0,0.0,0.0,0.0,0.0,0.0,0.0,0.0,0.0,0.0,0.0,0.0,0.0,0.0,0.0,0.0,0.0,0.0,0.0,0.0,0.0,0.0,0.0,0.0,0.0,0.0,0.0,0.0,0.0,0.0,0.0,0.0,0.0,0.0,0.0,0.0,0.0,0.0,0.0,0.0,0.0,0.0,0.0,0.0,0.0,0.0,0.0,0.0,0.0,0.0,0.0,0.0,0.0,0.2155,0.2155,0.2155,0.2155,0.2155,0.2155,0.2155,0.2155,0.3094,0.0,0.0,0.0,0.0,0.0,0.0,0.0,0.0,0.0,0.0,0.0,0.0,0.0,0.0,0.0,0.0,0.0,0.0,0.0,0.0,0.0,0.0,0.0,0.0,0.0,0.0,0.0,0.0,0.0,0.0,0.0,0.0,0.0,0.0,0.0,0.0,0.0,0.0,0.0,0.0,0.0,0.0,0.0,0.0,0.0,0.0,0.0,0.0,0.0,0.0,0.0,0.0,0.0,0.0,0.0,0.0,0.0,0.0,0.0,0.0,0.0,0.0,0.0,0.0,0.0,0.0,0.0,0.0,0.0,0.0,0.0,0.0,0.0,0.0,0.0,0.0,0.0,0.0,0.0,0.0,0.0,0.0,0.0,0.0,0.0,0.0,0.0,0.0,0.0,0.0,0.0,0.0,0.0,0.0,0.0,0.0,0.0,0.0,0.0,0.0,0.0,0.0,0.0,0.2559,0.229,0.2163,0.2184,0.2187,0.2195,0.2217,0.2218,0.2772,0.3875,0.0,0.0,0.0,0.0,0.0,0.0,0.0,0.0,0.0,0.0,0.0,0.0,0.0,0.0,0.0,0.0,0.0,0.0,0.0,0.0,0.0,0.0,0.0,0.0,0.0,0.0,0.0,0.0,0.0,0.0,0.0,0.0,0.0,0.0,0.0,0.0,0.0,0.0,0.0,0.0,0.0,0.0,0.0,0.0,0.0,0.0,0.0,0.0,0.0,0.0,0.0,0.0,0.0,0.0,0.0,0.0,0.0,0.0,0.0,0.0,0.0,0.0,0.0,0.0,0.0,0.0,0.0,0.0,0.0,0.0,0.0,0.0,0.0,0.0,0.0,0.0,0.0,0.0,0.0,0.0,0.0,0.0,0.0,0.0,0.0,0.0,0.0,0.0,0.0,0.0,0.0,0.0,0.0,0.0,0.0,0.0,0.0,0.0,0.0,0.0,0.0,0.0,0.2716,0.2457,0.2198,0.2217,0.2218,0.2225,0.2244,0.2245,0.2664,0.392,0.0,0.0,0.0,0.0,0.0,0.0,0.0,0.0,0.0,0.0,0.0,0.0,0.0,0.0,0.0,0.0,0.0,0.0,0.0,0.0,0.0,0.0,0.0,0.0,0.0,0.0,0.0,0.0,0.0,0.0,0.0,0.0,0.0,0.0,0.0,0.0,0.0,0.0,0.0,0.0,0.0,0.0,0.0,0.0,0.0,0.0,0.0,0.0,0.0,0.0,0.0,0.0,0.0,0.0,0.0,0.0,0.0,0.0,0.0,0.0,0.0,0.0,0.0,0.0,0.0,0.0,0.0,0.0,0.0,0.0,0.0,0.0,0.0,0.0,0.0,0.0,0.0,0.0,0.0,0.0,0.0,0.0,0.0,0.0,0.0,0.0,0.0,0.0,0.0,0.0,0.0,0.0,0.0,0.0,0.0,0.0,0.0,0.0,0.0,0.0,0.0,0.0,0.2755,0.2368,0.2247,0.2249,0.2249,0.2251,0.2253,0.2253,0.2954,0.4628,0.0,0.0,0.0,0.0,0.0,0.0,0.0,0.0,0.0,0.0,0.0,0.0,0.0,0.0,0.0,0.0,0.0,0.0,0.0,0.0,0.0,0.0,0.0,0.0,0.0,0.0,0.0,0.0,0.0,0.0,0.0,0.0,0.0,0.0,0.0,0.0,0.0,0.0,0.0,0.0,0.0,0.0,0.0,0.0,0.0,0.0,0.0,0.0,0.0,0.0,0.0,0.0,0.0,0.0,0.0,0.0,0.0,0.0,0.0,0.0,-0.9472,-0.8742,0.0,0.0,0.0,0.0,0.0,0.0,0.0,0.0,0.0,0.0,0.0,0.0,0.0,0.0,0.0,0.0,0.0,0.0,0.0,0.0,0.0,0.0,0.0,0.0,0.0,0.0,0.0,0.0,0.0,0.0,0.0,0.0,0.0,0.0,0.0,0.0,0.0,0.0,0.0,0.0,0.3211,0.2661,0.2255,0.2278,0.2281,0.229,0.2312,0.2315,0.2602,0.3323,0.3467,0.0,0.0,0.0,0.0,0.0,0.0,0.0,0.0,0.0,0.0,0.0,0.0,0.0,0.0,0.0,0.0,0.0,0.0,0.0,0.0,0.0,0.0,0.0,0.0,0.0,0.0,0.0,0.0,0.0,0.0,0.0,0.0,0.0,0.0,0.0,0.0,0.0,0.0,0.0,0.0,0.0,0.0,0.0,0.0,0.0,0.0,0.0,0.0,0.0,0.0,0.0,0.0,0.0,0.0,0.0,0.0,0.0,0.0,0.0,-0.9901,-0.9181,0.0,0.0,0.0,0.0,0.0,0.0,0.0,0.0,0.0,0.0,0.0,0.0,0.0,0.0,0.0,0.0,0.0,0.0,0.0,0.0,0.0,0.0,0.0,0.0,0.0,0.0,0.0,0.0,0.0,0.0,0.0,0.0,0.0,0.0,0.0,0.0,0.0,0.0,0.0,0.0,0.3398,0.2705,0.2293,0.2309,0.2311,0.2318,0.2331,0.2333,0.2333,0.2624,0.2771,0.0,0.0,0.0,0.0,0.0,0.0,0.0,0.0,0.0,0.0,0.0,0.0,0.0,0.0,0.0,0.0,0.0,0.0,0.0,0.0,0.0,0.0,0.0,0.0,0.0,0.0,0.0,0.0,0.0,0.0,0.0,0.0,0.0,0.0,0.0,0.0,0.0,0.0,0.0,0.0,0.0,0.0,0.0,0.0,0.0,0.0,0.0,0.0,0.0,0.0,0.0,0.0,0.0,-1.085,-1.085,-1.0717,-1.0459,-1.0472,-1.0758,-1.0498,-0.9534,-0.8435,-0.8712,0.0,0.0,0.0,0.0,0.0,0.0,0.0,0.0,0.0,0.0,0.0,0.0,0.0,0.0,0.0,0.0,0.0,0.0,0.0,0.0,0.0,0.0,-0.5865,-0.5311,-0.6298,-0.6565,-0.4146,0.0,0.0,0.0,0.0,0.0,0.0,0.0,0.0,0.0,0.0,0.0,0.3301,0.2752,0.2333,0.2333,0.2333,0.2333,0.2333,0.2333,0.2333,0.2333,0.2624,0.2915,0.0,0.0,0.0,0.0,0.0,0.0,0.0,0.0,0.0,0.0,0.0,0.0,0.0,0.0,0.0,0.0,0.0,0.0,0.0,0.0,0.0,0.0,0.0,0.0,0.0,0.0,0.0,0.0,0.0,0.0,0.0,0.0,-1.2363,-1.1897,0.0,0.0,0.0,0.0,0.0,0.0,0.0,0.0,0.0,0.0,0.0,0.0,0.0,-1.0558,-1.069,-1.1108,-1.1115,-1.1115,-1.1115,-1.1115,-1.1115,-1.085,-1.0658,-1.0921,-1.0786,0.0,-0.9788,-0.8573,0.0,0.0,0.0,0.0,0.0,0.0,0.0,0.0,0.0,0.0,0.0,0.0,0.0,0.0,0.0,0.0,0.0,0.0,0.0,0.0,0.0,0.0,-0.9354,-0.7404,-0.7047,-0.6815,-0.4826,-0.4223,-0.3494,-0.1538,-0.1119,-0.0562,0.0,0.0,0.0,0.0,0.0,0.0,0.2909,0.2622,0.2333,0.2333,0.2333,0.2333,0.2333,0.2333,0.2333,0.2333,0.2333,0.3205,0.4799,0.3787,0.0,0.0,0.0,0.0,0.0,0.0,0.0,0.0,0.0,0.0,0.0,0.0,0.0,0.0,0.0,0.0,0.0,0.0,0.0,0.0,0.0,0.0,0.0,0.0,0.0,0.0,0.0,0.0,0.0,-1.2251,-1.2172,-1.1906,-1.1792,-1.1364,0.0,0.0,0.0,0.0,0.0,0.0,0.0,0.0,0.0,-1.03,-1.0041,-1.018,-1.0982,-1.1206,-1.1249,-1.098,-1.1198,-1.124,-1.124,-1.1104,-1.1002,-1.107,-1.107,-1.0893,-1.0697,-0.9869,-0.9325,-0.8916,0.0,0.0,0.0,0.0,-0.7815,-0.7952,-0.8911,-0.8944,-0.857,-0.9131,0.0,0.0,0.0,0.0,0.0,0.0,0.0,-0.5507,-0.6215,-0.6819,-0.7002,-0.6005,-0.5887,-0.5623,-0.476,-0.4453,-0.3861,-0.186,-0.1288,-0.0573,0.1444,0.2024,0.0,0.0,0.0,0.2917,0.2917,0.2478,0.2333,0.2333,0.2333,0.2333,0.2333,0.2333,0.2333,0.2333,0.2333,0.2622,0.3494,0.393,0.4944,0.0,0.0,0.0,0.0,0.0,0.0,0.0,0.0,0.0,0.0,0.0,0.0,0.0,0.0,0.0,0.0,0.0,0.0,0.0,0.0,0.0,0.0,0.0,0.0,0.0,0.0,0.0,0.0,-1.1963,-1.215,-1.2077,-1.1977,-1.1791,0.0,0.0,0.0,0.0,0.0,0.0,-0.8817,-0.8429,-0.8828,-1.0167,-0.9806,-1.0232,-1.1045,-1.1333,-1.1274,-1.1002,-1.1111,-1.1165,-1.1165,-1.1165,-1.1185,-1.1219,-1.1219,-1.1246,-1.1274,-1.0915,-1.0744,-1.0606,-1.0335,-1.0197,-1.0058,-1.0197,-1.0197,-1.0335,-1.0612,-1.077,-1.0803,-1.0803,-0.984,-0.8459,-0.8313,0.0,0.0,0.0,0.0,-0.5444,-0.5869,-0.5339,-0.4657,-0.4221,-0.4075,-0.393,-0.3639,-0.3348,-0.3057,-0.2037,-0.1601,-0.0873,0.1312,0.1896,0.0,0.2624,0.2771,0.2771,0.2771,0.2478,0.2333,0.2333,0.2333,0.2333,0.2333,0.2333,0.2333,0.2333,0.2333,0.2333,0.2333,0.3639,0.4654,0.5235,0.0,0.0,0.0,0.0,0.0,0.0,0.0,0.0,0.0,0.0,0.0,0.0,0.0,0.0,0.0,0.0,0.0,0.0,0.0,0.0,0.0,0.0,0.0,0.0,0.0,0.0,0.0,0.0,0.0,-1.2398,-1.2036,0.0,0.0,0.0,0.0,-0.9606,-0.9618,-1.0293,-1.1909,-1.1776,-1.1644,-1.1644,-1.1531,-1.1205,-1.0934,-1.1077,-1.1151,-1.1151,-1.1158,-1.1165,-1.1165,-1.1165,-1.124,-1.1382,-1.1382,-1.1463,-1.1572,-1.128,-1.0889,-1.0612,-1.0606,-1.0335,-1.0197,-1.0474,-1.0612,-1.0612,-1.1027,-1.126,-1.1382,-1.1382,-1.0179,-0.8683,-0.8683,-0.7386,0.0,0.0,-0.7246,-0.6094,-0.7539,-0.6532,-0.4654,-0.291,-0.2474,-0.2039,-0.0584,0.0,-0.0146,-0.1893,-0.2183,-0.1456,0.0875,0.0,0.1459,0.2187,0.2333,0.2333,0.2333,0.2333,0.2333,0.2333,0.2333,0.2333,0.2333,0.2333,0.2333,0.2333,0.2333,0.2333,0.2333,0.2333,0.335,0.5235,0.5235,0.0,0.0,0.0,0.0,0.0,0.0,0.0,0.0,0.0,0.0,0.0,0.0,0.0,0.0,0.0,0.0,0.0,0.0,0.0,0.0,0.0,0.0,0.0,0.0,0.0,0.0,0.0,0.0,-1.245,-1.2347,0.0,-1.1534,-1.1548,-1.1571,-1.1365,-1.1497,-1.1901,-1.2305,-1.2014,-1.1806,-1.1672,-1.1417,-1.1221,-1.1084,-1.1233,-1.1307,-1.1307,-1.1409,-1.1457,-1.1457,-1.1457,-1.1484,-1.1538,-1.1538,-1.1565,-1.1613,-1.1504,-1.1315,-1.1173,-1.1173,-1.1173,-1.1031,-1.1173,-1.1173,-1.1315,-1.1457,-1.1491,-1.1538,-1.1538,-1.1136,-1.0593,-1.0593,-0.9141,-0.7833,-0.8559,-0.7115,-0.5377,-0.4939,-0.4071,-0.291,-0.1166,-0.0875,-0.0729,-0.0146,0.0146,0.0,-0.0729,-0.0437,0.0292,0.1458,0.1605,0.175,0.2187,0.2333,0.2333,0.2333,0.2333,0.2333,0.2333,0.2333,0.2333,0.2333,0.2333,0.2333,0.2333,0.2333,0.2333,0.2333,0.2333,0.2624,0.3348,0.3348,0.4654,0.0,0.0,0.0,0.0,0.0,0.0,0.0,0.0,0.0,0.0,0.0,0.0,0.0,0.0,0.0,0.0,0.0,0.0,0.0,0.0,0.0,0.0,0.0,0.0,0.0,-1.2439,-1.2458,-1.2637,-1.2653,-1.2572,-1.2429,-1.2708,-1.2708,-1.2437,-1.2359,-1.2125,-1.1585,-1.161,-1.1424,-1.0879,-1.1158,-1.1379,-1.124,-1.1389,-1.147,-1.147,-1.1572,-1.1619,-1.1619,-1.1619,-1.1619,-1.1619,-1.1619,-1.1619,-1.1619,-1.1619,-1.1619,-1.1619,-1.1619,-1.1619,-1.1619,-1.1619,-1.1619,-1.1619,-1.1619,-1.1325,-1.0887,-1.0887,-1.0455,-1.0017,-1.0017,-0.9141,-0.8126,-0.8126,-0.6387,-0.4361,-0.3344,-0.2328,-0.1311,-0.0292,0.0,0.0,0.0,0.0,0.0146,0.0292,0.073,0.1168,0.1459,0.175,0.1895,0.2187,0.2333,0.2333,0.2333,0.2333,0.2333,0.2333,0.2333,0.2333,0.2333,0.277,0.2914,0.2333,0.277,0.2914,0.2333,0.277,0.3059,0.3059,0.3059,0.4075,0.6246,0.0,0.0,0.0,0.0,0.0,0.0,0.0,0.0,0.0,0.0,0.0,0.0,0.0,0.0,0.0,0.0,0.0,0.0,0.0,0.0,0.0,0.0,0.0,-1.3602,-1.2959,-1.2637,-1.2816,-1.284,-1.284,-1.284,-1.284,-1.284,-1.2848,-1.1926,-1.1063,-1.0245,-1.0665,-1.0467,-0.9354,-1.0888,-1.1537,-1.1255,-1.1402,-1.1476,-1.1476,-1.1619,-1.1619,-1.1619,-1.1619,-1.1619,-1.1476,-1.1476,-1.1476,-1.1476,-1.1476,-1.1476,-1.1476,-1.1476,-1.1476,-1.1476,-1.1476,-1.1476,-1.1476,-1.1476,-1.0455,-0.9291,-0.9291,-0.8271,-0.697,-0.697,-0.697,-0.697,-0.6825,-0.5229,-0.3344,-0.3344,-0.1748,0.0,0.0,0.0,0.0,0.0,0.0,0.0292,0.1022,0.0876,0.073,0.1168,0.1605,0.1895,0.2187,0.2333,0.0,0.2333,0.2333,0.2333,0.2333,0.2333,0.2333,0.2478,0.3932,0.4075,0.2478,0.393,0.4075,0.2478,0.393,0.4802,0.4802,0.4802,0.4802,0.4802,0.0,0.0,0.0,0.0,0.0,0.0,0.0,0.0,0.0,0.0,0.0,0.0,0.0,0.0,0.0,0.0,0.0,0.0,0.0,0.0,0.0,-1.3164,-1.2979,-1.2838,-1.2808,-1.2783,-1.2832,-1.284,-1.284,-1.284,-1.284,-1.2889,-1.3011,-1.144,-1.0419,-0.9973,-0.8992,-0.8072,-0.7508,-0.8031,-0.8371,-0.8227,-0.9419,-0.9873,-1.0017,-1.1038,-1.1619,-1.1619,-1.1619,-1.1038,-0.9873,-0.9873,-0.9291,-0.8275,-0.8275,-0.8275,-0.842,-0.9435,-0.9873,-0.9729,-0.8709,-0.8275,-0.8275,-0.8275,-0.7982,-0.7693,-0.7693,-0.7404,-0.697,-0.697,-0.5956,-0.4796,-0.4506,-0.291,-0.1312,-0.1021,-0.0438,0.0,0.0,0.0,0.0,0.0,0.0,0.0,0.0292,0.073,0.1167,0.1896,0.2041,0.2187,0.2333,0.2333,0.2333,0.2333,0.2333,0.277,0.3932,0.4075,0.4511,0.5667,0.6101,0.6246,0.5667,0.6101,0.6101,0.5667,0.6101,0.6391,0.6391,0.7408,0.7986,0.0,0.0,0.0,0.0,0.0,0.0,0.0,0.0,0.0,0.0,0.0,0.0,0.0,0.0,0.0,0.0,0.0,0.0,0.0,0.0,0.0,0.0,-1.3291,-1.3193,-1.2694,-1.2767,-1.284,-1.284,-1.284,-1.284,-1.284,-1.2905,-1.272,-1.2412,-1.1036,-0.9619,-0.8433,-0.7558,-0.6753,-0.5897,-0.7234,-0.7982,-0.7982,-0.9435,-1.0305,-1.0305,-1.1181,-1.1325,-1.0599,-1.0599,-0.9729,-0.8275,-0.8275,-0.7837,-0.697,-0.697,-0.697,-0.7115,0.0,0.0,0.0,0.0,-0.697,-0.697,-0.697,-0.6536,-0.6105,-0.6105,-0.5522,-0.509,-0.509,-0.4218,-0.3203,-0.2912,-0.1894,-0.073,-0.0292,-0.0146,0.0,0.0,0.0,0.0,0.0,0.0,0.0,0.0146,0.0584,0.0,0.1895,0.2187,0.2333,0.2333,0.2333,0.2333,0.2333,0.2333,0.2624,0.3641,0.3641,0.4366,0.596,0.668,0.0,0.0,0.0,0.7982,0.7982,0.7982,0.0,0.0,0.0,0.8997,0.8275,0.9873,0.0,0.0,1.1175,1.1763,0.0,0.0,0.0,0.0,0.0,0.0,0.0,0.0,0.0,0.0,0.0,0.0,0.0,0.0,0.0,0.0,-1.3358,-1.349,-1.2832,-1.284,-1.284,-1.284,-1.284,-1.2848,-1.2865,-1.3003,-1.2704,-1.1661,-1.0803,-0.9111,-0.6705,-0.6929,0.0,0.0,0.0,-0.8997,-0.8997,-1.0599,-1.1325,-1.1325,-1.1476,-1.0887,-0.9579,-0.9579,-0.8564,-0.697,-0.697,-0.6825,-0.6536,-0.6536,-0.6536,-0.6536,-0.668,-0.668,-0.6536,-0.6536,-0.6536,-0.6536,-0.6536,0.0,0.0,-0.4366,-0.3496,-0.2333,-0.2333,-0.2333,-0.2187,-0.1895,-0.1459,-0.1168,-0.0584,-0.0292,0.0,0.0,0.0,0.0,0.0,0.0,0.0146,0.0438,0.0584,0.0875,0.1604,0.2041,0.2187,0.2333,0.2333,0.2333,0.2333,0.2333,0.2333,0.2624,0.2768,0.0,0.5093,0.6684,0.7548,0.7548,0.8853,0.9579,0.9579,0.9579,0.9579,0.9579,0.9579,0.8853,0.7548,0.8853,0.9579,0.9579,1.0894,1.1619,0.0,0.0,0.0,0.0,0.0,0.0,0.0,0.0,0.0,0.0,0.0,0.0,0.0,0.0,0.0,-1.3744,-1.3358,-1.2964,-1.2832,-1.284,-1.284,-1.284,-1.284,-1.2889,-1.3027,-1.3076,-1.3078,-1.3237,-1.1615,-1.0278,-0.9672,-0.8256,-0.7115,-0.6536,-0.7115,-0.7404,-0.7404,-0.8997,-0.9723,-0.9723,-1.1038,0.0,-1.1181,-1.1181,-0.9579,-0.697,-0.697,-0.5522,-0.3203,-0.3203,-0.3203,-0.3348,-0.4657,-0.4366,-0.3203,-0.3203,-0.3203,-0.3203,-0.3203,-0.3059,-0.277,-0.277,-0.2624,-0.2333,-0.2333,-0.2333,0.0,-0.1459,-0.1314,-0.1022,-0.0292,0.0,0.0,0.0,0.0,0.0,0.0,0.0,0.0,0.0146,0.0584,0.1168,0.1313,0.1605,0.2041,0.2187,0.2333,0.2333,0.2333,0.2333,0.277,0.4075,0.538,0.668,0.8275,0.9873,1.0743,1.0743,1.1038,1.1181,1.1181,1.1181,1.1181,1.1181,1.1181,1.1038,1.0743,1.1038,1.1181,1.1181,1.1476,1.1619,0.0,0.0,0.0,0.0,0.0,0.0,0.0,0.0,0.0,0.0,0.0,-1.5714,-1.4539,0.0,-1.3744,-1.3358,-1.3095,-1.284,-1.284,-1.284,-1.284,-1.284,-1.2913,-1.3003,-1.3084,-1.3262,-1.3165,-1.278,-1.2009,-1.0934,-0.9856,-0.8703,-0.7837,-0.7255,-0.7837,-0.8131,-0.8131,-0.9723,-1.0455,-1.0455,-1.1181,-1.1181,-1.0455,-0.9579,-0.7986,-0.5815,-0.4944,-0.3785,-0.2333,-0.2333,-0.2333,-0.2333,-0.3205,-0.3059,-0.2333,-0.2333,-0.2333,-0.2333,-0.2333,-0.2333,-0.2333,-0.2333,-0.2333,-0.2333,-0.2333,-0.2333,-0.2187,-0.1605,-0.1313,-0.1022,-0.0438,-0.0146,0.0,0.0,0.0,0.0,0.0,0.0,0.0,0.0,0.0292,0.073,0.0876,0.1021,0.1459,0.2187,0.2333,0.2333,0.2333,0.2333,0.2624,0.335,0.4944,0.6105,0.6974,0.842,0.9579,1.0449,1.0455,1.0743,1.1619,1.1619,1.1619,1.1619,1.1619,1.1619,1.1619,1.1619,1.1619,1.1619,1.1619,1.1476,0.0,0.0,0.0,0.0,0.0,0.0,0.0,-1.7098,-1.6872,-1.6364,-1.6104,-1.5704,-1.466,-1.4137,-1.3744,-1.3227,-1.2972,-1.284,-1.284,-1.284,-1.2848,-1.2881,-1.3011,-1.3108,-1.3149,-1.3449,-1.3232,-1.2403,-1.2386,-1.1736,-1.0144,-0.9718,-0.9285,-0.841,-0.9285,-0.9867,-0.9723,-1.1038,-1.1619,-1.1619,-1.1619,-1.0894,-0.9723,-0.842,-0.6825,-0.5093,-0.3059,-0.2333,-0.2333,-0.2333,-0.2333,-0.2333,-0.2333,-0.2333,-0.2333,-0.2333,-0.2333,-0.2333,-0.2333,-0.2333,-0.2333,-0.2333,-0.2333,-0.2333,-0.2333,-0.2333,-0.2187,-0.1895,-0.1459,-0.1168,-0.073,-0.0292,0.0,0.0,0.0,0.0,0.0,0.0,0.0,0.0,0.0,0.0292,0.0584,0.073,0.1021,0.2041,0.2187,0.2187,0.2333,0.2333,0.2333,0.2333,0.3787,0.4802,0.5093,0.6246,0.7693,0.9147,0.9291,1.0017,1.1476,1.1476,1.1476,1.1476,1.1476,1.1332,1.1332,1.1332,1.1332,1.1332,1.1325,1.1188,-1.6752,-1.6431,-1.6844,-1.7771,-1.7289,-1.6921,0.0,-1.749,-1.7001,-1.6872,-1.6364,-1.6104,-1.6613,-1.5183,-1.4006,-1.4539,-1.3621,-1.284,-1.284,-1.284,-1.2897,-1.3043,-1.3084,-1.3157,-1.3327,-1.3522,-1.3568,-1.3713,-1.3745,-1.3468,-1.2888,-1.2745,-1.2466,-1.1756,-1.1756,-1.1756,-1.1325,-1.1476,-1.1619,-1.1619,-1.1619,-1.1476,-1.1325,-1.1181,-0.9435,-0.6536,-0.3639,-0.2333,-0.2333,-0.2333,-0.2333,-0.2333,-0.2333,-0.2333,-0.2333,-0.2333,-0.2333,-0.2333,-0.2333,-0.2333,-0.2333,-0.2333,-0.2333,-0.2333,-0.2333,-0.2333,-0.2187,-0.1895,-0.1459,-0.1168,-0.073,-0.0292,0.0,0.0,0.0,0.0,0.0,0.0,0.0,0.0,0.0292,0.0584,0.0584,0.0876,0.1313,0.175,0.1895,0.1895,0.2333,0.2333,0.2333,0.2333,0.3787,0.5235,0.668,0.697,0.7693,0.9147,0.9291,1.0017,1.1476,1.1332,1.1044,1.1044,1.075,1.0599,1.0599,1.0599,1.0599,1.0599,1.0311,1.0606,-1.5881,-1.582,-1.6404,-1.6919,-1.6702,-1.6653,-1.7307,-1.7183,-1.7001,-1.7001,-1.6742,-1.6353,-1.5834,-1.5443,-1.4791,-1.3884,-1.349,-1.3227,-1.2832,-1.284,-1.2897,-1.3076,-1.3189,-1.3327,-1.3514,-1.3693,-1.3823,-1.3896,-1.3904,-1.3753,-1.3325,-1.3182,-1.276,-1.2194,-1.1907,-1.1763,-1.1619,-1.1619,-1.1619,-1.1619,-1.1619,-1.1619,-1.1476,-0.9723,-0.7259,-0.4218,-0.2914,-0.2333,-0.2333,-0.2333,-0.2333,-0.2333,-0.2333,-0.2333,-0.2333,-0.2333,-0.2333,-0.2333,-0.2333,-0.2333,-0.2333,-0.2333,-0.2333,-0.2333,-0.2333,-0.2333,-0.2333,-0.2187,-0.1895,-0.1459,-0.1022,-0.0584,-0.0292,0.0,0.0,0.0,0.0,0.0,0.0,0.0,0.0146,0.0292,0.0292,0.0438,0.0584,0.1021,0.1313,0.1459,0.1605,0.1605,0.2041,0.2912,0.2768,0.3348,0.4796,0.4073,0.4218,0.5808,0.6825,0.7986,0.9435,1.0311,1.075,1.075,1.0599,1.0455,1.0455,1.0455,1.0455,1.0455,1.0311,1.0455,-1.5752,-1.5739,-1.6265,-1.6334,-1.6366,-1.6431,-1.6894,-1.7001,-1.7001,-1.7001,-1.6872,-1.6483,-1.5583,-1.5453,-1.4922,-1.3621,-1.349,-1.3358,-1.284,-1.284,-1.2921,-1.3141,-1.3287,-1.3465,-1.3693,-1.3831,-1.3904,-1.3904,-1.3904,-1.3753,-1.3468,-1.3182,-1.276,-1.2338,-1.2051,-1.1763,-1.1619,-1.1619,-1.1619,-1.1619,-1.1619,-1.1619,-1.1476,-0.8853,-0.6101,-0.3639,-0.3205,-0.277,-0.2333,-0.2333,-0.2333,-0.2333,-0.2333,-0.2333,-0.2333,-0.2333,-0.2333,-0.2333,-0.2333,-0.2333,-0.2333,-0.2333,-0.2333,-0.2333,-0.2333,-0.2333,-0.2333,-0.2333,-0.2041,-0.175,-0.1313,-0.0876,-0.0438,-0.0146,0.0,0.0,0.0,0.0,0.0,0.0,0.0,0.0,0.0,0.0,0.0146,0.0438,0.073,0.1022,0.1168,0.1168,0.1605,0.2766,0.1895,0.1605,0.2766,0.1895,0.1895,0.3344,0.4944,0.654,0.7982,0.9579,1.0311,1.0311,1.0167,1.0167,1.0167,1.0167,1.0167,1.0167,1.0167,1.0167,-1.72,-1.6975,-1.6785,-1.6653,-1.6484,-1.6431,-1.6894,-1.7001,-1.7001,-1.7001,-1.6494,-1.6234,-1.6872,-1.5313,-1.4137,-1.48,-1.3752,-1.2832,-1.284,-1.284,-1.297,-1.3319,-1.3368,-1.3506,-1.3855,-1.3896,-1.3904,-1.3904,-1.3904,-1.3904,-1.3904,-1.3468,-1.3182,-1.2753,-1.233,-1.2051,-1.1619,-1.1619,-1.1619,-1.1619,-1.1619,-1.1619,-1.1619,-1.0017,-0.842,-0.6825,-0.5235,-0.3787,-0.2333,-0.2333,-0.2333,-0.2333,-0.2333,-0.2333,-0.2333,-0.2333,-0.2333,-0.2333,-0.2333,-0.2333,-0.2333,-0.2333,-0.2333,-0.2333,-0.2333,-0.2333,-0.2333,-0.2333,-0.2041,-0.175,-0.1313,-0.0876,-0.0438,-0.0146,0.0,0.0,0.0,0.0,0.0,0.0,0.0,0.0,0.0,0.0,0.0,0.0,0.0,0.0292,0.1168,0.1168,0.1168,0.1314,0.1168,0.1168,0.1314,0.1168,0.1895,0.3344,0.4944,0.654,0.7982,0.9291,0.9879,0.9879,0.959,0.9302,0.9302,0.9302,0.9302,0.9302,0.9302,0.9302,-1.6635,-1.6253,-1.6025,-1.623,-1.6247,-1.6398,-1.671,-1.6894,-1.7001,-1.7001,-1.6483,-1.6104,-1.6234,-1.5704,-1.5052,-1.4399,-1.4277,-1.3884,-1.2972,-1.284,-1.297,-1.3327,-1.3368,-1.3514,-1.3863,-1.3904,-1.3904,-1.3904,-1.3904,-1.3761,-1.3468,-1.3325,-1.3182,-1.2753,-1.2474,-1.2194,-1.2051,-1.1763,-1.1619,-1.1619,-1.1619,-1.1038,-1.0017,-0.9579,-0.7842,-0.538,-0.4947,-0.3787,-0.2333,-0.2333,-0.2333,-0.2333,-0.2333,-0.2333,-0.2333,-0.2333,-0.2333,-0.2333,-0.2333,-0.2333,-0.2333,-0.2333,-0.2333,-0.2333,-0.2333,-0.2333,-0.2333,-0.2333,-0.2187,-0.2041,-0.1313,-0.1168,-0.0876,-0.0146,0.0,0.0,0.0,0.0,0.0,0.0,0.0,0.0,0.0,0.0,0.0,0.0,0.0,0.0146,0.0438,0.0438,0.0438,0.0438,0.0438,0.0438,0.0438,0.0438,0.0584,0.1166,0.3639,0.5238,0.5815,0.8136,0.9446,0.9446,0.9302,0.9302,0.9302,0.9302,0.9302,0.9302,0.9302,0.9302,-1.7455,-1.7103,-1.6831,-1.6605,-1.6619,-1.6739,-1.674,-1.684,-1.7001,-1.7001,-1.6613,-1.6224,-1.6104,-1.5974,-1.5574,-1.4137,-1.4277,-1.4146,-1.2964,-1.2889,-1.3035,-1.3336,-1.3425,-1.3579,-1.3872,-1.3904,-1.3904,-1.3904,-1.3904,-1.3761,-1.3468,-1.3325,-1.3182,-1.3039,-1.2617,-1.2338,-1.2194,-1.1907,-1.1763,-1.1619,-1.1763,-1.1181,-1.0161,-1.0161,-0.8714,-0.6395,-0.6395,-0.509,-0.3205,-0.3205,-0.277,-0.2333,-0.2333,-0.2333,-0.2333,-0.2333,-0.2333,-0.2333,-0.2333,-0.2333,-0.2333,-0.2333,-0.2333,-0.2333,-0.2333,-0.2333,-0.2333,-0.2333,-0.2333,-0.2187,-0.1605,-0.1313,-0.1022,-0.0438,-0.0146,0.0,0.0,0.0,0.0,0.0,0.0,0.0,0.0,0.0,0.0,0.0,0.0,0.0,0.0,0.0,0.0,0.0,0.0,0.0,0.0,0.0,0.0,0.0,0.2475,0.3785,0.3785,0.6833,0.843,0.843,0.9013,0.9302,0.9302,0.9302,0.9302,0.9302,0.9302,0.9302,-1.9448,-1.9319,-1.892,-1.7793,-1.7584,-1.7596,-1.697,-1.6957,-1.713,-1.713,-1.7001,-1.6742,-1.6104,-1.5974,-1.5453,-1.4137,-1.4006,-1.3613,-1.2964,-1.2986,-1.3165,-1.3352,-1.353,-1.3709,-1.3888,-1.3904,-1.3904,-1.3904,-1.3904,-1.3904,-1.3904,-1.3468,-1.3325,-1.3325,-1.3039,-1.2617,-1.2194,-1.2194,-1.2051,-1.1619,-1.2051,-1.2051,-1.1619,-1.1619,-1.0743,-0.9291,-0.9291,-0.7553,-0.4657,-0.4657,-0.3787,-0.2333,-0.2333,-0.2333,-0.2333,-0.2333,-0.2333,-0.2333,-0.2333,-0.2333,-0.2333,-0.2333,-0.2333,-0.2333,-0.2333,-0.2333,-0.2333,-0.2333,-0.2333,-0.2187,-0.1895,-0.1459,-0.1168,-0.073,-0.0292,0.0,0.0,0.0,0.0,0.0,0.0,0.0,0.0,0.0,0.0,0.0,0.0,0.0,0.0,0.0,0.0,0.0,0.0,0.0,0.0,0.0,0.0,0.0,0.1457,0.233,0.233,0.5235,0.6833,0.6833,0.843,0.9157,0.9157,0.9302,0.9302,0.9302,0.9302,0.9302,-1.9693,-1.8984,-1.8298,-1.8127,-1.8274,-1.8521,-1.8594,-1.8345,-1.815,-1.815,-1.6742,-1.5714,-1.6613,-1.5844,-1.5062,-1.467,-1.467,-1.4146,-1.2964,-1.2986,-1.3165,-1.3352,-1.353,-1.3709,-1.3888,-1.3904,-1.3904,-1.3904,-1.3904,-1.3904,-1.3904,-1.3761,-1.3761,-1.3761,-1.3325,-1.3182,-1.3047,-1.2481,-1.2338,-1.2474,-1.2338,-1.2338,-1.2474,-1.2474,-1.1456,-0.9723,-0.9723,-0.7842,-0.4657,-0.4657,-0.3787,-0.2333,-0.2333,-0.2333,-0.2333,-0.2333,-0.2333,-0.2333,-0.2333,-0.2333,-0.2333,-0.2333,-0.2333,-0.2333,-0.2333,-0.2333,-0.2333,-0.2333,-0.2333,-0.2187,-0.1895,-0.175,-0.1459,-0.0729,-0.0584,-0.0438,0.0,0.0,0.0,0.0,0.0,0.0,0.0,0.0,0.0,0.0,0.0,0.0,0.0,0.0,0.0,0.0,0.0,0.0,0.0,0.0,0.0,0.0,0.1457,0.233,0.233,0.4218,0.5238,0.5238,0.6833,0.7562,0.7562,0.8724,0.9302,0.9302,0.9302,0.9302,-2.0385,-1.9924,-1.9332,-1.91,-1.9298,-1.9485,-1.9242,-1.9175,-1.9176,-1.9176,-1.7765,-1.6613,-1.713,-1.6483,-1.5583,-1.5062,-1.4931,-1.4539,-1.349,-1.3185,-1.3254,-1.336,-1.3595,-1.379,-1.3896,-1.3904,-1.3904,-1.3904,-1.3904,-1.3904,-1.3904,-1.3904,-1.3904,-1.3904,-1.3611,-1.3468,-1.3325,-1.2904,-1.276,-1.2753,-1.276,-1.276,-1.2753,-1.2753,-1.2173,-1.1162,-1.1162,-0.9718,-0.7115,-0.6684,-0.5525,-0.4075,-0.3207,-0.335,-0.393,-0.3207,-0.3205,-0.3494,-0.3061,-0.2624,-0.2333,-0.2333,-0.2333,-0.2333,-0.2333,-0.2333,-0.2333,-0.2333,-0.2333,-0.2187,-0.2041,-0.1895,-0.175,-0.1167,-0.0875,-0.0584,-0.0292,-0.0146,0.0,0.0,0.0,0.0,0.0,0.0,0.0,0.0,0.0,0.0,0.0,0.0,0.0,0.0,0.0,0.0,0.0,0.0,0.0,0.0,0.0875,0.1311,0.1311,0.2766,0.3639,0.3639,0.5238,0.6253,0.6978,0.7851,0.8579,0.9302,0.9302,0.9302,-2.1203,-2.1203,-2.0974,-2.0155,-2.0351,-2.0523,-1.9728,-1.9897,-2.0284,-2.0322,-1.9431,-1.8407,-1.7893,-1.7389,-1.6613,-1.5453,-1.5192,-1.48,-1.4006,-1.3654,-1.3481,-1.3368,-1.3669,-1.3872,-1.3896,-1.3904,-1.3904,-1.3904,-1.3904,-1.3904,-1.3904,-1.3904,-1.3904,-1.3904,-1.3904,-1.3753,-1.3325,-1.3325,-1.3182,-1.2896,-1.3182,-1.3182,-1.2896,-1.2896,-1.2896,-1.2896,-1.2896,-1.1886,-1.0293,-0.9291,-0.7986,-0.6391,-0.4805,-0.5093,-0.6395,-0.4805,-0.4657,-0.5235,-0.4226,-0.3207,-0.2478,-0.2333,-0.2333,-0.2333,-0.2333,-0.2333,-0.2333,-0.2333,-0.2333,-0.2333,-0.2333,-0.2041,-0.1895,-0.175,-0.1167,-0.073,-0.0584,-0.0292,0.0,0.0,0.0,0.0,0.0,0.0,0.0,0.0,0.0,0.0,0.0,0.0,0.0,0.0,0.0,0.0,0.0,0.0,0.0,0.0,0.0,0.0,0.0,0.1311,0.2039,0.2039,0.3639,0.5093,0.6398,0.6833,0.7706,0.9013,0.9157,0.9302,-2.1203,-2.096,-2.0845,-2.0974,-2.1017,-2.1228,-2.1632,-2.123,-2.1051,-2.1308,-2.0068,-1.9036,-1.9559,-1.8407,-1.7378,-1.712,-1.6353,-1.5323,-1.4137,-1.3944,-1.3874,-1.3489,-1.3555,-1.3742,-1.3888,-1.3904,-1.3904,-1.3904,-1.3904,-1.3904,-1.3904,-1.3904,-1.3904,-1.3904,-1.3904,-1.3904,-1.3761,-1.3468,-1.3468,-1.3761,-1.3468,-1.3468,-1.3753,-1.3753,-1.3468,-1.3182,-1.3182,-1.2166,-1.0437,-1.0149,-0.9136,-0.7828,-0.7395,-0.7539,-0.7828,-0.7395,-0.6821,-0.6105,-0.596,-0.4805,-0.3209,-0.2478,-0.2333,-0.2333,-0.2333,-0.2333,-0.2333,-0.2333,-0.2333,-0.2333,-0.2333,-0.2187,-0.2187,-0.1895,-0.1459,-0.1022,-0.073,-0.0292,0.0,0.0,0.0,0.0,0.0,0.0,0.0,0.0,0.0,0.0,0.0,0.0,0.0,0.0,0.0,0.0,0.0,0.0,0.0,0.0,0.0,0.0,0.0,0.0292,0.0438,0.0438,0.1894,0.291,0.3056,0.567,0.7123,0.7412,0.8724,0.9302,-2.1203,-2.1089,-2.096,-2.1203,-2.1336,-2.1539,-2.2111,-2.204,-2.1973,-2.2298,-2.1335,-2.0449,-2.0843,-1.9814,-1.8664,-1.815,-1.7378,-1.6224,-1.466,-1.4183,-1.3975,-1.3489,-1.353,-1.3709,-1.3888,-1.3904,-1.3904,-1.3904,-1.3904,-1.3904,-1.3904,-1.3904,-1.3904,-1.3904,-1.3904,-1.3904,-1.3904,-1.3753,-1.3753,-1.3904,-1.3753,-1.3753,-1.3904,-1.3904,-1.3761,-1.3611,-1.3611,-1.3031,-1.2166,-1.1592,-1.0868,-1.0144,-0.9131,-0.9275,-1.0144,-0.9131,-0.8698,-0.8703,-0.8126,-0.6391,-0.4369,-0.393,-0.3059,-0.2333,-0.2333,-0.2333,-0.2333,-0.2333,-0.2333,-0.2333,-0.2333,-0.2333,-0.2187,-0.2041,-0.1605,-0.1022,-0.073,-0.0292,0.0,0.0,0.0,0.0,0.0,0.0,0.0,0.0,0.0,0.0,0.0,0.0,0.0,0.0,0.0,0.0,0.0,0.0,0.0,0.0,0.0,0.0,0.0,0.0,0.0,0.0,0.0729,0.1457,0.233,0.4654,0.6253,0.6978,0.8574,0.9302,-2.1203,-2.1203,-2.1203,-2.1203,-2.1408,-2.1701,-2.2096,-2.2359,-2.2637,-2.3032,-2.248,-2.1853,-2.1853,-2.1096,-2.0208,-1.9304,-1.8407,-1.712,-1.5443,-1.4668,-1.4066,-1.3481,-1.3498,-1.3669,-1.388,-1.3904,-1.3904,-1.3904,-1.3904,-1.3904,-1.3904,-1.3904,-1.3904,-1.3904,-1.3904,-1.3904,-1.3904,-1.3904,-1.3904,-1.3904,-1.3904,-1.3904,-1.3904,-1.3904,-1.3904,-1.3904,-1.3904,-1.3904,-1.3904,-1.2896,-1.261,-1.2459,-1.0868,-1.1155,-1.2316,-1.0862,-1.0718,-1.1155,-1.0287,-0.8266,-0.6101,-0.6101,-0.4364,-0.2333,-0.2333,-0.2333,-0.2333,-0.2333,-0.2333,-0.2333,-0.2333,-0.2333,-0.2333,-0.2188,-0.1751,-0.1022,-0.073,-0.0292,0.0,0.0,0.0,0.0,0.0,0.0,0.0,0.0,0.0,0.0,0.0,0.0,0.0,0.0,0.0,0.0,0.0,0.0,0.0,0.0,0.0,0.0,0.0,0.0,0.0,0.0,0.0,0.0583,0.1748,0.3348,0.4802,0.596,0.7557,0.8285,-2.1203,-2.1203,-2.1203,-2.1203,-2.1233,-2.1423,-2.2037,-2.2198,-2.2389,-2.2988,-2.2981,-2.2981,-2.2981,-2.2104,-2.1488,-2.1348,-1.9686,-1.7882,-1.6581,-1.5453,-1.4449,-1.3464,-1.3384,-1.353,-1.3872,-1.3904,-1.3904,-1.3904,-1.3904,-1.3904,-1.3904,-1.3904,-1.3904,-1.3904,-1.3904,-1.3904,-1.3904,-1.3904,-1.3904,-1.3904,-1.3904,-1.3904,-1.3904,-1.3904,-1.3904,-1.3904,-1.3904,-1.3904,-1.3904,-1.3761,-1.3761,-1.3753,-1.3611,-1.3611,-1.3753,-1.3611,-1.2888,-1.2029,-1.2029,-1.0581,-0.8987,-0.8987,-0.5953,-0.2333,-0.2333,-0.2333,-0.2333,-0.2333,-0.2333,-0.2333,-0.2333,-0.2333,-0.2188,-0.1898,-0.146,-0.1022,-0.073,-0.0292,0.0,0.0,0.0,0.0,0.0,0.0,0.0,0.0,0.0,0.0,0.0,0.0,0.0,0.0,0.0,0.0,0.0,0.0,0.0,0.0,0.0,0.0,0.0,0.0,0.0,0.0,0.0,0.0,0.0146,0.1748,0.2619,0.2765,0.4366,0.5093,-2.1203,-2.1203,-2.1203,-2.1203,-2.1203,-2.1379,-2.2037,-2.2184,-2.2359,-2.2974,-2.3106,-2.3106,-2.3106,-2.2731,-2.2355,-2.174,-2.0969,-1.9814,-1.8256,-1.7239,-1.6267,-1.5082,-1.456,-1.4187,-1.388,-1.3904,-1.3904,-1.3904,-1.3904,-1.3904,-1.3904,-1.3904,-1.3904,-1.3904,-1.3904,-1.3904,-1.3904,-1.3904,-1.3904,-1.3904,-1.3904,-1.3904,-1.3904,-1.3904,-1.3904,-1.3904,-1.3904,-1.3904,-1.3904,-1.3904,-1.3904,-1.3904,-1.3904,-1.3904,-1.3904,-1.3904,-1.3611,-1.3182,-1.3182,-1.1879,-1.0287,-1.0287,-0.8266,-0.5518,-0.4364,-0.3205,-0.2333,-0.2333,-0.2333,-0.2333,-0.2333,-0.2333,-0.2333,-0.2188,-0.1605,-0.1166,-0.1021,-0.0438,0.0,0.0,0.0,0.0,0.0,0.0,0.0,0.0,0.0,0.0,0.0,0.0,0.0,0.0,0.0,0.0,0.0,0.0,0.0,0.0,0.0,0.0,0.0,0.0,0.0,0.0,0.0,0.0,0.0,0.1603,0.233,0.233,0.393,0.4657,-2.1203,-2.1203,-2.1203,-2.1203,-2.1203,-2.1379,-2.2037,-2.2184,-2.2359,-2.2974,-2.3106,-2.3106,-2.3106,-2.3106,-2.2856,-2.2104,-2.1727,-2.1096,-1.9674,-1.8806,-1.7862,-1.6695,-1.5659,-1.5032,-1.4583,-1.4181,-1.3904,-1.3904,-1.3904,-1.3904,-1.3904,-1.3904,-1.3904,-1.3904,-1.3904,-1.3904,-1.3904,-1.3904,-1.3904,-1.3904,-1.3904,-1.3904,-1.3904,-1.3904,-1.3904,-1.3904,-1.3904,-1.3904,-1.3904,-1.3904,-1.3904,-1.3904,-1.3904,-1.3904,-1.3904,-1.3904,-1.3904,-1.3904,-1.3904,-1.3031,-1.1879,-1.1879,-1.0575,-0.8693,-0.7255,-0.5087,-0.3059,-0.2478,-0.2333,-0.2333,-0.2333,-0.2333,-0.2333,-0.2333,-0.1895,-0.1312,-0.1166,-0.0729,-0.0146,0.0,0.0,0.0,0.0,0.0,0.0,0.0,0.0,0.0,0.0,0.0,0.0,0.0,-0.0146,-0.0146,0.0,0.0,0.0,0.0,0.0,0.0,0.0,0.0,0.0,0.0,0.0,0.0,0.0,0.1021,0.1603,0.1603,0.2766,0.3348,-2.1203,-2.1203,-2.1203,-2.1203,-2.1203,-2.1379,-2.2037,-2.2184,-2.2359,-2.2974,-2.3106,-2.3106,-2.3106,-2.3106,-2.3106,-2.3106,-2.223,-2.1348,-2.0676,-1.9674,-1.8841,-1.8295,-1.6861,-1.5952,-1.6112,-1.475,-1.3904,-1.3904,-1.3904,-1.3904,-1.3904,-1.3904,-1.3904,-1.3904,-1.3904,-1.3904,-1.3904,-1.3904,-1.3904,-1.3904,-1.3904,-1.3904,-1.3904,-1.3904,-1.3904,-1.3904,-1.3904,-1.3904,-1.3904,-1.3904,-1.3904,-1.3904,-1.3904,-1.3904,-1.3904,-1.3904,-1.3904,-1.3904,-1.3904,-1.3904,-1.3896,-1.3896,-1.2602,-1.0868,-1.0437,-0.7982,-0.4799,-0.2914,-0.2333,-0.2333,-0.2333,-0.2333,-0.2333,-0.2333,-0.2041,-0.175,-0.1313,-0.0876,-0.0438,-0.0146,0.0,0.0,0.0,0.0,0.0,0.0,0.0,0.0,0.0,0.0,0.0,0.0,-0.0292,-0.0438,0.0,0.0,0.0,0.0,0.0,0.0,0.0,0.0,0.0,0.0,0.0,0.0,0.0,0.0,0.0,0.0,0.0,0.0,-2.1432,-2.1203,-2.1203,-2.1203,-2.1203,-2.132,-2.1759,-2.2023,-2.2301,-2.2696,-2.2959,-2.3106,-2.3106,-2.3106,-2.3106,-2.3106,-2.2856,-2.2606,-2.2341,-2.1638,-2.0799,-2.0042,-1.8642,-1.7697,-1.7707,-1.7317,-1.6987,-1.6987,-1.6987,-1.6987,-1.6987,-1.6987,-1.5999,-1.3904,-1.3904,-1.3904,-1.3904,-1.3904,-1.3904,-1.3904,-1.3904,-1.3904,-1.3904,-1.3904,-1.3904,-1.3904,-1.3904,-1.3904,-1.3904,-1.3904,-1.3904,-1.3904,-1.3904,-1.3904,-1.3904,-1.3904,-1.3904,-1.3904,-1.3904,-1.3904,-1.3904,-1.3904,-1.3468,-1.2745,-1.1299,-0.8987,-0.6387,-0.4506,-0.3203,-0.2333,-0.2333,-0.2333,-0.2333,-0.2333,-0.2041,-0.175,-0.1604,-0.1021,-0.0584,-0.073,-0.0584,-0.0438,-0.0438,-0.0438,-0.0292,0.0,-0.0292,-0.0438,-0.0438,-0.0584,-0.0876,-0.0876,-0.0876,-0.0876,-0.0438,-0.073,-0.0876,-0.0876,-0.0876,-0.073,-0.0438,-0.0438,-0.0292,0.0,0.0,0.0,0.0,0.0,0.0,0.0,0.0,0.0,-2.2862,-2.2199,-2.1873,-2.1873,-2.1546,-2.1291,-2.1628,-2.195,-2.2271,-2.2564,-2.2886,-2.3106,-2.3106,-2.3106,-2.3106,-2.3106,-2.3106,-2.3106,-2.3106,-2.2651,-2.2043,-2.0967,-2.0014,-1.9255,-1.8572,-1.8517,-1.8519,-1.8379,-1.8379,-1.8379,-1.8379,-1.8379,-1.7539,-1.5726,-1.5584,-1.5301,-1.4742,-1.4742,-1.4466,-1.3904,-1.3904,-1.3904,-1.3904,-1.3904,-1.3904,-1.3904,-1.3904,-1.3904,0.0,-1.3904,-1.3904,-1.3904,-1.3904,-1.3904,-1.3904,-1.3904,-1.3904,-1.3904,-1.3904,-1.3904,-1.3904,-1.3904,-1.3761,-1.3468,-1.2022,-0.9712,-0.7263,-0.596,-0.4805,-0.3939,-0.3354,-0.3209,-0.3063,-0.2478,-0.2187,-0.1895,-0.1895,-0.1459,-0.1022,-0.1168,-0.1022,-0.073,-0.0584,-0.073,-0.073,-0.0292,-0.0584,-0.0876,-0.0876,-0.1022,-0.1168,-0.1168,-0.1313,-0.1313,-0.1021,-0.1168,-0.1168,-0.1168,-0.1168,-0.1022,-0.0876,-0.0876,-0.073,-0.0438,-0.0292,-0.0292,-0.0292,-0.0146,0.0,0.0,0.0,0.0,0.0,-2.4078,-2.3087,-2.3087,-2.2312,-2.1506,-2.1817,-2.2157,0.0,-2.2657,-2.2995,-2.323,-2.3106,-2.3106,-2.3106,-2.3106,-2.3106,-2.3106,-2.3106,-2.3106,-2.258,-2.1173,-2.1172,-2.0699,-1.9084,-1.9037,-1.9055,-1.8798,-1.8798,-1.8798,-1.8659,-1.8659,-1.8659,-1.8659,-1.8659,-1.797,-1.6291,-1.6291,-1.5593,-1.4181,-1.4181,-1.4181,-1.4181,-1.4039,-1.4039,-1.4039,-1.3904,-1.3904,-1.3904,-1.3904,-1.3904,-1.3904,-1.3904,-1.3904,-1.3904,-1.3904,-1.3904,-1.3904,-1.3904,-1.3904,-1.3904,-1.3904,-1.3611,-1.3325,-1.2896,-1.0449,-0.7562,-0.7276,-0.7148,-0.6724,-0.5253,-0.4813,-0.4522,-0.3061,-0.2624,-0.2333,-0.204,-0.1896,-0.1752,-0.1314,-0.1314,-0.1168,-0.0729,-0.1022,-0.1168,-0.073,-0.1022,-0.1314,-0.1314,-0.1314,-0.1314,-0.1314,-0.1605,-0.1895,-0.1895,-0.1459,-0.1314,-0.1314,-0.1314,-0.1314,-0.1314,-0.1314,-0.1168,-0.1168,-0.0876,-0.0584,-0.0584,-0.0146,0.0,0.0,0.0,0.0,-2.7511,0.0,-2.4283,-2.4283,-2.4061,-2.3871,0.0,-2.4482,-2.4727,-2.3763,-2.4159,-2.4332,-2.323,-2.3106,-2.3106,-2.3106,-2.3106,-2.3106,-2.3106,-2.3106,-2.301,-2.2566,-2.2666,-2.26,-2.2295,-2.2325,-2.2321,-2.2271,-2.2284,-2.2147,-2.1885,-2.1885,-2.1885,-2.1885,-2.1885,-2.0617,-1.783,-1.7819,-1.7679,-1.7409,-1.7409,-1.7409,-1.7268,-1.615,-1.5593,-1.5452,-1.4324,-1.3904,-1.3904,-1.3904,-1.3904,-1.3904,-1.3904,-1.3904,-1.3904,-1.3904,-1.3904,-1.3904,-1.3904,-1.3904,-1.3904,-1.3904,-1.3904,-1.3761,-1.3325,-1.1449,-0.9285,-0.8842,-0.7837,-0.6974,-0.6517,-0.6524,-0.6395,-0.5949,-0.4939,-0.4073,-0.4075,-0.2914,-0.1895,-0.2041,-0.1895,-0.1604,-0.1604,-0.1604,-0.1459,-0.1168,-0.1459,-0.1604,-0.1604,-0.1895,-0.2041,-0.2041,-0.2187,-0.2187,-0.2187,-0.2041,-0.2041,-0.2041,-0.2041,-0.1895,-0.1604,-0.1604,-0.1459,-0.1168,-0.0876,-0.0438,-0.0146,0.0,0.0,0.0,0.0,0.0,-2.8301,-2.6952,-2.5516,-2.5516,-2.5058,-2.4727,-2.4727,-2.5309,-2.5741,-2.4944,-2.5403,-2.5562,-2.4209,-2.3976,-2.3852,-2.323,-2.3106,-2.3106,-2.3106,-2.3106,-2.3106,-2.3106,-2.3272,-2.3278,-2.3321,-2.3491,-2.3406,-2.3174,-2.3201,-2.312,-2.2859,-2.2859,-2.2859,-2.2859,-2.2859,-2.1747,-1.9367,-1.9367,-1.9089,-1.8379,-1.8379,-1.8379,-1.8379,-1.7549,-1.7127,-1.7127,-1.6282,-1.5584,-1.4884,-1.4884,-1.4466,-1.3904,-1.3904,-1.3904,-1.3904,-1.3904,-1.3904,-1.3904,-1.3904,-1.3904,-1.3904,-1.3904,-1.3904,-1.3753,-1.346,-1.2309,-1.1162,-1.0731,-0.9862,-0.8992,-0.8241,-0.8112,-0.7842,-0.7106,-0.6383,-0.5812,-0.5812,-0.4364,-0.3205,-0.335,-0.2622,-0.2041,-0.1895,-0.1895,-0.1895,-0.1459,-0.175,-0.2041,-0.2041,-0.2187,-0.2333,-0.2333,-0.2333,-0.2333,-0.2333,-0.2333,-0.2333,-0.2333,-0.2333,-0.2187,-0.2041,-0.2041,-0.1895,-0.1459,-0.1313,-0.0875,-0.0292,-0.0292,-0.0146,0.0,0.0,0.0,-2.8301,-2.7511,-2.6735,-2.6735,-2.5954,-2.5278,-2.5278,-2.5874,-2.6434,-2.6203,-2.671,-2.6883,-2.5684,-2.5439,-2.4949,-2.3604,-2.323,-2.3106,-2.3106,-2.3106,-2.3106,-2.3106,-2.3354,-2.3417,-2.3206,-2.3321,-2.3346,-2.2993,-2.2873,-2.2875,-2.2916,-2.2792,-2.2819,-2.2859,-2.2859,-2.2297,-2.0906,-2.0906,-2.034,-1.9077,-1.9077,-1.9077,-1.9077,-1.8798,-1.8798,-1.8659,-1.8519,-1.7689,-1.6433,-1.6433,-1.5726,-1.46,-1.4324,-1.4181,-1.4181,-1.4047,-1.3904,-1.3904,-1.3904,-1.3904,-1.3904,-1.3904,-1.3904,-1.3896,-1.3452,-1.3174,-1.276,-1.2345,-1.1914,-1.1325,-0.9994,-0.9718,-0.9296,-0.7977,-0.7544,-0.7404,-0.7404,-0.6105,-0.4947,-0.4802,-0.3641,-0.2478,-0.2041,-0.2041,-0.2187,-0.1895,-0.2187,-0.2333,-0.2333,-0.2333,-0.2333,-0.2333,-0.2333,-0.2333,-0.2333,-0.2333,-0.2333,-0.2333,-0.2333,-0.2333,-0.2333,-0.2333,-0.2187,-0.175,-0.175,-0.1458,-0.073,-0.073,-0.0438,-0.0146,-0.0146,0.0,-2.8301,-2.8174,-2.8067,-2.8067,-2.7853,-2.7726,-2.7726,-2.8377,-2.8766,-2.7596,-2.8002,-2.8206,-2.6883,-2.6658,-2.6294,-2.4949,-2.3852,-2.3106,-2.3106,-2.3106,-2.3106,-2.3106,-2.3149,-2.3296,-2.3446,-2.3505,-2.3536,-2.3463,-2.3098,-2.296,-2.2862,-2.262,-2.2605,-2.2859,-2.2859,-2.2722,-2.2585,-2.2585,-2.2448,-2.216,-2.216,-2.216,-2.216,-2.0906,-2.0213,-2.0201,-1.8938,-1.8239,-1.81,-1.81,-1.7959,-1.7539,-1.6291,-1.5726,-1.5593,-1.4324,-1.3904,-1.3904,-1.3904,-1.3904,-1.3904,-1.3904,-1.3904,-1.3904,-1.3896,-1.3476,-1.3197,-1.276,-1.2187,-1.1619,-1.1325,-1.1181,-1.1181,-1.0887,-0.9873,-0.8997,-0.8997,-0.7693,-0.6246,-0.4947,-0.4511,-0.3932,-0.2478,-0.2333,-0.2333,-0.2187,-0.2333,-0.2333,-0.2333,-0.2333,-0.2333,-0.2333,-0.2333,-0.2333,-0.2333,-0.2333,-0.2333,-0.2333,-0.2333,-0.2333,-0.2333,-0.2333,-0.2187,-0.175,-0.175,-0.1604,-0.1168,-0.1168,-0.0876,-0.0438,-0.0438,-0.0292,-2.8301,-2.8301,-2.834,-2.8574,-2.8633,-2.8691,-2.8926,-2.9453,-2.9789,-2.9089,-2.9467,-2.9549,-2.8325,-2.8086,-2.7366,-2.5439,-2.4579,-2.3976,-2.323,-2.3106,-2.3106,-2.3106,-2.3106,-2.3164,-2.3325,-2.3325,-2.3345,-2.3278,-2.2919,-2.2786,-2.296,-2.2443,-2.2459,-2.2876,-2.289,-2.2971,-2.3133,-2.3133,-2.3133,-2.2859,-2.2859,-2.2859,-2.2859,-2.216,-2.1885,-2.1747,-2.1183,-2.034,-1.9646,-1.9646,-1.9077,-1.8379,-1.7689,-1.6846,-1.5867,-1.4466,-1.3904,-1.3904,-1.3904,-1.3904,-1.3904,-1.3904,-1.3904,-1.3904,-1.3904,-1.3619,-1.319,-1.2896,-1.233,-1.1907,-1.1619,-1.1619,-1.1619,-1.1619,-1.1038,-1.0599,-1.0599,-0.9291,-0.7986,-0.7263,-0.5815,-0.4511,-0.3787,-0.2914,-0.2333,-0.2333,-0.2333,-0.2333,-0.2333,-0.2333,-0.2333,-0.2333,-0.2333,-0.2333,-0.2333,-0.2333,-0.2333,-0.2333,-0.2333,-0.2333,-0.2333,-0.2333,-0.2187,-0.2041,-0.2041,-0.1895,-0.1459,-0.1459,-0.1167,-0.0584,-0.0584,-0.0438,-2.8301,-2.8301,-2.8398,-2.8809,-2.8848,-2.8906,-2.9453,-2.9824,-3.0078,-3.0176,-3.0566,-3.0645,-2.953,-2.9157,-2.8325,-2.6277,-2.5806,-2.5071,-2.3713,-2.3604,-2.3479,-2.3106,-2.3106,-2.3106,-2.3106,-2.3106,-2.3083,-2.3076,-2.2851,-2.2722,-2.3032,-2.2408,-2.2413,-2.2965,-2.3048,-2.3199,-2.3433,-2.3365,-2.327,-2.2996,-2.2996,-2.2859,-2.2859,-2.2859,-2.2859,-2.2859,-2.2859,-2.216,-2.1183,-2.1183,-2.0479,-1.9367,-1.9089,-1.7819,-1.6009,-1.4768,-1.4198,-1.3904,-1.3904,-1.3904,-1.3904,-1.3904,-1.3904,-1.3904,-1.3904,-1.3611,-1.3325,-1.2896,-1.2617,-1.2194,-1.1763,-1.1619,-1.1619,-1.1619,-1.1619,-1.1619,-1.1619,-1.0599,-0.9723,-0.9435,-0.7408,-0.5528,-0.4802,-0.3641,-0.2768,-0.2333,-0.2333,-0.2333,-0.2333,-0.2333,-0.2333,-0.2333,-0.2333,-0.2333,-0.2333,-0.2333,-0.2333,-0.2333,-0.2333,-0.2333,-0.2333,-0.2333,-0.2333,-0.2333,-0.2333,-0.2187,-0.1895,-0.1895,-0.1604,-0.0875,-0.0875,-0.0584,-2.8301,-2.8301,-2.8398,-2.8809,-2.8633,-2.8555,-2.9375,-2.959,-2.9726,-3.0117,-3.0566,-3.0879,-3.0762,-2.9785,-2.8801,-2.8683,-2.7607,-2.6415,-2.5194,-2.4949,-2.4456,-2.323,-2.3106,-2.3106,-2.3106,-2.3106,-2.312,-2.3149,-2.2774,-2.2777,-2.3107,-2.2736,-2.2748,-2.2925,-2.335,-2.3504,-2.3532,-2.3405,-2.3406,-2.3406,-2.2996,-2.2859,-2.2859,-2.2859,-2.2859,-2.2859,-2.2859,-2.2859,-2.2722,-2.2722,-2.2722,-2.2448,-2.1044,-1.8648,-1.6122,-1.596,-1.5096,-1.3904,-1.3904,-1.3904,-1.3904,-1.3904,-1.3904,-1.3904,-1.3904,-1.3904,-1.3753,-1.3039,-1.2753,-1.261,-1.1763,-1.1619,-1.1619,-1.1619,-1.1619,-1.1619,-1.1619,-1.1476,-1.1038,-0.9579,-0.9147,-0.8131,-0.5238,-0.4657,-0.4078,-0.2478,-0.2333,-0.2333,-0.2333,-0.2333,-0.2333,-0.2333,-0.2333,-0.2333,-0.2333,-0.2333,-0.2333,-0.2333,-0.2333,-0.2333,-0.2333,-0.2333,-0.2333,-0.2333,-0.2333,-0.2333,-0.2333,-0.2333,-0.2041,-0.175,-0.175,-0.1312,-2.9411,-2.9211,-2.9361,-2.9388,-2.9113,-2.9124,-2.9766,-2.9961,-3.0098,-3.0527,-3.0762,-3.0898,-3.0898,-3.0528,-2.9903,-2.9039,-2.8444,-2.7727,-2.6399,-2.6294,-2.5806,-2.4456,-2.4332,-2.3976,-2.323,-2.3106,-2.3106,-2.3106,-2.2731,-2.2788,-2.303,-2.2539,-2.2553,-2.2992,-2.3249,-2.336,-2.3757,-2.3736,-2.3756,-2.3816,-2.3133,-2.2859,-2.2859,-2.2859,-2.2859,-2.2859,-2.2859,-2.2859,-2.2859,-2.2859,-2.2859,-2.2722,-2.122,-1.9288,-1.7354,-1.649,-1.5105,-1.3904,-1.3904,-1.3904,-1.3904,-1.3904,-1.3904,-1.3904,-1.3904,-1.3904,-1.3761,-1.3039,-1.2753,-1.261,-1.1763,-1.1619,-1.1619,-1.1619,-1.1619,-1.1619,-1.1619,-1.1619,-1.1469,-1.0887,-1.0017,-0.9002,-0.7697,-0.596,-0.4511,-0.3932,-0.2914,-0.2333,-0.2333,-0.2333,-0.2333,-0.2333,-0.2333,-0.2333,-0.2333,-0.2333,-0.2333,-0.2333,-0.2333,-0.2333,-0.2333,-0.2333,-0.2333,-0.2333,-0.2333,-0.2333,-0.2333,-0.2333,-0.2187,-0.175,-0.175,-0.1464,-3.1278,-3.1168,-3.1189,-3.053,-3.0308,-3.0267,-3.0379,-3.0211,-3.0176,-3.0762,-3.0898,-3.0898,-3.0898,-3.0898,-3.0645,-2.9667,-2.953,-2.9057,-2.7727,-2.7607,-2.7125,-2.5806,-2.5684,-2.5317,-2.4456,-2.4332,-2.4209,-2.3728,-2.3479,-2.3355,-2.3106,-2.2606,-2.258,-2.3047,-2.3163,-2.3465,-2.3998,-2.398,-2.4046,-2.4088,-2.3543,-2.3133,-2.2859,-2.2859,-2.2859,-2.2859,-2.2859,-2.2859,-2.2859,-2.2859,-2.2859,-2.2859,-2.1772,-2.0371,-1.8958,-1.7359,-1.5827,-1.4591,-1.4039,-1.3904,-1.3904,-1.3904,-1.3904,-1.3904,-1.3904,-1.3904,-1.3761,-1.3039,-1.2753,-1.261,-1.1763,-1.1619,-1.1619,-1.1619,-1.1619,-1.1619,-1.1619,-1.1619,-1.1619,-1.1619,-1.0743,-0.9873,-0.9435,-0.7553,-0.5815,-0.4802,-0.3787,-0.2914,-0.2333,-0.2333,-0.2333,-0.2333,-0.2333,-0.2333,-0.2333,-0.2333,-0.2333,-0.2333,-0.2333,-0.2333,-0.2333,-0.2333,-0.2333,-0.2333,-0.2333,-0.2333,-0.2333,-0.2333,-0.2192,-0.2053,-0.2053,-0.1772,-3.3915,-3.3997,-3.3704,-3.2534,-3.2233,-3.1927,-3.091,-3.0108,-2.9824,-3.0703,-3.0898,-3.0898,-3.0898,-3.0898,-3.0898,-3.0898,-3.0898,-3.0392,-2.9157,-2.892,-2.8444,-2.7142,-2.7021,-2.7021,-2.7021,-2.7021,-2.6537,-2.5194,-2.5071,-2.4579,-2.323,-2.3106,-2.3106,-2.3106,-2.3427,-2.3749,-2.4086,-2.3998,-2.418,-2.4495,-2.4088,-2.3679,-2.2859,-2.2859,-2.2859,-2.2859,-2.2859,-2.2859,-2.2859,-2.2859,-2.2859,-2.2859,-2.2859,-2.1932,-2.0472,-1.9019,-1.743,-1.5971,-1.4457,-1.3896,-1.3896,-1.3904,-1.3904,-1.3904,-1.3904,-1.3904,-1.3761,-1.3039,-1.2753,-1.261,-1.1763,-1.1619,-1.1619,-1.1619,-1.1619,-1.1619,-1.1619,-1.1619,-1.1619,-1.1619,-1.1619,-1.1181,-0.9579,-0.9291,-0.8275,-0.5238,-0.4657,-0.4075,-0.2478,-0.2333,-0.2333,-0.2333,-0.2333,-0.2333,-0.2333,-0.2333,-0.2333,-0.2333,-0.2333,-0.2333,-0.2333,-0.2333,-0.2333,-0.2333,-0.2333,-0.2333,-0.2333,-0.2333,-0.2349,-0.2378,-0.2379,-0.2246,-3.5165,-3.5057,-3.4967,-3.4092,-3.4111,-3.3832,-3.2585,-3.1878,-3.1758,-3.2125,-3.146,-3.0898,-3.0898,-3.0898,-3.0898,-3.0898,-3.0898,-3.0762,-3.0392,-3.0274,-2.9785,-2.8444,-2.8325,-2.7966,-2.7142,-2.7021,-2.69,-2.6399,-2.5562,-2.4949,-2.4579,-2.3604,-2.3106,-2.3106,-2.3208,-2.3515,-2.4071,-2.4042,-2.4232,-2.4495,-2.4467,-2.406,-2.3679,-2.3679,-2.3707,-2.3598,-2.342,-2.3447,-2.3639,-2.3324,-2.316,-2.2859,-2.2859,-2.1932,-2.0585,-2.0133,-1.8993,-1.7467,-1.599,-1.5452,-1.531,-1.4181,-1.3904,-1.3904,-1.3904,-1.3904,-1.3761,-1.3039,-1.2753,-1.261,-1.1763,-1.1619,-1.1619,-1.1619,-1.1619,-1.1619,-1.1619,-1.1619,-1.1619,-1.1619,-1.1619,-1.1476,-1.1038,-1.0017,-0.8564,-0.668,-0.538,-0.4075,-0.2478,-0.2333,-0.2333,-0.2333,-0.2333,-0.2333,-0.2333,-0.2333,-0.2333,-0.2333,-0.2333,-0.2333,-0.2333,-0.2333,-0.2333,-0.2333,-0.2333,-0.2333,-0.2333,-0.2354,-0.2369,-0.2379,-0.2401,-0.2427,-3.7263,-3.7156,-3.7086,-3.6117,-3.6047,-3.594,-3.4863,-3.3236,-3.2014,-3.1957,-3.146,-3.0898,-3.0898,-3.0898,-3.0898,-3.0898,-3.0898,-3.0898,-3.0898,-3.0898,-3.0645,-2.9785,-2.9648,-2.9412,-2.8582,-2.8582,-2.8343,-2.7847,-2.7004,-2.6399,-2.5928,-2.4579,-2.3837,-2.3837,-2.3355,-2.3384,-2.4098,-2.4069,-2.4291,-2.4781,-2.4752,-2.4617,-2.4374,-2.4116,-2.3994,-2.4008,-2.3735,-2.3735,-2.3735,-2.3475,-2.3174,-2.2859,-2.2859,-2.2382,-2.1483,-2.078,-2.0074,-1.9022,-1.7529,-1.6574,-1.6009,-1.5026,-1.4324,-1.3904,-1.3904,-1.3904,-1.3753,-1.3182,-1.2896,-1.261,-1.2051,-1.1763,-1.1619,-1.1619,-1.1619,-1.1619,-1.1619,-1.1619,-1.1619,-1.1619,-1.1619,-1.1619,-1.1619,-1.0887,-0.9723,-0.8131,-0.6105,-0.4075,-0.2478,-0.2333,-0.2333,-0.2333,-0.2333,-0.2333,-0.2333,-0.2333,-0.2333,-0.2333,-0.2333,-0.2333,-0.2333,-0.2333,-0.2333,-0.2333,-0.2333,-0.2338,-0.235,-0.2369,-0.2391,-0.2414,-0.2433,-0.2458,-3.9594,-3.9697,-3.9465,-3.8372,-3.795,-3.7737,-3.718,-3.4314,-3.1556,-3.1344,-3.0995,-3.0898,-3.0898,-3.0898,-3.0898,-3.0898,-3.0898,-3.0898,-3.0898,-3.0898,-3.0898,-3.0898,-3.0898,-3.0898,-3.0898,-3.0898,-3.0392,-2.9176,-2.892,-2.8444,-2.7263,-2.5928,-2.5194,-2.5056,-2.3961,-2.3562,-2.4134,-2.4054,-2.4496,-2.5052,-2.5052,-2.5052,-2.5052,-2.4417,-2.413,-2.4102,-2.405,-2.3871,-2.3474,-2.3434,-2.3311,-2.2996,-2.2859,-2.2859,-2.2722,-2.137,-2.0804,-2.0629,-1.9077,-1.7689,-1.6433,-1.615,-1.5168,-1.4039,-1.3904,-1.3904,-1.3753,-1.3468,-1.3039,-1.2753,-1.2338,-1.1907,-1.1619,-1.1619,-1.1619,-1.1619,-1.1619,-1.1619,-1.1619,-1.1619,-1.1619,-1.1619,-1.1619,-1.1619,-1.1038,-0.9579,-0.6829,-0.4366,-0.2768,-0.2478,-0.2478,-0.2333,-0.2333,-0.2333,-0.2333,-0.2333,-0.2334,-0.2337,-0.2337,-0.2338,-0.2341,-0.2335,-0.2334,-0.2337,-0.2337,-0.2352,-0.2383,-0.2386,-0.2414,-0.2469,-0.2472,-0.2488,-3.9697,-3.9697,-3.9594,-3.9362,-3.8607,-3.7737,-3.718,-3.5749,-3.4314,-3.3776,-3.2227,-3.0898,-3.0898,-3.0898,-3.0898,-3.0898,-3.0898,-3.0898,-3.0898,-3.0898,-3.0898,-3.0898,-3.0898,-3.0898,-3.0898,-3.0898,-3.0762,-3.0509,-2.953,-2.8801,-2.8564,-2.7246,-2.6139,-2.5098,-2.4869,-2.4487,-2.4124,-2.4044,-2.4501,-2.5052,-2.5052,-2.5052,-2.5052,-2.4931,-2.4631,-2.4452,-2.4781,-2.4481,-2.3854,-2.3871,-2.3612,-2.327,-2.2996,-2.2859,-2.2859,-2.2598,-2.2448,-2.216,-2.0629,-1.9935,-1.9228,-1.6856,-1.5877,-1.5452,-1.4181,-1.3904,-1.3753,-1.3468,-1.3039,-1.2753,-1.2338,-1.1907,-1.1619,-1.1619,-1.1619,-1.1619,-1.1619,-1.1619,-1.1619,-1.1619,-1.1619,-1.1619,-1.1619,-1.1619,-1.1038,-0.9579,-0.7693,-0.5956,-0.4366,-0.4221,-0.3641,-0.2478,-0.2333,-0.2333,-0.2333,-0.2333,-0.2343,-0.2367,-0.2368,-0.2379,-0.2403,-0.2358,-0.2343,-0.2368,-0.2368,-0.2383,-0.2414,-0.2438,-0.2457,-0.247,-0.2493,-0.2508,-4.0149,-4.0099,-4.0023,-3.9747,-3.9258,-3.8607,-3.808,-3.6965,-3.5968,-3.5333,-3.3776,-3.2457,-3.1903,-3.1787,-3.1556,-3.0995,-3.0898,-3.0898,-3.0898,-3.0898,-3.0898,-3.0898,-3.0898,-3.0898,-3.0898,-3.0898,-3.0898,-3.0898,-3.0274,-2.9903,-2.9903,-2.8618,-2.7642,-2.6987,-2.6494,-2.587,-2.5015,-2.5227,-2.5302,-2.5052,-2.5052,-2.5052,-2.5052,-2.5052,-2.5037,-2.4738,-2.5037,-2.4738,-2.4274,-2.4224,-2.398,-2.3406,-2.327,-2.2996,-2.2859,-2.2859,-2.2859,-2.2722,-2.2022,-2.1183,-2.0352,-1.8809,-1.7268,-1.6009,-1.5168,-1.4466,-1.3904,-1.3611,-1.3325,-1.2896,-1.2617,-1.2194,-1.1907,-1.1619,-1.1619,-1.1619,-1.1619,-1.1619,-1.1619,-1.1619,-1.1619,-1.1619,-1.1619,-1.1619,-1.1038,-0.9579,-0.8564,-0.7548,-0.596,-0.5093,-0.4376,-0.3524,-0.2794,-0.236,-0.2375,-0.2376,-0.2383,-0.2399,-0.2399,-0.2408,-0.2423,-0.2393,-0.2384,-0.2399,-0.2399,-0.2414,-0.2446,-0.2461,-0.2476,-0.2491,-0.2507,-0.2514,-4.0777,-4.0651,-4.0551,-4.0099,-3.9973,-3.9869,-3.9241,-3.8345,-3.7439,-3.6828,-3.54,-3.4,-3.2913,-3.2685,-3.2342,-3.1112,-3.0898,-3.0898,-3.0898,-3.0898,-3.0898,-3.0898,-3.0898,-3.0898,-3.0898,-3.0898,-3.0898,-3.0898,-3.0898,-3.0898,-3.0898,-2.9861,-2.9268,-2.8993,-2.8445,-2.7407,-2.6129,-2.644,-2.6163,-2.5052,-2.5052,-2.5052,-2.5052,-2.5052,-2.5052,-2.5052,-2.5052,-2.4902,-2.4588,-2.4588,-2.406,-2.3543,-2.3406,-2.3133,-2.2859,-2.2859,-2.2859,-2.2859,-2.2859,-2.2022,-2.0906,-2.0629,-1.8949,-1.6856,-1.6574,-1.5584,-1.46,-1.4324,-1.4039,-1.3611,-1.2896,-1.2474,-1.2051,-1.1763,-1.1619,-1.1619,-1.1619,-1.1619,-1.1619,-1.1619,-1.1619,-1.1619,-1.1619,-1.1619,-1.1188,-0.9902,-0.9757,-0.9184,-0.7597,-0.629,-0.5293,-0.4758,-0.3576,-0.2695,-0.2421,-0.2424,-0.2425,-0.2431,-0.2431,-0.2433,-0.2439,-0.2439,-0.2439,-0.2439,-0.2433,-0.2446,-0.2477,-0.2477,-0.2489,-0.2514,-0.2514,-0.2514,-4.1254,-4.1229,-4.1204,-4.1128,-4.1128,-4.0914,-4.0375,-4.0158,-3.9685,-3.8683,-3.631,-3.4,-3.2913,-3.2685,-3.2342,-3.1112,-3.0898,-3.0898,-3.0898,-3.0898,-3.0898,-3.0898,-3.0898,-3.0898,-3.0898,-3.0898,-3.0898,-3.0898,-3.0898,-3.0898,-3.0898,-3.1093,-3.0665,-2.9578,-2.971,-2.8751,-2.664,-2.6666,-2.6163,-2.5052,-2.5052,-2.5052,-2.5052,-2.5052,-2.5052,-2.5052,-2.5052,-2.5052,-2.5052,-2.4645,-2.4238,-2.3816,-2.3543,-2.3133,-2.2859,-2.2859,-2.2859,-2.2859,-2.2859,-2.2722,-2.2297,-2.1044,-2.0352,-1.9785,-1.853,-1.7959,-1.7549,-1.615,-1.5584,-1.4875,-1.3174,-1.2474,-1.2051,-1.1763,-1.1619,-1.1619,-1.1619,-1.1619,-1.1619,-1.1619,-1.1619,-1.1619,-1.1619,-1.1619,-1.1516,-1.1491,-1.1504,-1.0957,-0.9579,-0.9148,-0.7954,-0.5121,-0.467,-0.3922,-0.2574,-0.2424,-0.2435,-0.2461,-0.2463,-0.2474,-0.2502,-0.2502,-0.2502,-0.2502,-0.2476,-0.2478,-0.2508,-0.2508,-0.251,-0.2514,-0.2514,-0.2514,-4.1882,-4.158,-4.1329,-4.1329,-4.1329,-4.1114,-4.0597,-4.0488,-4.0305,-3.9406,-3.8264,-3.6786,-3.5002,-3.4692,-3.4022,-3.2227,-3.1903,-3.1672,-3.1015,-3.0898,-3.0898,-3.0898,-3.0898,-3.0976,-3.1211,-3.125,-3.1348,-3.1582,-3.1603,-3.1643,-3.1643,-3.1838,-3.1659,-3.1054,-3.1479,-3.0736,-2.9007,-2.8428,-2.7113,-2.5052,-2.5052,-2.5052,-2.5052,-2.5052,-2.5052,-2.5052,-2.5052,-2.5052,-2.5052,-2.466,-2.4238,-2.3952,-2.3543,-2.3133,-2.2859,-2.2859,-2.2859,-2.2859,-2.2859,-2.2859,-2.2722,-2.216,-2.1333,-2.0491,-1.9785,-1.9089,-1.8239,-1.7549,-1.6705,-1.5584,-1.4307,-1.3317,-1.233,-1.1763,-1.1619,-1.1619,-1.1619,-1.1619,-1.1619,-1.1619,-1.1619,-1.1647,-1.1721,-1.1735,-1.1789,-1.1938,-1.1959,-1.1682,-1.1145,-1.0243,-0.9216,-0.7764,-0.6097,-0.4591,-0.3856,-0.2936,-0.248,-0.2493,-0.2495,-0.25,-0.2514,-0.2514,-0.2514,-0.2514,-0.2502,-0.2502,-0.2514,-0.2514,-0.2514,-0.2514,-0.2514,-0.2514,-4.2484,-4.2057,-4.1756,-4.1756,-4.1756,-4.1538,-4.1016,-4.0906,-4.0746,-3.9937,-3.9801,-3.9292,-3.7356,-3.6841,-3.5825,-3.3476,-3.3016,-3.2574,-3.1446,-3.1211,-3.1211,-3.1211,-3.1211,-3.1348,-3.166,-3.168,-3.1797,-3.2191,-3.2155,-3.2256,-3.2157,-3.2351,-3.2351,-3.2316,-3.2754,-3.2264,-3.0935,-2.9739,-2.8105,-2.6183,-2.6183,-2.6111,-2.6115,-2.5816,-2.5547,-2.5547,-2.5307,-2.5052,-2.5052,-2.4645,-2.436,-2.3952,-2.3543,-2.3133,-2.2859,-2.2859,-2.2859,-2.2859,-2.2859,-2.2859,-2.2859,-2.2859,-2.216,-2.1183,-2.1183,-2.0479,-1.9495,-1.9077,-1.811,-1.6987,-1.599,-1.4867,-1.3737,-1.261,-1.218,-1.2043,-1.1619,-1.1647,-1.1674,-1.1674,-1.1701,-1.1769,-1.187,-1.1891,-1.1945,-1.2094,-1.2121,-1.2135,-1.2169,-1.1101,-1.0224,-0.9862,-0.7714,-0.6045,-0.5633,-0.4079,-0.314,-0.314,-0.2671,-0.2514,-0.2514,-0.2514,-0.2514,-0.2514,-0.2514,-0.2514,-0.2514,-0.2514,-0.2514,-0.2514,-0.2514,-0.2514,-4.2936,-4.2911,-4.2886,-4.2886,-4.2886,-4.2774,-4.2125,-4.2037,-4.1638,-4.0564,-4.0355,-4.0186,-3.9522,-3.8465,-3.6973,-3.4421,-3.4066,-3.3612,-3.2332,-3.2109,-3.2109,-3.2109,-3.2109,-3.2109,-3.2129,-3.2129,-3.2172,-3.2216,-3.2196,-3.2256,-3.221,-3.2504,-3.2754,-3.2749,-3.3194,-3.2738,-3.128,-2.9889,-2.9108,-2.8968,-2.8968,-2.9008,-2.8986,-2.7571,-2.701,-2.6877,-2.5667,-2.5052,-2.5052,-2.4645,-2.436,-2.3952,-2.3543,-2.3133,-2.2859,-2.2859,-2.2859,-2.2859,-2.2859,-2.2859,-2.2859,-2.2859,-2.2859,-2.2722,-2.2722,-2.2722,-2.2297,-2.0906,-2.0491,-1.9924,-1.8089,-1.7388,-1.6554,-1.4716,-1.4014,-1.3317,-1.19,-1.1728,-1.1823,-1.1823,-1.1938,-1.204,-1.2047,-1.2047,-1.2101,-1.2257,-1.2277,-1.2325,-1.2461,-1.2481,-1.1702,-1.0153,-0.9842,-0.9066,-0.7513,-0.5796,-0.4857,-0.4857,-0.3452,-0.2514,-0.2514,-0.2514,-0.2514,-0.2514,-0.2514,-0.2514,-0.2514,-0.2514,-0.2514,-0.2514,-0.2514,-0.2514,-4.2986,-4.2986,-4.2986,-4.2986,-4.2874,-4.2538,-4.2224,-4.1972,-4.1558,-4.1046,-4.0908,-4.0836,-4.0643,-3.9706,-3.8447,-3.6697,-3.6467,-3.5773,-3.3674,-3.3455,-3.3095,-3.2289,-3.2168,-3.2285,-3.2539,-3.2623,-3.2701,-3.2956,-3.2976,-3.2917,-3.3006,-3.3149,-3.3139,-3.3233,-3.3272,-3.2758,-3.128,-3.0809,-3.0152,-2.9186,-2.9177,-2.9198,-2.9117,-2.8689,-2.841,-2.841,-2.7932,-2.6769,-2.5052,-2.4374,-2.4102,-2.3952,-2.327,-2.2996,-2.2859,-2.2859,-2.2859,-2.2859,-2.2859,-2.2859,-2.2859,-2.2859,-2.2859,-2.2859,-2.2859,-2.2859,-2.2722,-2.216,-2.1333,-2.0352,-1.9495,-1.8508,-1.7147,-1.5015,-1.4339,-1.3657,-1.2171,-1.1864,-1.1864,-1.1959,-1.2026,-1.2094,-1.2189,-1.221,-1.2257,-1.2406,-1.2427,-1.244,-1.2494,-1.2501,-1.2347,-1.1721,-1.094,-1.0003,-0.9226,-0.7816,-0.6881,-0.6577,-0.5016,-0.4077,-0.4077,-0.314,-0.2514,-0.2514,-0.2514,-0.2514,-0.2514,-0.2514,-0.2514,-0.2514,-0.2514,-0.2514,-4.2986,-4.2986,-4.2986,-4.2986,-4.2737,-4.2425,-4.2224,-4.1859,-4.1492,-4.1287,-4.1172,-4.1172,-4.1172,-4.0619,-3.9777,-3.8481,-3.8229,-3.7537,-3.5423,-3.4826,-3.4245,-3.3416,-3.2824,-3.2695,-3.2988,-3.3054,-3.3172,-3.3398,-3.3418,-3.3418,-3.3418,-3.3418,-3.3418,-3.3418,-3.3418,-3.2922,-3.1954,-3.1954,-3.1589,-3.0628,-3.0628,-3.0552,-3.0549,-3.016,-2.99,-2.99,-2.9378,-2.7949,-2.5712,-2.5022,-2.4495,-2.3966,-2.3133,-2.2859,-2.2859,-2.2859,-2.2859,-2.2859,-2.2859,-2.2859,-2.2859,-2.2859,-2.2859,-2.2859,-2.2859,-2.2859,-2.2859,-2.2859,-2.216,-2.1321,-2.1044,-1.9831,-1.8107,-1.6692,-1.5206,-1.4,-1.314,-1.2501,-1.2013,-1.2115,-1.2176,-1.2244,-1.2345,-1.2359,-1.2393,-1.2488,-1.2501,-1.2501,-1.2501,-1.2656,-1.2656,-1.2501,-1.203,-1.1405,-1.1095,-0.9687,-0.875,-0.8604,-0.6889,-0.5639,-0.5014,-0.3922,-0.314,-0.2514,-0.2514,-0.2514,-0.2514,-0.2514,-0.2514,-0.2514,-0.2514,-0.2514,0.0,0.0,0.0,-4.2986,-4.2737,-4.2425,-4.211,-4.1859,-4.1492,-4.1287,-4.1172,-4.1172,-4.1172,-4.1172,-4.0803,-3.9474,-3.9216,-3.8862,-3.755,-3.6338,-3.55,-3.5376,-3.4278,-3.3418,-3.3418,-3.3418,-3.3418,-3.3418,-3.3418,-3.3418,-3.3418,-3.3418,-3.3418,-3.3418,-3.3418,-3.3418,-3.3418,-3.3418,-3.3418,-3.3418,-3.3418,-3.3418,-3.3292,-3.1963,-3.1322,-3.1322,-2.99,-2.8608,-2.7302,-2.647,-2.5412,-2.4088,-2.327,-2.2996,-2.2996,-2.2996,-2.2996,-2.2859,-2.2859,-2.2859,-2.2859,-2.2859,-2.2859,-2.2859,-2.2859,-2.2859,-2.2859,-2.2859,-2.2859,-2.2859,-2.2873,-2.1393,-1.9884,-1.948,-1.7059,-1.4621,-1.4802,-1.3498,-1.2298,-1.2298,-1.2406,-1.2501,-1.2501,-1.2501,-1.2501,-1.2501,-1.2501,-1.2501,-1.2501,-1.2811,-1.2965,-1.2656,-1.3274,-1.3583,-1.312,-1.156,-1.0624,-1.0624,-0.8759,-0.6889,-0.517,-0.517,-0.4234,-0.2671,-0.2514,-0.2514,-0.2514,-0.2514,-0.2514,-0.2514,-0.2514,-0.2514,-4.2986,0.0,0.0,0.0,0.0,0.0,-4.1859,-4.1516,-4.1287,-4.1172,-4.1172,-4.1172,-4.1172,-4.1172,-4.1057,-4.0687,-4.0687,-4.0199,-3.8862,-3.8387,-3.7429,-3.5623,-3.5047,-3.4427,-3.3544,-3.3418,-3.3418,-3.3418,-3.3418,-3.3418,-3.3418,-3.3418,-3.3418,-3.3418,-3.3418,-3.3418,-3.3418,-3.3418,-3.3418,-3.3418,-3.3418,-3.3418,-3.3418,-3.3019,-3.2765,-3.2765,-3.2384,-3.1451,-3.0012,-2.8328,-2.7419,-2.7004,-2.6188,-2.5263,-2.4467,-2.4467,-2.3802,-2.2859,-2.2859,-2.2859,-2.2859,-2.2859,-2.2859,-2.2859,-2.2859,-2.2859,-2.2859,-2.2859,-2.2859,-2.2913,-2.314,-2.2396,-2.1408,-2.0775,-1.9305,-1.7941,-1.7246,-1.5624,-1.3808,-1.2594,-1.2474,-1.2501,-1.2501,-1.2501,-1.2501,-1.2501,-1.2811,-1.2965,-1.2965,-1.3274,-1.3428,-1.3428,-1.3898,-1.4053,-1.3583,-1.312,-1.2649,-1.2494,-1.0474,-0.9071,-0.8604,-0.7513,-0.5952,-0.439,-0.4234,-0.3766,-0.2514,-0.2514,-0.2514,-0.2514,-0.2514,-0.2514,-4.2986,-4.2986,-4.2961,-4.255,0.0,0.0,-4.1672,-4.1353,-4.1172,-4.1172,-4.1172,-4.1172,-4.1172,-4.1172,-4.1172,-4.1172,-4.1172,-4.0942,-4.0083,-3.9546,-3.8589,-3.7166,-3.6093,-3.5044,-3.4266,-3.3749,-3.3418,-3.3418,-3.3418,-3.3418,-3.3418,-3.3418,-3.3418,-3.3418,-3.3418,-3.3418,-3.3418,-3.3418,-3.3418,-3.3418,-3.3418,-3.3418,-3.3418,-3.3418,-3.3418,-3.3418,-3.3418,-3.2892,-3.211,-3.0567,-2.9265,-2.8081,-2.7387,-2.6588,-2.5935,-2.5935,-2.5398,-2.4588,-2.3938,-2.3802,-2.3665,-2.3133,-2.2859,-2.2859,-2.2859,-2.2859,-2.2859,-2.2859,-2.2953,-2.31,-2.3287,-2.3077,-2.2755,-2.2335,-2.1013,-1.9639,-1.9166,-1.7369,-1.5395,-1.3876,-1.2958,-1.2501,-1.2501,-1.2501,-1.2501,-1.2656,-1.2965,-1.312,-1.3274,-1.3744,-1.3898,-1.3744,-1.4207,-1.4515,-1.4053,-1.3744,-1.359,-1.3436,-1.1876,-1.0785,-1.0008,-0.9071,-0.7825,-0.6108,-0.6108,-0.5655,-0.4737,-0.3149,-0.2521,-0.2533,-0.2545,-0.2551,-4.2986,-4.2986,-4.2936,-4.2563,-4.2326,0.0,-4.1623,-4.1329,-4.1172,-4.1172,-4.1172,-4.1172,-4.1172,-4.1172,-4.1172,-4.1172,-4.1172,-4.1172,-4.1172,-4.0216,-3.9358,-3.9197,-3.721,-3.5727,-3.5452,-3.4286,-3.3583,-3.3418,-3.3418,-3.3418,-3.3418,-3.3418,-3.3418,-3.3418,-3.3418,-3.3418,-3.3418,-3.3418,-3.3418,-3.3418,-3.3418,-3.3418,-3.3418,-3.3418,-3.3418,-3.3418,-3.3418,-3.3418,-3.3292,-3.2676,-3.0972,-2.8608,-2.7916,-2.7503,-2.7387,-2.7387,-2.7238,-2.6988,-2.5667,-2.5278,-2.5008,-2.3529,-2.3133,-2.3133,-2.2996,-2.2859,-2.2873,-2.2899,-2.3113,-2.334,-2.3407,-2.3522,-2.3627,-2.3653,-2.2202,-2.0714,-2.0714,-1.9046,-1.7227,-1.5854,-1.403,-1.2804,-1.2804,-1.2656,-1.2656,-1.312,-1.312,-1.3436,-1.3744,-1.4207,-1.4361,-1.3898,-1.4507,-1.4814,-1.4515,-1.4053,-1.3744,-1.3744,-1.2965,-1.1876,-1.0319,-1.0319,-0.9547,-0.7842,-0.7694,-0.7582,-0.7656,-0.4431,-0.2854,-0.2885,-0.2752,-0.2601,-4.331,-4.2986,-4.2936,-4.2376,-4.2139,0.0,-4.1378,-4.1287,-4.1172,-4.1172,-4.1172,-4.1172,-4.1172,-4.1172,-4.1172,-4.1172,-4.1172,-4.1172,-4.1172,-4.0985,-4.0425,-3.9335,-3.8734,-3.7657,-3.5643,-3.5139,-3.4599,-3.3437,-3.3418,-3.3418,-3.3418,-3.3418,-3.3418,-3.3418,-3.3418,-3.3418,-3.3418,-3.3418,-3.3418,-3.3418,-3.3418,-3.3418,-3.3418,-3.3418,-3.3418,-3.3418,-3.3418,-3.3292,-3.2912,-3.2549,-3.2019,-3.1506,-3.0843,-2.9917,-2.8871,-2.8871,-2.8048,-2.7105,-2.6855,-2.6722,-2.6455,-2.5008,-2.4602,-2.4345,-2.327,-2.2859,-2.2913,-2.3166,-2.3287,-2.3434,-2.3915,-2.3826,-2.3679,-2.4356,-2.34,-2.2545,-2.2694,-2.1014,-1.9359,-1.9348,-1.6608,-1.4483,-1.4483,-1.3575,-1.2965,-1.312,-1.3744,-1.4207,-1.4207,-1.4669,-1.4814,-1.4814,-1.4968,-1.4968,-1.4814,-1.4199,-1.3744,-1.3744,-1.2965,-1.2347,-1.203,-1.203,-1.1305,-0.9677,-0.8491,-0.7898,-0.7915,-0.5811,-0.4685,-0.4695,-0.3248,-0.2601,-4.3336,-4.2986,-4.2799,-4.2215,-4.21,0.0,0.0,-4.1172,-4.1172,-4.1172,-4.1172,-4.1172,-4.1172,-4.1172,-4.1172,-4.1172,-4.1172,-4.1172,-4.1172,-4.1172,-4.0985,-4.0263,-3.9567,-3.8641,-3.7385,-3.6745,-3.5828,-3.4452,-3.3769,-3.3418,-3.3418,-3.3418,-3.3418,-3.3418,-3.3418,-3.3418,-3.3418,-3.3418,-3.3418,-3.3418,-3.3418,-3.3418,-3.3418,-3.3418,-3.3418,-3.3418,-3.3418,-3.3165,-3.2931,-3.2549,-3.2294,-3.2038,-3.1635,-3.0991,-3.0325,-3.0325,-2.9917,-2.9117,-2.846,-2.8196,-2.7932,-2.6455,-2.6054,-2.5801,-2.4331,-2.3502,-2.3126,-2.3287,-2.3541,-2.3834,-2.4128,-2.417,-2.4156,-2.4449,-2.4044,-2.3451,-2.3587,-2.2533,-2.1625,-2.1924,-1.979,-1.7673,-1.6913,-1.5548,-1.4645,-1.4952,-1.4661,-1.4515,-1.4669,-1.4814,-1.4968,-1.4968,-1.4968,-1.4968,-1.4968,-1.4353,-1.4053,-1.4053,-1.3274,-1.2811,-1.2811,-1.2656,-1.2102,-1.1458,-1.0787,-1.0556,-1.0617,-0.8875,-0.7565,-0.6547,-0.576,-0.5283,-4.331,-4.2936,-4.2749,-4.219,-4.2037,-4.1898,0.0,0.0,0.0,-4.1172,-4.1172,-4.1172,-4.1172,-4.1172,-4.1172,-4.1172,-4.1172,-4.1172,-4.1172,-4.1172,-4.1172,-4.1172,-4.0239,-3.952,-3.9197,-3.7989,-3.6936,-3.5807,-3.4599,-3.3769,-3.3769,-3.3583,-3.3418,-3.3418,-3.3418,-3.3418,-3.3418,-3.3418,-3.3418,-3.3418,-3.3418,-3.3418,-3.3418,-3.3418,-3.3418,-3.3418,-3.3418,-3.3165,-3.2804,-3.2549,-3.2166,-3.1782,-3.1506,-3.1377,-3.1377,-3.1377,-3.1377,-3.1249,-3.0065,-2.9674,-2.9395,-2.8048,-2.7387,-2.6855,-2.5801,-2.4559,-2.3746,-2.38,-2.3924,-2.4222,-2.4275,-2.4462,-2.4636,-2.4636,-2.4341,-2.4044,-2.4044,-2.3748,-2.3438,-2.3451,-2.2521,-2.1003,-1.9327,-1.7825,-1.6922,-1.7236,-1.6033,-1.5122,-1.542,-1.5113,-1.4968,-1.4968,-1.4968,-1.4968,-1.4968,-1.4669,-1.4368,-1.4368,-1.359,-1.312,-1.312,-1.2718,-1.2651,-1.2773,-1.2956,-1.3105,-1.3214,-1.1842,-1.034,-0.8436,-0.8182,-0.8052,-4.3148,-4.2376,-4.2053,-4.1793,-4.1687,-4.1547,-4.1335,0.0,-4.1172,-4.1172,0.0,-4.1172,-4.1172,0.0,0.0,-4.1172,-4.1172,-4.1172,-4.1172,-4.1172,-4.1172,-4.1172,-4.1009,-4.0473,-3.9335,-3.802,-3.7176,-3.7086,-3.5848,-3.5139,-3.5139,-3.41,-3.3418,-3.3418,-3.3418,-3.3418,-3.3418,-3.3418,-3.3418,-3.3418,-3.3418,-3.3418,-3.3418,-3.3418,-3.3418,-3.3418,-3.3418,-3.3038,-3.2422,-3.2422,-3.2038,-3.1506,-3.1377,-3.1377,-3.1377,-3.1377,-3.1377,-3.1377,-3.1249,-3.112,-3.0972,-2.9526,-2.8196,-2.7105,-2.6855,-2.6027,-2.5273,-2.5563,-2.4929,-2.4262,-2.4516,-2.4609,-2.4636,-2.4636,-2.4341,-2.4044,-2.4044,-2.3748,-2.3438,-2.3896,-2.3735,-2.298,-2.1003,-1.9639,-1.8885,-1.8895,-1.7844,-1.7102,-1.7102,-1.588,-1.4968,-1.4968,-1.4968,-1.4968,-1.4968,-1.4669,-1.4368,-1.4368,-1.3898,-1.3428,-1.312,-1.2924,-1.2915,-1.2935,-1.3207,-1.3356,-1.3376,-1.3224,-1.2222,-1.0367,-0.8711,-0.8052,-4.2974,-4.3074,-4.3312,-4.1972,-4.2242,-4.2512,-4.1523,-4.1172,-4.1172,-4.1172,0.0,0.0,0.0,0.0,0.0,0.0,-4.1172,-4.1172,-4.1172,-4.1172,-4.1172,-4.1172,-4.1172,-4.0985,-4.0425,-3.9173,-3.8387,-3.8358,-3.721,-3.6203,-3.55,-3.4881,-3.4218,-3.3418,-3.3418,-3.3418,-3.3418,-3.3418,-3.3418,-3.3418,-3.3418,-3.3418,-3.3418,-3.3418,-3.3418,-3.3418,-3.3418,-3.3038,-3.2422,-3.2422,-3.2038,-3.1377,-3.1377,-3.1377,-3.1377,-3.1377,-3.1377,-3.1377,-3.1377,-3.1377,-3.1249,-3.0714,-2.9526,-2.8362,-2.871,-2.7948,-2.7077,-2.7539,-2.6772,-2.5763,-2.5904,-2.5212,-2.4636,-2.4636,-2.4488,-2.4341,-2.4341,-2.4193,-2.4193,-2.4341,-2.4341,-2.4031,-2.3277,-2.1912,-2.1014,-2.1014,-1.9661,-1.8754,-1.8754,-1.8148,-1.7398,-1.6492,-1.6339,-1.6033,-1.5122,-1.4814,-1.4814,-1.4814,-1.4053,-1.3428,-1.2811,-1.2869,-1.2868,-1.2963,-1.3166,-1.3308,-1.3403,-1.3403,-1.3065,-1.2229,-1.1558,-1.1059,-4.3337,-4.3612,-4.389,-4.1941,-4.2326,-4.27,-4.1523,-4.1172,-4.1172,-4.1172,-4.1172,0.0,0.0,0.0,-4.1172,-4.1172,0.0,-4.1172,-4.1172,-4.1172,-4.1172,-4.1172,-4.1172,-4.1172,-4.1172,-4.0287,-3.9729,-3.9729,-3.8527,-3.7406,-3.6474,-3.5743,-3.4923,-3.4027,-3.3544,-3.3418,-3.3418,-3.3418,-3.3544,-3.3902,-3.3902,-3.3902,-3.3902,-3.3902,-3.3796,-3.3418,-3.3292,-3.2912,-3.2422,-3.2294,-3.191,-3.1377,-3.1377,-3.1377,-3.1377,-3.1377,-3.1377,-3.1377,-3.1377,-3.1377,-3.1377,-3.1377,-3.0786,-3.0145,-3.0425,-2.975,-2.8931,-2.933,-2.8253,-2.6939,-2.6939,-2.5786,-2.4636,-2.4636,-2.4636,-2.4636,-2.4636,-2.4636,-2.4636,-2.4636,-2.4636,-2.4636,-2.4636,-2.3574,-2.2831,-2.2831,-2.1475,-2.0414,-2.0414,-2.0113,-1.9359,-1.8158,-1.8006,-1.7398,-1.5727,-1.5727,-1.542,-1.4968,-1.4199,-1.3428,-1.2811,-1.2848,-1.2847,-1.2963,-1.3139,-1.3288,-1.3403,-1.3403,-1.3403,-1.3403,-1.3403,-1.3403,-4.4377,-4.3589,-4.3,-4.1611,-4.121,-4.1335,-4.1196,-4.1172,-4.1172,-4.1172,-4.1172,-4.1172,-4.1172,-4.1172,-4.1172,-4.1172,-4.1172,0.0,0.0,-4.1172,-4.1172,-4.1172,-4.1172,-4.1172,-4.1172,-4.1172,-4.1172,-4.1172,-3.9919,-3.914,-3.9044,-3.6767,-3.5376,-3.5376,-3.4027,-3.3418,-3.3418,-3.3418,-3.4027,-3.5376,-3.5376,-3.5376,-3.5376,-3.5376,-3.4652,-3.3418,-3.3058,-3.2676,-3.2422,-3.2038,-3.1653,-3.1377,-3.1377,-3.1377,-3.1377,-3.1377,-3.1377,-3.1377,-3.1377,-3.1377,-3.1377,-3.1377,-3.1653,-3.1851,-3.187,-3.146,-3.0804,-3.0821,-2.8964,-2.6939,-2.6939,-2.5786,-2.4636,-2.4636,-2.4636,-2.4636,-2.4636,-2.4636,-2.4636,-2.4636,-2.4636,-2.4636,-2.4636,-2.4488,-2.4488,-2.4488,-2.3129,-2.2073,-2.2073,-2.0714,-1.9811,-1.9661,-1.9661,-1.9057,-1.7398,-1.7255,-1.6644,-1.5122,-1.4199,-1.3744,-1.359,-1.3268,-1.2956,-1.2963,-1.3247,-1.3397,-1.3403,-1.3403,-1.3403,-1.3403,-1.3403,-1.3403,-4.5472,-4.579,-4.5819,-4.3263,-4.3299,-4.3457,-4.1571,-4.1172,-4.1172,-4.1172,-4.1172,-4.1172,-4.1172,-4.1172,-4.1172,-4.1172,-4.1172,-4.1172,0.0,-4.1172,-4.1172,-4.1172,-4.1172,-4.1172,-4.1172,-4.1172,-4.1172,-4.1172,-4.0735,-4.0153,-3.9285,-3.841,-3.755,-3.6703,-3.6215,-3.5602,-3.4757,-3.5602,-3.5725,-3.5376,-3.6215,-3.6703,-3.6703,-3.6703,-3.646,-3.5971,-3.5623,-3.4757,-3.365,-3.3398,-3.2511,-3.1377,-3.1377,-3.1377,-3.1377,-3.1377,-3.1377,-3.1377,-3.1377,-3.1377,-3.1414,-3.1708,-3.1891,-3.2111,-3.2643,-3.2585,-3.2427,-3.2677,-3.1422,-2.9647,-2.8644,-2.7215,-2.5786,-2.477,-2.4636,-2.4636,-2.4636,-2.4636,-2.4636,-2.4636,-2.4636,-2.4636,-2.4636,-2.4636,-2.4636,-2.4636,-2.4179,-2.3735,-2.3735,-2.3277,-2.2521,-2.1464,-2.1325,-2.0714,-1.9057,-1.8006,-1.6644,-1.4669,-1.4053,-1.359,-1.3274,-1.3116,-1.2963,-1.2963,-1.3254,-1.3403,-1.3403,-1.3403,-1.3403,-1.3403,-1.3403,-1.3403,-4.67,-4.7205,-4.7135,-4.4266,-4.4026,-4.4051,-4.1898,-4.1335,-4.1172,-4.1172,-4.1172,-4.1335,-4.1735,-4.1523,-4.1359,-4.1735,-4.1523,-4.1172,0.0,-4.1172,-4.1172,-4.1172,-4.1172,-4.1172,-4.1172,-4.1172,-4.1172,-4.1172,-4.1172,-4.0826,-3.9966,-3.9474,-3.8862,-3.8029,-3.755,-3.6946,-3.6093,-3.6946,-3.7067,-3.6824,-3.755,-3.8029,-3.8029,-3.8029,-3.779,-3.7309,-3.6824,-3.6093,-3.4984,-3.4133,-3.3126,-3.2001,-3.1635,-3.1377,-3.1377,-3.1377,-3.1377,-3.1377,-3.1377,-3.1377,-3.1451,-3.1873,-3.2111,-3.2349,-3.3028,-3.3321,-3.3468,-3.3578,-3.256,-3.1192,-3.0053,-2.8694,-2.736,-2.5786,-2.5359,-2.5212,-2.4784,-2.4636,-2.4636,-2.4636,-2.4636,-2.4636,-2.4636,-2.4636,-2.4636,-2.4636,-2.4636,-2.4636,-2.4636,-2.4636,-2.4179,-2.3129,-2.298,-2.2223,-1.9962,-1.8309,-1.6644,-1.4669,-1.4053,-1.359,-1.3274,-1.3116,-1.2963,-1.2963,-1.3254,-1.3403,-1.3403,-1.3403,-1.3403,-1.3403,-1.3403,-1.3403]}]]